[[{"header":{"parameterUnit":"m.s-1","parameterCategory":1,"la1":30.6,"la2":29.2853,"lo1":-89.7004,"lo2":-87.6739,"dy":0.0162,"dx":0.0183,"nx":112,"ny":82,"refTime":"2025-08-28T00:00:00:Z","depth":0,"parameterNumber":2,"parameterNumberName":"U-component_of_WINDS"},"data":[0.0,0.0,0.0,0.0,0.0,0.0,0.0,0.0,0.0,0.0,0.0,0.0,0.0,0.0,0.0,0.0,0.0,0.0,0.0,0.0,0.0,0.0,0.0,0.0,0.0,0.0,0.0,0.0,0.0,0.0,0.0,0.0,0.0,0.0,0.0,0.0,0.0,0.0,0.0,0.0,0.0,0.0,0.0,0.0,0.0,0.0,0.0,0.0,0.0,0.0,0.0,0.0,0.0,0.0,0.0,0.0,0.0,0.0,0.0,0.0,0.0,0.0,0.0,0.0,0.0,0.0,0.0,0.0,0.0,0.0,0.0,0.0,0.0,0.0,0.0,0.0,0.0,0.0,0.0,0.0,0.0,0.0,0.0,0.0,0.0,0.0,0.0,0.0,0.0,0.0,1.464,1.6531,1.7765,1.7678,1.5748,1.3544,1.0926,0.7793,0.0,0.0,0.0,0.0,0.0,0.0,0.0,0.0,0.0,0.0,0.0,0.0,0.0,0.0,0.0,0.0,0.0,0.0,0.0,0.0,0.0,0.0,0.0,0.0,0.0,0.0,0.0,0.0,0.0,0.0,0.0,0.0,0.0,0.0,0.0,0.0,0.0,0.0,0.0,0.0,0.0,0.0,0.0,0.0,0.0,0.0,0.0,0.0,0.0,0.0,0.0,0.0,0.0,0.0,0.0,0.0,0.0,0.0,0.0,0.0,0.0,0.0,0.0,0.0,0.0,0.0,0.0,0.0,0.0,0.0,0.0,0.0,0.0,0.0,0.0,0.0,0.0,0.0,0.0,0.0,0.0,0.0,0.0,0.0,0.0,0.0,0.0,0.0,0.0,0.0,0.0,0.0,0.0,0.0,0.0,0.0,0.0,0.0,0.0,0.0,0.0,0.0,0.0,0.0,1.5078,1.7971,1.796,1.716,1.5719,1.4019,1.1485,0.7832,0.0,0.0,0.0,0.0,0.0,0.0,0.0,0.0,0.0,0.0,0.0,0.0,0.0,0.0,0.0,0.0,0.0,0.0,0.0,0.0,0.0,0.0,0.0,0.0,0.0,0.0,0.0,0.0,0.0,0.0,0.0,0.0,0.0,0.0,0.0,0.0,0.0,0.0,0.0,0.0,0.0,0.0,0.0,0.0,0.0,0.0,0.0,0.0,0.0,0.0,0.0,0.0,0.0,0.0,0.0,0.0,0.0,0.0,0.0,0.0,0.0,0.0,0.0,0.0,0.0,0.0,0.0,0.0,0.0,0.0,0.0,0.0,0.0,0.0,0.0,0.0,0.0,0.0,0.0,0.0,0.0,0.0,0.0,0.0,0.0,0.0,0.0,0.0,0.0,0.0,0.0,0.0,0.0,0.0,0.0,0.0,0.0,0.0,0.0,0.0,0.0,0.0,0.0,1.4555,1.5961,1.8699,1.7864,1.654,1.5115,1.3435,1.0938,0.7448,0.6282,0.0,0.0,0.0,0.0,0.0,0.0,0.0,0.0,0.0,0.0,0.0,0.0,0.0,0.0,0.0,0.0,0.0,0.0,0.0,0.0,0.0,0.0,0.0,0.0,0.0,0.0,0.0,0.0,0.0,0.0,0.0,0.0,0.0,0.0,0.0,0.0,0.0,0.0,0.0,0.0,0.0,0.0,0.0,0.0,0.0,0.0,0.0,0.0,0.0,0.0,0.0,0.0,0.0,0.0,0.0,0.0,0.0,0.0,0.0,0.0,0.0,0.0,0.0,0.0,0.0,0.0,0.0,0.0,0.0,0.0,0.0,0.0,0.0,0.0,0.0,0.0,0.0,0.0,0.0,0.0,0.0,0.0,0.0,0.0,0.0,0.0,0.0,0.0,0.0,0.0,0.0,0.0,0.0,0.0,0.0,0.0,0.0,0.0,0.0,0.0,0.0,0.0,1.591,1.6703,1.8871,1.7726,1.6198,1.4674,1.2898,1.0492,0.7278,0.6329,0.0,0.0,0.0,0.0,0.0,0.0,0.0,0.0,0.0,0.0,0.0,0.0,0.0,0.0,0.0,0.0,0.0,0.0,0.0,0.0,0.0,0.0,0.0,0.0,0.0,0.0,0.0,0.0,0.0,0.0,0.0,0.0,0.0,0.0,0.0,0.0,0.0,0.0,0.0,0.0,0.0,0.0,0.0,0.0,0.0,0.0,0.0,0.0,0.0,0.0,0.0,0.0,0.0,0.0,0.0,0.0,0.0,0.0,0.0,0.0,0.0,0.0,0.0,0.0,0.0,0.0,0.0,0.0,0.0,0.0,0.0,0.0,0.0,0.0,0.0,0.0,0.0,0.0,0.0,0.0,0.0,0.0,0.0,0.0,0.0,0.0,0.0,0.0,0.0,0.0,0.0,0.0,0.0,0.0,0.0,0.0,0.0,0.0,0.0,0.0,0.0,0.0,1.5769,1.697,1.8319,1.7685,1.6488,1.4832,1.3081,1.0781,0.7739,0.6108,0.0,0.0,0.0,0.0,0.0,0.0,0.0,0.0,0.0,0.0,0.0,0.0,0.0,0.0,0.0,0.0,0.0,0.0,0.0,0.0,0.0,0.0,0.0,0.0,0.0,0.0,0.0,0.0,0.0,0.0,0.0,0.0,0.0,0.0,0.0,0.0,0.0,0.0,0.0,0.0,0.0,0.0,0.0,0.0,0.0,0.0,0.0,0.0,0.0,0.0,0.0,0.0,0.0,0.0,0.0,0.0,0.0,0.0,0.0,0.0,0.0,0.0,0.0,0.0,0.0,0.0,0.0,0.0,0.0,0.0,0.0,0.0,0.0,0.0,0.0,0.0,0.0,0.0,0.0,0.0,0.0,0.0,0.0,0.0,0.0,0.0,0.0,0.0,0.0,0.0,0.0,0.0,0.0,0.0,0.0,0.0,0.0,0.0,0.0,0.0,0.0,0.0,1.5273,1.6293,0.0,1.6963,1.5556,1.408,1.2696,1.0547,0.737,0.0,0.0,0.0,0.0,0.0,0.0,0.0,0.0,0.0,0.0,0.0,0.0,0.0,0.0,0.0,0.0,0.0,0.0,0.0,0.0,0.0,0.0,0.0,0.0,0.0,0.0,0.0,0.0,0.0,0.0,0.0,0.0,0.0,0.0,0.0,0.0,0.0,0.0,0.0,0.0,0.0,0.0,0.0,0.0,0.0,0.0,0.0,0.0,0.0,0.0,0.0,0.0,0.0,0.0,0.0,0.0,0.0,0.0,0.0,0.0,0.0,0.0,0.0,0.0,0.0,0.0,0.0,0.0,0.0,0.0,0.0,0.0,0.0,0.0,0.0,0.0,0.0,0.0,0.0,0.0,0.0,0.0,0.0,0.0,0.0,0.0,0.0,0.0,0.0,0.0,0.0,0.0,0.0,0.0,0.0,0.0,0.0,0.0,0.0,0.0,0.0,0.0,1.4251,1.5098,1.6044,0.0,1.6546,1.5241,1.3933,1.237,1.0316,0.7676,0.0,0.0,0.0,0.0,0.0,0.0,0.0,0.0,0.0,0.0,0.0,0.0,0.0,0.0,0.0,0.0,0.0,0.0,0.0,0.0,0.0,0.0,0.0,0.0,0.0,0.0,0.0,0.0,0.0,0.0,0.0,0.0,0.0,0.0,0.0,0.0,0.0,0.0,0.0,0.0,0.0,0.0,0.0,0.0,0.0,0.0,0.0,0.0,0.0,0.0,0.0,0.0,0.0,0.0,0.0,0.0,0.0,0.0,0.0,0.0,0.0,0.0,0.0,0.0,0.0,0.0,0.0,0.0,0.0,0.0,0.0,0.0,0.0,0.0,0.0,0.0,0.0,0.0,0.0,0.0,0.0,0.0,0.0,0.0,0.0,0.0,0.0,0.0,0.0,0.0,0.0,0.0,0.0,0.0,0.0,0.0,0.0,0.0,0.0,0.0,0.0,0.0,1.3755,1.5331,1.6411,1.6765,1.6552,1.5869,1.4606,1.2156,1.0163,0.0,0.0,0.0,0.0,0.0,0.0,0.0,0.0,0.0,0.0,0.0,0.0,0.0,0.0,0.0,0.0,0.0,0.0,0.0,0.0,0.0,0.0,0.0,0.0,0.0,0.0,0.0,0.0,0.0,0.0,0.0,0.0,0.0,0.0,0.0,0.0,0.0,0.0,0.0,0.0,0.0,0.0,0.0,0.0,0.0,0.0,0.0,0.0,0.0,0.0,0.0,0.0,0.0,0.0,0.0,0.0,0.0,0.0,0.0,0.0,0.0,0.0,0.0,0.0,0.0,0.0,0.0,0.0,0.0,0.0,0.0,0.0,0.0,0.0,0.0,0.0,0.0,0.0,0.0,0.0,0.0,0.0,0.0,0.0,0.0,0.0,0.0,0.0,0.0,0.0,0.0,0.0,0.0,0.0,0.0,0.0,0.0,0.0,0.0,0.0,0.0,0.0,0.0,1.3996,1.5171,1.6138,1.7001,1.608,1.5023,1.4079,1.2152,1.0201,0.8351,0.0,0.0,0.0,0.0,0.0,0.0,0.0,0.0,0.0,0.0,0.0,0.0,0.0,0.0,0.0,0.0,0.0,0.0,0.0,0.0,0.0,0.0,0.0,0.0,0.0,0.0,0.0,0.0,0.0,0.0,0.0,0.0,0.0,0.0,0.0,0.0,0.0,0.0,0.0,0.0,0.0,0.0,0.0,0.0,0.0,0.0,0.0,0.0,0.0,0.0,0.0,0.0,0.0,0.0,0.0,0.0,0.0,0.0,0.0,0.0,0.0,0.0,0.0,0.0,0.0,0.0,0.0,0.0,0.0,0.0,0.0,0.0,0.0,0.0,0.0,0.0,0.0,0.0,0.0,0.0,0.0,0.0,0.0,0.0,0.0,0.0,0.0,0.0,0.0,0.0,0.0,0.0,0.0,0.0,0.0,0.0,0.0,0.0,0.0,0.0,0.0,0.0,1.4067,1.5246,1.6189,1.7098,1.6003,1.49,1.413,1.2103,1.0172,0.8572,0.0,0.0,0.0,0.0,0.0,0.0,0.0,0.0,0.0,0.0,0.0,0.0,0.0,0.0,0.0,0.0,0.0,0.0,0.0,0.0,0.0,0.0,0.0,0.0,0.0,0.0,0.0,0.0,0.0,0.0,0.0,0.0,0.0,0.0,0.0,0.0,0.0,0.0,0.0,0.0,0.0,0.0,0.0,0.0,0.0,0.0,0.0,0.0,0.0,0.0,0.0,0.0,0.0,0.0,0.0,0.0,0.0,0.0,0.0,0.0,0.0,0.0,0.0,0.0,0.0,0.0,0.0,0.0,0.0,0.0,0.0,0.0,0.0,0.0,0.0,0.0,0.0,0.0,0.0,0.0,0.0,0.0,0.0,0.0,0.0,0.0,0.0,0.0,0.0,0.0,0.0,0.0,0.0,0.0,0.0,0.0,0.0,0.0,0.0,0.0,0.0,0.0,1.4003,1.5425,1.6449,1.7173,1.6186,1.5242,1.453,1.2099,1.019,0.9242,0.0,0.0,0.0,0.0,0.0,0.0,0.0,0.0,0.0,0.0,0.0,0.0,0.0,0.0,0.0,0.0,0.0,0.0,0.0,0.0,0.0,0.0,0.0,0.0,0.0,0.0,0.0,0.0,0.0,0.0,0.0,0.0,0.0,0.0,0.0,0.0,0.0,0.0,0.0,0.0,0.0,0.0,0.0,0.0,0.0,0.0,0.0,0.0,0.0,0.0,0.0,0.0,0.0,0.0,0.0,0.0,0.0,0.0,0.0,0.0,-1.0714,0.0,0.0,0.0,0.0,0.0,0.0,0.0,0.0,0.0,0.0,0.0,0.0,0.0,0.0,0.0,0.0,0.0,0.0,0.0,0.0,0.0,0.0,0.0,0.0,0.0,0.0,0.0,0.0,0.0,0.0,0.0,0.0,0.0,0.0,0.0,0.0,0.0,0.0,0.0,0.0,0.0,1.4093,1.5265,1.631,1.7473,1.6378,1.521,1.4342,1.2532,1.076,0.9145,0.7765,0.0,0.0,0.0,0.0,0.0,0.0,0.0,0.0,0.0,0.0,0.0,0.0,0.0,0.0,0.0,0.0,0.0,0.0,0.0,0.0,0.0,0.0,0.0,0.0,0.0,0.0,0.0,0.0,0.0,0.0,0.0,0.0,0.0,0.0,0.0,0.0,0.0,0.0,0.0,0.0,0.0,0.0,0.0,0.0,0.0,0.0,0.0,0.0,0.0,0.0,0.0,0.0,0.0,0.0,0.0,0.0,0.0,0.0,0.0,0.0,-1.225,0.0,0.0,0.0,0.0,0.0,0.0,0.0,0.0,0.0,0.0,0.0,0.0,0.0,0.0,0.0,0.0,0.0,0.0,0.0,0.0,0.0,0.0,0.0,0.0,0.0,0.0,0.0,0.0,0.0,0.0,0.0,0.0,0.0,0.0,0.0,0.0,0.0,0.0,0.0,0.0,1.4309,1.5544,1.67,1.7899,1.7087,1.6013,1.4862,1.3267,1.1562,0.9777,0.8609,0.0,0.0,0.0,0.0,0.0,0.0,0.0,0.0,0.0,0.0,0.0,0.0,0.0,0.0,0.0,0.0,0.0,0.0,0.0,0.0,0.0,0.0,0.0,0.0,0.0,0.0,0.0,0.0,0.0,0.0,0.0,0.0,0.0,0.0,0.0,0.0,0.0,0.0,0.0,0.0,0.0,0.0,0.0,0.0,0.0,0.0,0.0,0.0,0.0,0.0,0.0,0.0,0.0,-1.7176,-1.7734,-1.7828,-1.8455,-1.9151,-1.9705,-1.7372,-1.6048,-1.5408,-1.4193,0.0,0.0,0.0,0.0,0.0,0.0,0.0,0.0,0.0,0.0,0.0,0.0,0.0,0.0,0.0,0.0,0.0,0.0,0.0,0.0,0.0,0.0,1.3805,1.4125,1.4898,1.5096,1.351,0.0,0.0,0.0,0.0,0.0,0.0,0.0,0.0,0.0,0.0,0.0,1.4748,1.6042,1.7224,1.8414,1.7949,1.7014,1.5648,1.4108,1.2448,1.0674,0.9498,0.8594,0.0,0.0,0.0,0.0,0.0,0.0,0.0,0.0,0.0,0.0,0.0,0.0,0.0,0.0,0.0,0.0,0.0,0.0,0.0,0.0,0.0,0.0,0.0,0.0,0.0,0.0,0.0,0.0,0.0,0.0,0.0,0.0,-1.0218,-1.1571,0.0,0.0,0.0,0.0,0.0,0.0,0.0,0.0,0.0,0.0,0.0,0.0,0.0,-1.6509,-1.7465,-1.9043,-1.9862,-1.9882,-2.1439,-2.2164,-2.2176,-2.2156,-2.2227,-2.2312,-2.1994,0.0,-1.7497,-1.7305,0.0,0.0,0.0,0.0,0.0,0.0,0.0,0.0,0.0,0.0,0.0,0.0,0.0,0.0,0.0,0.0,0.0,0.0,0.0,0.0,0.0,0.0,1.2465,1.3267,1.4362,1.5202,1.5072,1.4337,1.3641,1.345,1.2312,1.1047,0.0,0.0,0.0,0.0,0.0,0.0,1.5704,1.6629,1.7578,1.8942,1.8538,1.7607,1.6209,1.482,1.3223,1.13,1.0102,0.9155,0.8454,0.8205,0.0,0.0,0.0,0.0,0.0,0.0,0.0,0.0,0.0,0.0,0.0,0.0,0.0,0.0,0.0,0.0,0.0,0.0,0.0,0.0,0.0,0.0,0.0,0.0,0.0,0.0,0.0,0.0,0.0,-0.9963,-1.1794,-1.2442,-1.2455,-1.204,0.0,0.0,0.0,0.0,0.0,0.0,0.0,0.0,0.0,-1.8586,-1.9104,-1.9799,-2.0701,-2.1498,-2.1916,-2.1957,-2.3112,-2.3674,-2.3692,-2.4073,-2.4262,-2.4258,-2.4296,-2.3185,-2.1274,-1.9847,-1.8274,-1.6661,0.0,0.0,0.0,0.0,-1.5828,-1.6292,-1.6496,-1.6336,-1.5654,-1.3267,0.0,0.0,0.0,0.0,0.0,0.0,0.0,0.0932,0.3555,0.6307,0.902,1.1428,1.3171,1.439,1.4705,1.4455,1.4312,1.4919,1.4865,1.4049,1.1914,1.1827,0.0,0.0,0.0,1.4369,1.5691,1.6976,1.8149,1.9154,1.8925,1.8144,1.6771,1.5485,1.3922,1.1931,1.1027,1.0261,0.9589,0.9369,0.9054,0.0,0.0,0.0,0.0,0.0,0.0,0.0,0.0,0.0,0.0,0.0,0.0,0.0,0.0,0.0,0.0,0.0,0.0,0.0,0.0,0.0,0.0,0.0,0.0,0.0,0.0,0.0,0.0,-1.1538,-1.3038,-1.3213,-1.378,-1.3799,0.0,0.0,0.0,0.0,0.0,0.0,-1.7225,-1.8723,-2.0094,-2.1235,-2.1864,-2.2628,-2.354,-2.3563,-2.3584,-2.3648,-2.4238,-2.4502,-2.4538,-2.5099,-2.5368,-2.5379,-2.5379,-2.5008,-2.425,-2.2159,-2.0643,-1.9544,-1.828,-1.7962,-1.8243,-1.8437,-1.8945,-1.9719,-2.0927,-2.1081,-2.0569,-1.9321,-1.7864,-1.5806,-1.1571,0.0,0.0,0.0,0.0,-0.445,-0.1107,0.1524,0.4243,0.798,1.0299,1.1926,1.2868,1.3412,1.4151,1.564,1.641,1.6061,1.3703,1.3651,0.0,0.0,0.0,1.5289,1.6058,1.7408,1.8508,1.9107,1.8961,1.8323,1.7143,1.576,1.4199,1.2452,1.1616,1.0949,1.0421,1.029,1.0219,1.0176,0.0,0.0,0.0,0.0,0.0,0.0,0.0,0.0,0.0,0.0,0.0,0.0,0.0,0.0,0.0,0.0,0.0,0.0,0.0,0.0,0.0,0.0,0.0,0.0,0.0,0.0,0.0,0.0,0.0,-1.4889,-1.5555,0.0,0.0,0.0,0.0,-1.5855,-1.7613,-1.9048,-1.9865,-2.0837,-2.2158,-2.386,-2.4003,-2.4441,-2.5274,-2.5335,-2.5372,-2.5372,-2.5341,-2.5335,-2.5344,-2.5315,-2.5317,-2.5317,-2.5317,-2.5279,-2.5173,-2.4347,-2.3005,-2.1459,-2.1372,-2.0869,-2.0268,-2.1155,-2.1504,-2.1658,-2.2292,-2.2417,-2.218,-2.1622,-1.9826,-1.7668,-1.6383,-1.582,0.0,0.0,-1.3785,-1.2376,-0.9066,-0.5602,-0.1932,0.215,0.4793,0.6998,0.9249,1.0703,1.2443,1.5426,1.5729,1.5439,1.5192,0.0,1.511,1.5075,1.5359,1.6091,1.7504,1.7992,1.8354,1.8781,1.853,1.7999,1.7163,1.534,1.3803,1.2742,1.1565,1.0763,1.0408,1.0688,1.0787,1.0668,0.9763,0.0,0.0,0.0,0.0,0.0,0.0,0.0,0.0,0.0,0.0,0.0,0.0,0.0,0.0,0.0,0.0,0.0,0.0,0.0,0.0,0.0,0.0,0.0,0.0,0.0,0.0,0.0,0.0,-1.7586,-1.8808,0.0,-1.8265,-1.8416,-1.8768,-1.9243,-2.0359,-2.1397,-2.223,-2.3231,-2.4047,-2.4665,-2.4836,-2.505,-2.5339,-2.5359,-2.5379,-2.5379,-2.5357,-2.5335,-2.533,-2.5308,-2.5308,-2.5308,-2.5308,-2.5308,-2.5269,-2.5013,-2.4544,-2.3938,-2.3418,-2.3365,-2.3536,-2.323,-2.3447,-2.3905,-2.3994,-2.3898,-2.3584,-2.2528,-2.0837,-1.91,-1.8456,-1.7974,-1.7525,-1.6909,-1.6508,-1.5455,-1.1839,-0.9057,-0.5983,-0.1148,0.1778,0.4198,0.6767,0.8168,0.9643,1.1996,1.3913,1.4909,1.4204,1.4659,1.4837,1.3954,1.5058,1.6246,1.6944,1.7692,1.8073,1.7925,1.7438,1.6839,1.6077,1.4506,1.3384,1.2986,1.199,1.1443,1.1501,1.1811,1.2034,1.2102,1.1395,1.0712,0.0,0.0,0.0,0.0,0.0,0.0,0.0,0.0,0.0,0.0,0.0,0.0,0.0,0.0,0.0,0.0,0.0,0.0,0.0,0.0,0.0,0.0,0.0,0.0,0.0,0.0,-1.8525,-1.9393,-2.0905,-2.1502,-2.0599,-2.0975,-2.1458,-2.1891,-2.2691,-2.3377,-2.3908,-2.4567,-2.4924,-2.4924,-2.5113,-2.5203,-2.5203,-2.5264,-2.5308,-2.5308,-2.5308,-2.5308,-2.5308,-2.5308,-2.5308,-2.5308,-2.5308,-2.5308,-2.5308,-2.5308,-2.5308,-2.525,-2.4716,-2.4868,-2.529,-2.4614,-2.4716,-2.5129,-2.4759,-2.431,-2.3747,-2.2862,-2.1605,-2.0404,-2.0,-1.9492,-1.8981,-1.8658,-1.8358,-1.7426,-1.4486,-1.1926,-0.8981,-0.4526,-0.1443,0.1195,0.3788,0.5192,0.6597,0.8849,1.1856,1.3935,1.3646,1.4377,1.4745,1.3962,1.5238,1.6342,1.645,1.7238,1.7602,1.7047,1.6663,1.6122,1.5327,1.4109,1.3289,1.3108,1.2304,1.1958,1.2191,1.2256,1.2419,1.269,1.2105,1.1462,1.0751,0.0,0.0,0.0,0.0,0.0,0.0,0.0,0.0,0.0,0.0,0.0,0.0,0.0,0.0,0.0,0.0,0.0,0.0,0.0,0.0,0.0,0.0,0.0,-1.6786,-1.8087,-1.9439,-2.0292,-2.1755,-2.234,-2.149,-2.2874,-2.3731,-2.3553,-2.443,-2.4911,-2.479,-2.479,-2.4797,-2.4804,-2.4936,-2.5004,-2.5004,-2.5198,-2.5274,-2.5274,-2.5298,-2.5279,-2.5279,-2.5303,-2.5303,-2.5279,-2.5279,-2.5279,-2.5279,-2.5279,-2.5279,-2.5279,-2.5279,-2.5279,-2.5298,-2.5274,-2.5264,-2.5163,-2.449,-2.3588,-2.2708,-2.2695,-2.22,-2.1521,-2.1102,-2.0649,-2.0297,-2.0297,-1.9636,-1.865,-1.7316,-1.4375,-1.1004,-0.8021,-0.4961,-0.2041,0.0419,0.1879,0.3517,0.6315,0.9611,1.2358,1.3686,1.4362,1.4862,1.5328,1.5993,0.0,1.6175,1.6722,1.6885,1.6231,1.6198,1.5893,1.5064,1.4184,1.3513,1.3147,1.2471,1.2191,1.2434,1.1998,1.1958,1.235,1.1891,1.1246,1.0387,0.0,0.0,0.0,0.0,0.0,0.0,0.0,0.0,0.0,0.0,0.0,0.0,0.0,0.0,0.0,0.0,0.0,0.0,0.0,0.0,0.0,-1.7773,-1.9287,-1.9279,-2.0456,-2.1705,-2.2722,-2.3643,-2.4098,-2.3864,-2.4124,-2.4282,-2.4228,-2.4346,-2.4391,-2.4366,-2.4503,-2.4647,-2.4797,-2.4835,-2.4904,-2.5004,-2.4968,-2.4948,-2.4948,-2.503,-2.5088,-2.5088,-2.5224,-2.5219,-2.5088,-2.5088,-2.5088,-2.5088,-2.5088,-2.5088,-2.5088,-2.5088,-2.5088,-2.5059,-2.4809,-2.4476,-2.4072,-2.365,-2.3147,-2.2656,-2.2357,-2.1958,-2.146,-2.0715,-2.0399,-2.0297,-2.0297,-2.011,-1.9629,-1.8436,-1.5694,-1.2307,-0.8741,-0.5459,-0.2158,0.1431,0.2458,0.3312,0.5353,0.7189,0.9126,1.1424,1.2242,1.2722,1.3187,1.4232,1.4948,1.4844,1.5286,1.5532,1.5345,1.5122,1.4908,1.4662,1.3614,1.319,1.3643,1.2682,1.2451,1.3235,1.3148,1.327,1.3679,1.3112,1.2711,0.0,0.0,0.0,0.0,0.0,0.0,0.0,0.0,0.0,0.0,0.0,0.0,0.0,0.0,0.0,0.0,0.0,0.0,0.0,0.0,0.0,0.0,-2.0169,-2.1627,-2.2119,-2.2514,-2.3117,-2.41,-2.4558,-2.4804,-2.4804,-2.4693,-2.4583,-2.4512,-2.4393,-2.4284,-2.4199,-2.4312,-2.4461,-2.467,-2.467,-2.4749,-2.4898,-2.4835,-2.4804,-2.4804,-2.4871,-2.4943,-2.4991,-2.5111,-2.5105,-2.5004,-2.5004,-2.4968,-2.4923,-2.4923,-2.4923,-2.493,0.0,0.0,0.0,0.0,-2.4201,-2.3592,-2.3381,-2.2974,-2.2456,-2.2031,-2.1639,-2.1228,-2.0501,-2.0024,-1.9656,-1.9414,-1.9005,-1.8332,-1.6875,-1.4176,-1.1129,-0.8378,-0.5125,-0.1971,0.0625,0.1794,0.2835,0.4578,0.5449,0.0,0.9231,1.0444,1.1236,1.1703,1.2954,1.385,1.3794,1.4375,1.4727,1.4556,1.4676,1.4674,1.4517,1.4041,0.0,0.0,0.0,1.2997,1.3218,1.3383,0.0,0.0,0.0,0.0,0.0,0.0,0.0,0.0,1.351,1.4249,0.0,0.0,0.0,0.0,0.0,0.0,0.0,0.0,0.0,0.0,0.0,0.0,0.0,0.0,0.0,0.0,-2.2665,-2.3872,-2.4655,-2.4083,-2.3869,-2.4666,-2.4746,-2.4731,-2.4731,-2.4731,-2.4654,-2.4478,-2.4461,-2.4393,-2.4209,0.0,0.0,0.0,0.0,-2.4551,-2.4768,-2.4746,-2.4731,-2.4731,-2.476,-2.4835,-2.493,-2.4974,-2.498,-2.498,-2.4943,-2.4897,-2.4797,-2.4775,-2.4768,-2.4763,-2.4853,-2.4824,-2.4731,-2.4648,-2.4136,-2.3451,-2.3419,0.0,0.0,-2.1688,-2.1291,-2.0894,-2.0382,-1.9564,-1.8712,-1.8204,-1.7282,-1.6068,-1.4304,-1.1588,-0.8958,-0.7599,-0.4498,-0.1636,-0.0955,0.0511,0.2198,0.3883,0.4253,0.4955,0.7058,0.8805,1.0118,1.0663,1.1951,1.2859,1.2872,1.369,1.4152,1.3842,1.4503,0.0,1.4596,1.4872,1.4974,1.473,1.4441,1.391,1.3141,1.3479,1.4046,1.4769,1.4769,1.5478,1.6908,1.7108,1.7157,1.7,1.5746,1.6392,0.0,0.0,0.0,0.0,0.0,0.0,0.0,0.0,0.0,0.0,0.0,0.0,0.0,0.0,0.0,-2.2105,-2.3411,-2.4375,-2.4532,-2.4271,-2.4199,-2.4526,-2.44,-2.4321,-2.4321,-2.4321,-2.4303,-2.4247,-2.4266,-2.4247,-2.4199,-2.419,-2.4294,-2.4495,-2.4339,-2.4348,-2.4569,-2.4401,-2.4321,-2.4321,0.0,0.0,-2.4596,-2.4763,-2.4835,-2.4828,-2.4666,-2.4666,-2.479,-2.4623,-2.4569,-2.4534,-2.4288,-2.4237,-2.4257,-2.3705,-2.3406,-2.3212,-2.2949,-2.2612,-2.2166,-2.1369,-2.1055,-2.0845,-2.0067,-1.9055,0.0,-1.8432,-1.766,-1.6589,-1.568,-1.299,-1.0029,-0.8267,-0.4836,-0.1626,-0.0426,0.049,0.1472,0.2774,0.3369,0.3978,0.489,0.6803,0.8548,0.96,1.0663,1.1354,1.1406,1.2271,1.298,1.3238,1.3782,1.4358,1.4937,1.4559,1.4646,1.5431,1.5716,1.5773,1.5614,1.5986,1.6285,1.6431,1.6431,1.6597,1.6908,1.7585,1.7886,1.7876,1.8347,1.8774,0.0,0.0,0.0,0.0,0.0,0.0,0.0,0.0,0.0,0.0,0.0,-1.9156,-2.0491,0.0,-2.2781,-2.3531,-2.4133,-2.4461,-2.4357,-2.4257,-2.4237,-2.4348,-2.4257,-2.419,-2.419,-2.419,-2.419,-2.419,-2.419,-2.419,-2.419,-2.419,-2.4294,-2.4495,-2.4303,-2.4294,-2.4503,-2.4303,-2.419,-2.419,-2.4303,-2.441,-2.4503,-2.4599,-2.4647,-2.4639,-2.4534,-2.4503,-2.4495,-2.4393,-2.4348,-2.4321,-2.3974,-2.3893,-2.3907,-2.3577,-2.3236,-2.2935,-2.2759,-2.251,-2.2194,-2.1507,-2.1166,-2.0862,-2.0193,-1.8881,-1.7585,-1.747,-1.6438,-1.5017,-1.3518,-1.1564,-0.9426,-0.7351,-0.4548,-0.2007,-0.0736,0.0267,0.1163,0.2073,0.2713,0.3284,0.3854,0.5369,0.6989,0.8444,0.974,1.0664,1.0952,1.1671,1.2324,1.2747,1.323,1.3848,1.4737,1.4702,1.4945,1.5662,1.5886,1.6098,1.6295,1.6693,1.7092,1.7502,1.7502,1.7704,1.8089,1.85,1.8702,1.872,2.0047,2.0618,0.0,0.0,0.0,0.0,0.0,0.0,0.0,0.0,-1.7547,-1.9479,-2.0443,-2.1396,-2.2945,-2.3643,-2.4164,-2.4712,-2.4591,-2.4384,-2.4218,-2.419,-2.419,-2.419,-2.419,-2.419,-2.419,-2.419,-2.419,-2.419,-2.419,-2.419,-2.419,-2.419,-2.4266,-2.4445,-2.4284,-2.4275,-2.4435,-2.4275,-2.419,-2.419,-2.419,-2.4284,-2.4435,-2.4435,-2.4461,-2.4503,-2.4503,-2.4384,-2.419,-2.419,-2.419,-2.417,-2.3827,-2.366,-2.3599,-2.3599,-2.3247,-2.2797,-2.2721,-2.251,-2.2223,-2.1748,-2.1322,-2.091,-2.0449,-1.8857,-1.707,-1.6477,-1.5003,-1.3101,-1.097,-0.9651,-0.8357,-0.6201,-0.4167,-0.2394,-0.1309,-0.0134,0.0895,0.1518,0.2008,0.2561,0.3237,0.4335,0.5695,0.7397,0.893,1.0108,1.0648,1.1263,1.1781,1.2174,1.2677,1.339,1.4408,1.5061,1.5554,1.5878,1.6022,1.6295,1.6728,1.7108,1.7625,1.8317,1.8335,1.8647,1.9297,1.9297,1.9389,1.9572,2.1096,2.1794,-1.5966,-1.6487,-1.7,-1.8526,-1.8456,-1.8979,0.0,0.0,-2.1771,-2.3724,-2.4195,-2.437,-2.4693,-2.4727,-2.4712,-2.4785,-2.4478,-2.4228,-2.4199,-2.419,-2.419,-2.419,-2.419,-2.419,-2.419,-2.419,-2.419,-2.419,-2.419,-2.419,-2.419,-2.419,-2.4209,-2.4237,-2.4209,-2.4209,-2.4237,-2.4209,-2.419,-2.419,-2.419,-2.4209,-2.4237,-2.4237,-2.4339,-2.4503,-2.4503,-2.4384,-2.419,-2.419,-2.419,-2.417,-2.3827,-2.3522,-2.3265,-2.3265,-2.32,-2.3105,-2.281,-2.251,-2.2223,-2.1748,-2.1322,-2.091,-2.0449,-1.8857,-1.707,-1.6477,-1.4654,-1.2532,-1.085,-0.9305,-0.7782,-0.6092,-0.4167,-0.2507,-0.1849,-0.076,0.0269,0.0873,0.1051,0.1451,0.2605,0.3741,0.5101,0.6834,0.8093,0.907,0.9588,1.0495,1.1113,1.1159,1.2006,1.3101,1.439,1.552,1.6325,1.6665,1.7173,1.7745,1.8328,1.8618,1.8891,1.9161,1.9168,1.9205,1.9297,1.9297,1.9675,2.0382,2.1345,2.1794,-1.9164,-1.9373,-1.9502,0.0,-2.1929,-2.2191,-2.3942,-2.3768,-2.3498,-2.4417,-2.4723,-2.4842,-2.498,-2.4891,-2.4804,0.0,-2.4461,-2.419,-2.419,-2.4026,-2.3907,-2.3907,-2.3907,-2.3986,-2.418,-2.419,-2.419,-2.419,-2.419,-2.419,-2.419,-2.419,-2.419,-2.419,-2.419,-2.4103,-2.3907,-2.3907,-2.3806,-2.3628,-2.3628,-2.3714,-2.3907,-2.3907,-2.4057,-2.433,-2.433,-2.4275,-2.419,-2.419,-2.419,-2.417,-2.3827,-2.361,-2.3437,-2.3057,-2.2802,-2.266,-2.2517,-2.2385,-2.2223,-2.1748,-2.1491,-2.1228,-2.0501,-1.9016,-1.737,-1.6536,-1.4462,-1.2132,-1.0536,-0.9235,-0.7842,-0.5935,-0.456,-0.3428,-0.2514,-0.1385,-0.0448,-0.0201,0.0425,0.1163,0.2029,0.3127,0.4239,0.5326,0.7057,0.8541,0.9399,0.9864,1.0475,1.1375,1.2543,1.3587,1.4438,1.5419,1.6232,1.6763,1.7327,1.793,1.8576,1.8965,1.9204,1.9297,1.9297,1.9297,1.9297,1.9767,2.0162,2.0521,2.1868,2.2501,-2.0747,0.0,0.0,-2.3749,-2.452,-2.4795,-2.4585,-2.453,-2.4523,-2.449,-2.4662,-2.4842,-2.498,-2.493,-2.4842,-2.4811,-2.4512,-2.4257,-2.4199,-2.3996,-2.3837,-2.3837,-2.3837,-2.3896,-2.4054,-2.4151,-2.419,-2.419,-2.4103,-2.4064,-2.4064,-2.3958,-2.3917,-2.3917,-2.3917,-2.3806,-2.3566,-2.3555,-2.3437,-2.32,-2.32,-2.3335,-2.3566,-2.366,-2.3785,-2.3927,-2.4016,-2.4006,-2.3927,-2.4016,-2.4064,-2.4044,-2.3795,-2.3631,-2.35,-2.2923,-2.259,-2.2371,-2.2178,-2.2194,-2.2194,-2.1613,-2.143,-2.129,-2.0517,-1.9268,-1.7885,-1.684,-1.4696,-1.232,-1.0624,-0.9312,-0.791,-0.581,-0.4834,-0.4043,-0.2735,-0.163,-0.0851,-0.0694,0.0179,0.1096,0.1697,0.2752,0.3698,0.4299,0.6134,0.7773,0.8691,0.9332,1.0234,1.1664,1.2987,1.3985,1.447,1.5314,1.6095,1.6751,1.7228,1.7821,1.8576,1.8999,1.9235,1.9297,1.9297,1.9407,1.962,2.0217,2.0749,2.1226,2.2489,2.3206,0.0,0.0,-2.4116,-2.4171,-2.5364,-2.6319,-2.554,-2.5356,-2.5196,-2.462,-2.4662,-2.4842,-2.498,-2.5004,-2.4949,-2.4814,-2.4623,-2.4409,-2.4228,-2.419,-2.418,-2.418,-2.418,-2.4064,0.0,-2.4006,-2.419,-2.419,-2.3896,-2.3714,-2.3714,-2.3403,-2.3224,-2.3224,-2.3224,-2.3242,-2.323,-2.323,-2.32,-2.32,-2.32,-2.32,-2.3242,-2.3555,-2.3533,-2.3247,-2.3577,-2.3533,-2.3265,-2.3577,-2.3714,-2.3714,-2.3703,-2.3511,-2.3177,-2.2835,-2.2695,-2.2591,-2.1876,-2.1913,-2.2166,-2.1291,-2.1007,-2.0926,-2.0449,-1.9636,-1.8636,-1.7505,-1.5515,-1.3314,-1.1378,-0.9584,-0.78,-0.5788,-0.4834,-0.3931,-0.2204,-0.134,-0.0716,-0.0135,0.0471,0.1096,0.1697,0.2752,0.3698,0.4299,0.5459,0.645,0.7015,0.889,1.0608,1.1682,1.2987,1.3985,1.447,1.5314,1.6095,1.6751,1.7056,1.762,1.8566,1.8852,1.9092,1.9297,1.9297,1.9675,2.0448,2.0493,2.1336,2.2942,2.3178,2.3712,-2.2749,0.0,-2.4575,-2.619,-2.6998,-2.7181,-2.6374,-2.619,-2.5835,-2.4561,-2.4461,-2.4615,-2.4666,-2.4663,-2.4659,-2.4607,-2.4426,-2.4201,-2.3917,-2.3682,-2.3448,-2.3224,-2.32,0.0,0.0,0.0,0.0,-2.3886,-2.3976,-2.3927,-2.3703,-2.3588,-2.3426,-2.32,-2.32,-2.3093,-2.2873,-2.2873,-2.2776,-2.2611,-2.2776,-2.2873,-2.2885,-2.323,-2.3311,-2.32,-2.3323,-2.3294,-2.32,-2.3323,-2.3369,-2.3346,-2.3129,-2.2972,-2.2835,-2.2541,-2.2422,-2.2412,-2.2147,-2.1957,-2.1749,-2.1166,-2.0991,-2.0862,-2.0122,-1.9651,-1.899,-1.7178,-1.5161,-1.3122,-1.1352,-0.9738,-0.8213,-0.6761,-0.5962,-0.5155,-0.3807,-0.2446,-0.1429,-0.1228,-0.0381,0.0627,0.163,0.2115,0.2973,0.4735,0.5979,0.7064,0.8005,0.9354,1.0608,1.1689,1.2987,1.3985,1.447,1.5314,1.6095,1.6751,1.7188,1.7755,1.8566,1.899,1.9219,1.9297,1.9297,1.9693,2.0503,2.1088,2.1932,2.3015,2.3742,2.4242,-2.4225,-2.4997,-2.5493,-2.7328,-2.8026,-2.7952,-2.6851,-2.6602,-2.6153,-2.452,-2.4135,-2.4075,-2.4075,-2.3878,-2.3797,-2.4035,-2.3966,-2.3841,-2.372,-2.3522,-2.3342,-2.3277,-2.3262,-2.3228,0.0,0.0,0.0,-2.3551,-2.3714,-2.3692,-2.3357,-2.3259,-2.3092,-2.2883,-2.287,-2.2768,-2.2563,-2.2563,-2.2477,-2.231,-2.2477,-2.2563,-2.2577,-2.2873,-2.2977,-2.2883,-2.2972,-2.2977,-2.2883,-2.2972,-2.3021,-2.3009,-2.2923,-2.281,-2.2656,-2.2351,-2.2144,-2.2046,-2.2046,-2.1838,-2.1506,-2.0943,-2.0764,-2.0583,-1.9699,-1.9376,-1.8972,-1.7219,-1.5266,-1.3357,-1.1881,-1.0249,-0.8638,-0.7321,-0.6708,-0.5998,-0.4418,-0.3039,-0.2004,-0.1563,-0.0335,0.0895,0.1673,0.2164,0.3092,0.5022,0.5915,0.6945,0.8504,0.9403,1.0407,1.1653,1.2862,1.3822,1.4454,1.5149,1.591,1.6751,1.7176,1.7772,1.8566,1.8982,1.9238,1.9297,1.9297,1.9848,2.0978,2.1537,2.2363,2.3456,2.4169,2.4545,-2.421,-2.5452,-2.6819,-2.7596,-2.8347,-2.8482,-2.6929,-2.6544,-2.6041,-2.441,-2.3626,-2.321,0.0,0.0,-2.2479,-2.3111,-2.3303,-2.3451,-2.3691,-2.3725,-2.3862,0.0,0.0,0.0,0.0,0.0,0.0,-2.3318,0.0,-2.3057,-2.2721,-2.2463,-2.2307,-2.2296,-2.2296,-2.2296,-2.2296,-2.2296,-2.2296,-2.2296,-2.2296,-2.2296,-2.231,-2.2563,-2.2537,-2.2307,-2.2577,-2.2537,-2.2324,-2.2573,-2.2669,-2.2708,-2.3021,-2.296,-2.263,-2.2221,-2.1871,-2.1597,-2.1583,-2.1552,-2.1414,-2.0567,-2.0297,-2.0108,-1.9177,-1.8893,-1.8669,-1.7578,-1.58,-1.3971,-1.2871,-1.1064,-0.9128,-0.7467,-0.7036,-0.6386,-0.4083,-0.3124,-0.2352,-0.1184,0.0535,0.1808,0.1808,0.279,0.3972,0.5091,0.5281,0.6128,0.8403,0.9104,1.0021,1.1634,1.2583,1.3461,1.4392,1.486,1.5565,1.667,1.702,1.7608,1.8547,1.8843,1.9084,1.9297,1.9297,2.0123,2.1794,2.1794,2.2639,2.4199,2.441,2.4599,-2.5623,-2.6536,-2.717,-2.774,-2.7616,-2.7156,-2.6344,-2.5726,-2.4787,-2.2813,-2.2287,-2.1795,0.0,0.0,0.0,-2.2154,-2.3188,0.0,-2.4135,-2.4147,0.0,-2.4408,0.0,-2.4425,-2.4354,-2.4626,0.0,0.0,-2.3575,-2.3057,-2.2721,-2.2634,-2.2514,-2.231,-2.2296,-2.2296,-2.2296,-2.2296,-2.2296,-2.2296,-2.2296,-2.2296,-2.231,-2.236,-2.236,-2.231,-2.2374,-2.236,-2.231,-2.2374,-2.2398,-2.2398,-2.2494,-2.248,-2.2357,-2.1893,-2.167,-2.1552,-2.126,-2.0927,-2.0584,-2.0382,-2.0089,-1.9732,-1.9099,-1.8893,-1.8589,-1.7121,-1.5714,-1.4331,-1.2958,-1.1267,-0.9665,-0.8541,-0.7619,-0.6603,-0.5163,-0.3716,-0.2485,-0.1717,0.0245,0.1808,0.1808,0.279,0.384,0.4522,0.5022,0.6128,0.8403,0.9104,1.0021,1.1634,1.2583,1.3357,1.4003,1.4705,1.533,1.5876,1.6722,1.7518,1.8203,1.8726,1.9084,1.9297,1.9297,2.0123,2.1794,2.1794,2.2639,2.4199,2.441,2.4599,-2.6352,-2.7099,-2.7576,-2.783,-2.7345,-2.6544,-2.5534,-2.4478,-2.3185,-2.1342,-2.0469,0.0,0.0,0.0,0.0,0.0,0.0,0.0,-2.424,-2.4295,-2.4457,0.0,-2.4983,0.0,-2.4983,-2.5135,-2.5045,0.0,-2.4178,-2.3711,-2.3052,-2.3007,-2.2791,-2.231,-2.2296,-2.2296,-2.2296,-2.2296,-2.2296,-2.2296,-2.2296,-2.2296,-2.2296,-2.2296,-2.2296,-2.2296,-2.2296,-2.2296,-2.2296,-2.2296,-2.2296,-2.2282,-2.2061,-2.2003,-2.1913,-2.1259,-2.1023,-2.0975,-2.0565,-2.026,-2.007,-2.0229,-1.9879,-1.9244,-1.8708,-1.838,-1.7905,-1.6504,-1.5187,-1.3923,-1.2829,-1.1206,-0.9647,-0.8888,-0.8034,-0.7001,-0.5604,-0.4105,-0.2568,-0.0936,0.0691,0.1873,0.214,0.2968,0.3774,0.4325,0.4913,0.5936,0.7722,0.8622,0.9787,1.1616,1.2247,1.2891,1.3822,1.431,1.4864,1.5548,1.6333,1.716,1.8066,1.8569,1.8965,1.9289,1.9204,2.0044,2.1794,2.1688,2.2511,2.4199,2.441,2.4599,-2.6605,-2.7243,-2.7811,-2.7751,-2.7116,-2.6121,-2.466,-2.3023,-2.1363,-1.9776,0.0,-1.7183,-1.6258,-1.7737,-1.9138,-1.9248,0.0,-2.3258,-2.4169,-2.4345,-2.4683,-2.5502,-2.5693,-2.5761,-2.5761,-2.5761,-2.5473,-2.4829,-2.5067,-2.4736,-2.3608,-2.3444,-2.3054,-2.2313,-2.2296,-2.2296,-2.2296,-2.2296,-2.2268,-2.2209,-2.2209,-2.2209,-2.2209,-2.2209,-2.2209,-2.2209,-2.2265,-2.2268,-2.2209,-2.2209,-2.2209,-2.2149,-2.1688,-2.1521,-2.143,-2.0601,-2.0297,-2.0229,-1.9839,-1.9708,-1.9747,-2.0022,-1.9564,-1.8798,-1.8185,-1.7612,-1.6954,-1.5821,-1.4477,-1.3226,-1.2594,-1.095,-0.9341,-0.8834,-0.8172,-0.7231,-0.5647,-0.4235,-0.2495,0.0156,0.1206,0.1828,0.2271,0.2968,0.3638,0.4107,0.4757,0.5578,0.6624,0.7895,0.9432,1.1383,1.1719,1.2312,1.3606,1.3835,1.4317,1.5316,1.5831,1.6626,1.7766,1.8251,1.869,1.9127,1.9141,2.0009,2.1759,2.1653,2.2491,2.4199,2.4375,2.4575,-2.6612,-2.7043,-2.7317,-2.7004,-2.5898,-2.4741,-2.4129,-2.1859,0.0,0.0,-1.6278,-1.5199,-1.3725,-1.5973,-1.831,-1.9016,0.0,0.0,0.0,0.0,-2.5057,0.0,0.0,0.0,0.0,0.0,0.0,0.0,-2.6368,-2.5791,-2.4372,-2.3729,-2.3054,-2.2313,-2.2296,-2.2296,-2.2296,-2.2296,-2.2106,-2.1718,-2.1718,-2.1718,-2.1718,-2.1718,-2.1718,-2.1733,-2.212,-2.2092,-2.1718,-2.1718,-2.1718,-2.1673,-2.1276,-2.1102,-2.1039,-2.05,-2.0297,-2.0229,-1.9839,-1.9708,-1.9639,-1.9266,-1.9029,-1.8708,-1.7747,-1.7037,-1.6346,-1.5375,-1.4164,-1.2978,-1.2201,-1.0673,-0.9228,-0.8811,-0.7579,-0.6279,-0.548,-0.361,-0.1803,-0.0782,0.0313,0.0938,0.0534,0.1801,0.2896,0.2981,0.3884,0.4817,0.5513,0.7418,0.9162,1.035,1.1271,1.2066,1.2691,1.3454,1.3986,1.417,1.5139,1.5895,1.6348,1.7331,1.799,1.8298,1.9415,2.0472,2.1461,2.231,2.3235,2.419,2.4237,2.4444,-2.6656,-2.6841,-2.6939,-2.6758,-2.5591,-2.4117,-2.2632,0.0,0.0,0.0,-1.4134,-1.3348,-1.2238,0.0,0.0,0.0,0.0,0.0,0.0,0.0,0.0,0.0,0.0,0.0,0.0,0.0,0.0,-2.6691,-2.6691,-2.6065,-2.4575,-2.3427,-2.2548,-2.1959,-2.1928,-2.184,-2.1615,-2.1615,-2.1507,-2.1291,-2.1291,-2.1291,-2.1291,-2.1291,-2.1291,-2.1291,-2.1539,-2.1508,-2.1291,-2.1291,-2.1291,-2.1244,-2.0797,-2.0633,-2.0583,-2.0156,-1.9982,-1.9947,-1.9764,-1.953,-1.9207,-1.865,-1.8477,-1.8341,-1.7544,-1.668,-1.5823,-1.505,-1.3652,-1.2213,-1.1499,-0.995,-0.8522,-0.8335,-0.6965,-0.5475,-0.4552,-0.3262,-0.2095,-0.1496,-0.0646,-0.0022,0.0,0.0977,0.1976,0.2605,0.3397,0.4269,0.5185,0.6771,0.8314,0.9586,1.0473,1.139,1.2407,1.2918,1.3471,1.4165,1.505,1.588,1.6591,1.7614,1.8281,1.856,1.9641,2.0662,2.1607,2.252,2.3437,2.4357,2.454,2.4711,-2.6657,-2.6691,-2.6691,-2.6691,-2.5526,-2.3731,-2.1361,-1.8444,0.0,0.0,-1.254,-1.2062,-1.1534,0.0,0.0,0.0,0.0,0.0,0.0,0.0,0.0,0.0,0.0,0.0,0.0,0.0,0.0,-2.6691,-2.6455,-2.5731,-2.4434,-2.3167,-2.2157,-2.1492,-2.1476,-2.1322,-2.0991,-2.0991,-2.0943,-2.0845,-2.0845,-2.0845,-2.0845,-2.0845,-2.0845,-2.0862,-2.0975,-2.0943,-2.0845,-2.0845,-2.0845,-2.0813,-2.0364,-2.0176,-2.0141,-1.9818,-1.9708,-1.9708,-1.9708,-1.935,-1.8817,-1.8283,-1.7933,-1.7653,-1.71,-1.6145,-1.5084,-1.4518,-1.3031,-1.1448,-1.0813,-0.9319,-0.7869,-0.744,-0.6204,-0.4778,-0.3588,-0.3001,-0.2563,-0.2095,-0.1513,-0.0976,-0.0644,0.0133,0.1021,0.1978,0.2708,0.3522,0.46,0.5626,0.6857,0.8439,0.9663,1.0835,1.2061,1.2461,1.3131,1.431,1.4945,1.5767,1.6901,1.7823,1.8544,1.9049,1.9984,2.098,2.2032,2.2846,2.3705,2.4567,2.4824,2.4974,-2.6522,-2.6691,-2.6691,-2.6691,-2.5313,-2.3404,-2.129,0.0,0.0,-1.3063,-1.2257,-1.1918,-1.1852,-1.3588,0.0,0.0,0.0,-1.9152,0.0,0.0,0.0,0.0,0.0,0.0,0.0,0.0,0.0,-2.6691,-2.563,-2.4678,-2.4001,-2.3353,-2.242,-2.1103,-2.1071,-2.1039,-2.0991,-2.0991,-2.0797,-2.0365,-2.0365,-2.0365,-2.0365,-2.0365,-2.0365,-2.0382,-2.0813,-2.0764,-2.0365,-2.0365,-2.0365,-2.0314,-1.9909,-1.9747,-1.9747,-1.9711,-1.9708,-1.9708,-1.9708,-1.935,-1.8817,-1.8283,-1.7416,-1.6464,-1.5928,-1.4926,-1.3871,-1.339,-1.2273,-1.1081,-1.0342,-0.9225,-0.7816,-0.5977,-0.5,-0.4168,-0.3025,-0.2738,-0.2694,-0.263,-0.214,-0.1871,-0.2359,-0.1044,0.0111,0.0222,0.1224,0.2204,0.2849,0.3456,0.4483,0.6208,0.905,1.0889,1.1039,1.2336,1.3374,1.3917,1.436,1.505,1.6075,1.6881,1.7946,1.9241,2.0606,2.1789,2.2811,2.3835,2.45,2.4775,2.4792,2.4877,-2.5964,-2.6353,-2.6691,-2.6691,-2.5297,-2.3208,-2.051,0.0,-1.479,-1.2226,-1.1582,-1.1562,-1.186,-1.2924,-1.4295,0.0,0.0,0.0,0.0,0.0,0.0,0.0,0.0,0.0,0.0,0.0,-2.5801,-2.5801,-2.5043,-2.4277,-2.3631,-2.2856,-2.2053,-2.121,-2.0786,-2.0465,-2.0208,-2.0208,-2.0122,-1.9929,-1.9929,-1.9929,-1.9929,-1.9929,-1.9929,-1.9962,-2.0139,-2.0104,-1.9929,-1.9929,-1.9929,-1.9927,-1.9764,-1.9708,-1.9708,-1.9708,-1.9708,-1.9639,-1.9332,-1.8874,-1.8341,-1.7787,-1.6591,-1.5386,-1.5554,-1.4744,-1.376,-1.3561,-1.2447,-1.1165,-1.0461,-0.8776,-0.6937,-0.562,-0.4848,-0.4194,-0.3413,-0.3239,-0.3239,-0.3239,-0.3037,-0.2835,-0.2719,-0.1804,-0.0846,-0.0111,0.0714,0.1717,0.302,0.3369,0.4043,0.5476,0.7669,0.9546,1.0785,1.1802,1.3002,1.4477,1.4899,1.5602,1.6734,1.7597,1.852,1.9583,2.1025,2.2222,2.313,2.4179,2.4763,2.493,2.493,2.5011,-2.496,-2.538,-2.5698,-2.5832,-2.4513,-2.2411,0.0,-1.7079,-1.4723,-1.1892,-1.1414,-1.159,-1.1934,-1.2544,-1.3473,0.0,0.0,-1.6187,0.0,0.0,0.0,0.0,0.0,0.0,0.0,0.0,-2.5202,-2.5202,-2.4697,-2.4193,-2.3727,-2.2761,-2.1861,-2.1151,-2.0658,-2.0195,-1.9708,-1.9708,-1.9708,-1.9708,-1.9708,-1.9708,-1.9708,-1.9708,-1.9708,-1.9708,-1.9708,-1.9708,-1.9708,-1.9708,-1.9708,-1.9708,-1.9708,-1.9708,-1.9708,-1.9708,-1.9603,-1.9406,-1.9024,-1.8438,-1.7807,-1.7435,-1.6253,-1.5017,-1.5253,-1.448,-1.3529,-1.3529,-1.2358,-1.0954,-1.0285,-0.8447,-0.6516,-0.5632,-0.498,-0.4369,-0.374,-0.3604,-0.3604,-0.3604,-0.3604,-0.3464,-0.3034,-0.2475,-0.1716,-0.069,-0.0022,0.0937,0.2529,0.2885,0.3522,0.4882,0.6394,0.8157,1.0242,1.1395,1.277,1.4573,1.5005,1.5755,1.7016,1.7838,1.8896,2.0243,2.1372,2.25,2.3665,2.4365,2.4802,2.5004,2.5004,2.5105,-2.3408,-2.3585,-2.3346,-2.3819,-2.2726,-2.0807,0.0,-1.6641,-1.5034,-1.2355,-1.2003,-1.219,-1.22,-1.2636,-1.3244,-1.3991,0.0,0.0,0.0,0.0,0.0,0.0,0.0,0.0,0.0,-2.4804,-2.5202,-2.5202,-2.4697,0.0,-2.4394,-2.3299,-2.2074,-2.0752,-2.0707,-2.0378,-1.9708,-1.9708,-1.9708,-1.9708,-1.9708,-1.9708,-1.9708,-1.9708,-1.9708,-1.9708,-1.9708,-1.9708,-1.9708,-1.9708,-1.9708,-1.9708,-1.9708,-1.9708,-1.9708,-1.9708,-1.9369,-1.8912,-1.8893,-1.8204,-1.7312,-1.7312,-1.651,-1.5477,-1.4903,-1.386,-1.2905,-1.2905,-1.1716,-1.0261,-0.9573,-0.8262,-0.6854,-0.5913,-0.5282,-0.4659,-0.3787,-0.3604,-0.3604,-0.3604,-0.3604,-0.3604,-0.3604,-0.3078,-0.2495,-0.1873,-0.1274,-0.0447,0.076,0.1451,0.249,0.4214,0.5433,0.6997,0.9135,1.1274,1.2901,1.3852,1.4294,1.5124,1.6451,1.7156,1.8735,2.1331,2.1652,2.2696,2.4485,2.4503,2.467,2.5004,2.5004,2.5105,-2.0588,-2.121,-2.1665,-2.0938,-2.0094,-1.8858,-1.6638,-1.561,-1.4496,-1.2254,-1.188,-1.1971,-1.2174,-1.2332,-1.305,-1.4894,-1.5463,0.0,0.0,0.0,0.0,0.0,0.0,0.0,0.0,0.0,-2.4116,-2.4116,-2.3948,-2.3858,-2.3858,-2.3507,-2.2712,-2.1425,-2.0946,-2.0378,-1.9708,-1.9708,-1.9708,-1.9708,-1.9708,-1.9708,-1.9708,-1.9708,-1.9497,-1.9151,-1.9151,-1.9151,-1.9151,-1.9151,-1.9151,-1.9151,-1.9151,-1.893,-1.8612,-1.8612,-1.8496,-1.8302,-1.7927,-1.7585,-1.7167,-1.6382,-1.562,-1.488,-1.4283,-1.3826,-1.3314,-1.2399,-1.1437,-1.0466,-0.9634,-0.8387,-0.7199,-0.6476,-0.559,-0.475,-0.4256,-0.3858,-0.3604,-0.3604,-0.3604,-0.3604,-0.3604,-0.3101,-0.2495,-0.1895,-0.1297,-0.047,0.0738,0.1429,0.2315,0.365,0.5172,0.6989,0.9184,1.0623,1.2058,1.3611,1.4153,1.499,1.6236,1.7387,1.8763,2.0414,2.1555,2.2811,2.4155,2.4155,2.4334,2.4655,2.4788,2.4896,0.0,-1.8604,-1.9005,-1.8361,-1.783,-1.7018,-1.5265,-1.4625,-1.3914,-1.2164,-1.1805,-1.1844,-1.2013,-1.2128,-1.2671,-1.414,-1.4903,0.0,0.0,0.0,0.0,0.0,0.0,0.0,0.0,-2.346,-2.3595,-2.3595,-2.3595,-2.3595,-2.3595,-2.3595,-2.3131,-2.2119,-2.1665,-2.1126,-2.0453,-2.0198,-2.0079,-2.0064,-1.9828,-1.9584,-1.9406,-1.9406,-1.9114,-1.8593,-1.8593,-1.8593,0.0,-1.8593,-1.8593,-1.8593,-1.8593,-1.84,-1.8106,-1.8106,-1.7967,-1.7747,-1.7435,-1.7029,-1.6532,-1.5818,-1.505,-1.4236,-1.3606,-1.3437,-1.3242,-1.211,-1.1316,-1.0612,-0.9761,-0.8783,-0.7809,-0.7098,-0.6391,-0.5704,-0.5042,-0.4477,-0.4062,-0.3935,-0.3729,-0.3604,-0.3604,-0.3284,-0.2765,-0.1919,-0.1474,-0.0804,0.0403,0.1297,0.216,0.3102,0.4751,0.6542,0.8339,0.9799,1.1274,1.279,1.3738,1.4818,1.6081,1.7525,1.8963,2.0361,2.1572,2.2759,2.3888,2.4081,2.431,2.4503,2.4708,2.4804,0.0,-1.5823,-1.5675,-1.5937,-1.5765,-1.5189,-1.3921,-1.3667,0.0,-1.2059,-1.1805,-1.1835,-1.1925,-1.2099,-1.2298,-1.2488,0.0,0.0,0.0,0.0,0.0,0.0,0.0,0.0,-2.2763,-2.3266,-2.3595,-2.3595,-2.3595,-2.3595,-2.3595,-2.3595,-2.3325,-2.2778,-2.2763,-2.2418,-2.171,-2.1042,-2.0695,-2.0688,-1.9975,-1.9395,-1.8893,-1.8855,-1.8554,0.0,-1.8046,-1.8046,-1.8046,-1.8046,-1.8046,-1.8046,-1.8046,-1.8027,-1.7987,-1.7987,-1.7666,-1.7229,-1.7175,-1.6489,-1.5588,-1.5499,-1.4675,-1.3603,-1.2918,-1.2798,-1.2725,-1.1898,-1.1241,-1.0636,-0.9917,-0.9263,-0.86,-0.7758,-0.7482,-0.7114,-0.5958,-0.5264,-0.4749,-0.444,-0.3969,-0.3617,-0.3617,-0.361,-0.3195,-0.1986,-0.1808,-0.1362,-0.0157,0.1051,0.2027,0.2639,0.4265,0.5749,0.6847,0.891,1.0559,1.1531,1.304,1.4476,1.5795,1.7486,1.9165,2.0837,2.1647,2.2578,2.3639,2.4183,2.4434,2.4442,2.4662,2.476,-1.22,0.0,-1.3608,-1.2483,-1.2511,-1.2643,0.0,-1.2274,-1.249,-1.1925,0.0,-1.2119,-1.3139,-1.2956,-1.3307,-1.5316,0.0,0.0,0.0,0.0,0.0,-2.2981,-2.3295,-2.3385,-2.3385,-2.352,-2.3595,-2.3595,-2.3595,-2.3595,-2.3595,-2.3595,-2.3535,-2.3385,-2.3385,-2.2832,-2.171,-2.1032,-2.0689,-2.0688,-1.9586,-1.9007,-1.8893,-1.8477,-1.8007,-1.7483,-1.7483,-1.7483,-1.7483,-1.7483,-1.7483,-1.7483,-1.7483,-1.7229,-1.6879,-1.6879,-1.6795,-1.6625,-1.6157,-1.5818,-1.5454,-1.4526,-1.3718,-1.2973,-1.2258,-1.2442,-1.2544,-1.0779,-1.0542,-1.0542,-0.9335,-0.891,-0.8705,-0.8285,-0.7412,-0.6532,-0.6028,-0.5026,-0.4195,-0.4111,-0.3913,-0.3741,-0.3741,-0.3675,-0.3195,-0.1986,-0.1808,-0.1362,-0.0157,0.1051,0.2027,0.2639,0.4265,0.5588,0.6322,0.8347,0.9866,1.0512,1.1949,1.3285,1.4423,1.6323,1.806,1.9592,2.1542,2.2673,2.2935,2.3581,2.3891,2.3901,2.4201,2.433,-1.1062,-1.2008,-1.2916,-1.1889,-1.1907,-1.2124,-1.1893,0.0,0.0,0.0,0.0,-1.2119,-1.3151,-1.3301,0.0,0.0,-1.6323,0.0,0.0,0.0,0.0,-2.349,-2.3595,-2.3595,0.0,-2.3595,-2.3595,-2.3595,-2.3595,-2.3595,-2.3595,-2.3595,-2.3595,-2.3595,-2.3334,-2.2993,-2.2577,-2.1389,-2.0779,-2.0774,-1.9266,-1.8389,-1.8165,-1.7867,-1.7442,-1.693,-1.693,-1.693,-1.693,-1.693,-1.693,-1.693,-1.693,-1.6591,-1.6117,-1.6402,-1.6151,-1.5678,-1.561,-1.5241,-1.4618,-1.3695,-1.3176,-1.2691,-1.1649,-1.1832,-1.2039,-1.0295,-1.0064,-1.009,-0.9061,-0.8804,-0.8764,-0.8611,-0.7777,-0.6919,-0.6654,-0.5551,-0.4552,-0.4427,-0.4122,-0.3873,-0.3802,-0.375,-0.3262,-0.1992,-0.1808,-0.1362,-0.0157,0.1051,0.1917,0.2246,0.3851,0.513,0.5744,0.7328,0.8817,1.004,1.1601,1.3171,1.4682,1.6485,1.8249,1.9893,2.1573,2.2521,2.2708,2.3188,2.3519,2.3703,2.4036,2.419,-1.131,-1.2226,-1.3136,-1.2471,-1.2456,-1.2592,-1.2539,0.0,0.0,0.0,0.0,0.0,0.0,-1.387,0.0,0.0,0.0,0.0,-2.0658,-2.1979,-2.2927,-2.3535,-2.3595,0.0,-2.3595,-2.3595,-2.3595,-2.3595,-2.3595,-2.3595,-2.3595,-2.3595,-2.3595,-2.3595,-2.3009,-2.2957,-2.3465,-2.1758,-2.0826,-2.0731,-1.8961,-1.7821,-1.7312,-1.7209,-1.693,-1.65,-1.65,-1.65,-1.65,-1.65,-1.6457,-1.6358,-1.6358,-1.5986,-1.5521,-1.603,-1.5589,-1.4766,-1.5186,-1.4595,-1.3576,-1.3065,-1.2905,-1.2642,-1.1225,-1.1191,-1.1366,-1.0012,-0.971,-0.964,-0.8982,-0.8804,-0.8804,-0.8804,-0.8235,-0.7611,-0.7267,-0.6204,-0.522,-0.4892,-0.4393,-0.3963,-0.3739,-0.3768,-0.3333,-0.1874,-0.1752,-0.139,-0.016,0.0981,0.1706,0.182,0.3286,0.4517,0.5157,0.6272,0.7745,0.9589,1.1367,1.3313,1.5488,1.7116,1.8788,2.0573,2.1541,2.218,2.2521,2.286,2.3217,2.3555,2.3937,2.4113,-1.2386,-1.3573,-1.4166,-1.1938,-1.2242,-1.3019,-1.2732,0.0,0.0,0.0,0.0,0.0,0.0,-1.6189,-1.6846,0.0,0.0,-2.0613,0.0,0.0,-2.2927,-2.3535,0.0,-2.3595,-2.3595,-2.3595,-2.3595,-2.3595,-2.3595,-2.3595,-2.3595,-2.3595,-2.3595,-2.3595,-2.3009,-2.274,-2.2844,-2.1488,-2.0559,-2.0031,-1.877,-1.7862,-1.7271,-1.6837,-1.6573,-1.65,-1.65,-1.65,-1.65,-1.65,-1.6194,-1.5754,-1.5754,-1.5365,-1.4858,-1.4949,-1.4869,-1.4629,-1.4213,-1.3624,-1.3017,-1.2929,-1.2905,-1.2642,-1.1225,-1.0864,-1.0661,-0.9335,-0.9361,-0.964,-0.8982,-0.8804,-0.8804,-0.8804,-0.8235,-0.7524,-0.6838,-0.6044,-0.5279,-0.4667,-0.4347,-0.3968,-0.3317,-0.3638,-0.3304,-0.1337,-0.1558,-0.1484,-0.0174,0.0595,0.1287,0.1904,0.296,0.3945,0.4721,0.5949,0.7157,0.8318,1.0079,1.2402,1.5381,1.7001,1.846,1.9768,2.1038,2.1716,2.1759,2.2441,2.2792,2.2873,2.35,2.3785,-1.1638,-1.3001,-1.4108,-1.3025,-1.3678,-1.4516,-1.4351,0.0,0.0,0.0,0.0,0.0,0.0,0.0,-1.8431,-2.0438,0.0,-2.1994,-2.2613,-2.2987,-2.3302,0.0,0.0,-2.3595,-2.3595,-2.3595,-2.3595,-2.3595,-2.3595,-2.3465,-2.312,-2.3098,-2.295,-2.2583,-2.1997,-2.168,-2.168,-2.0733,-1.9984,-1.9462,-1.7968,-1.7144,-1.6858,-1.6616,-1.65,-1.65,-1.65,-1.65,-1.65,-1.65,-1.6139,-1.561,-1.561,-1.5028,-1.4167,-1.3836,-1.392,-1.4131,-1.3515,-1.3128,-1.2905,-1.2905,-1.2905,-1.2642,-1.1225,-1.0788,-1.0517,-0.9185,-0.9035,-0.9185,-0.8883,-0.8804,-0.8804,-0.8804,-0.8235,-0.7509,-0.675,-0.6009,-0.5296,-0.4625,-0.4436,-0.4093,-0.3247,-0.3323,-0.2931,-0.1163,-0.1184,-0.1058,-0.0126,0.0883,0.1636,0.1962,0.306,0.4048,0.4754,0.5705,0.729,0.969,1.1426,1.3333,1.5484,1.7066,1.8308,1.9141,2.0066,2.0782,2.1275,2.1795,2.2163,2.2398,2.3294,2.3703,-1.1277,-1.257,-1.3957,-1.4571,0.0,-1.5888,-1.6195,-1.522,0.0,0.0,0.0,0.0,0.0,-1.8406,0.0,-2.144,-2.2368,-2.2912,-2.2912,-2.3295,-2.3595,-2.3595,-2.3595,-2.3551,-2.3399,-2.3399,-2.3319,-2.3172,-2.3172,-2.295,-2.2498,-2.2475,-2.2216,-2.1734,-2.1113,-2.0795,-2.0795,-1.9901,-1.9228,-1.8881,-1.7546,-1.6751,-1.65,-1.65,-1.65,-1.65,-1.65,-1.6423,-1.6303,-1.6445,-1.5986,-1.5174,-1.5343,-1.4641,-1.3529,-1.3065,-1.319,-1.3529,-1.3065,-1.2905,-1.2881,-1.2691,-1.2632,-1.2378,-1.0998,-1.0568,-1.0312,-0.9133,-0.8804,-0.8804,-0.8804,-0.8804,-0.8804,-0.8804,-0.8374,-0.7696,-0.6804,-0.6145,-0.5519,-0.4653,-0.4491,-0.4149,-0.3074,-0.3033,-0.2583,-0.0935,-0.0827,-0.0725,-0.0078,0.106,0.1857,0.2037,0.3095,0.4192,0.5164,0.5933,0.767,1.0743,1.2382,1.3882,1.5343,1.6834,1.795,1.8636,1.9266,2.006,2.0991,2.1349,2.1738,2.2172,2.3052,2.3477,-1.2689,-1.3458,-1.4232,-1.6055,-1.6294,0.0,-1.7629,-1.6894,0.0,-1.8125,0.0,0.0,0.0,-2.0196,-2.153,-2.168,-2.2727,-2.3535,-2.3535,0.0,-2.3595,-2.3595,-2.3595,-2.3377,-2.2807,-2.2762,-2.2521,-2.1885,-2.1838,-2.1815,-2.1767,-2.1781,-2.1758,-2.1697,-2.1113,-2.0795,-2.0795,-1.9147,-1.8303,-1.8262,-1.814,-1.7526,-1.65,-1.65,-1.65,-1.65,-1.65,-1.6194,-1.5698,-1.6259,-1.5488,-1.398,-1.4537,-1.4025,-1.2968,-1.2929,-1.2929,-1.2968,-1.2929,-1.2905,-1.2798,-1.2104,-1.1888,-1.1616,-1.0287,-0.9865,-0.971,-0.9008,-0.8804,-0.8804,-0.8804,-0.8804,-0.8804,-0.8804,-0.8752,-0.8321,-0.6912,-0.6561,-0.6122,-0.4763,-0.4491,-0.4012,-0.2528,-0.2832,-0.2554,-0.0389,-0.0639,-0.0833,-0.0083,0.0694,0.1414,0.2104,0.2775,0.4004,0.6125,0.6971,0.812,0.9805,1.114,1.2725,1.4664,1.5881,1.7032,1.8131,1.9096,2.006,2.0991,2.1399,2.1838,2.2293,2.2625,2.2772,-1.1402,-1.2457,-1.3658,-1.5635,-1.6619,0.0,0.0,-1.8234,-1.8311,-1.9738,-2.0168,0.0,0.0,0.0,-2.1583,-2.1269,-2.2243,-2.2883,-2.2492,-2.2409,-2.2409,-2.2409,-2.2409,-2.2317,-2.21,-2.2077,-2.1969,-2.172,-2.1697,-2.1544,-2.1161,-2.1137,-2.0966,-2.0546,-2.0295,-2.0182,-2.0182,-1.9522,-1.9032,-1.8682,-1.7629,-1.6914,-1.65,-1.6117,-1.593,-1.5908,-1.5533,-1.5242,-1.505,-1.5287,-1.4766,-1.3802,-1.3624,-1.3296,-1.2905,-1.2905,-1.2905,-1.2905,-1.2905,-1.2905,-1.2774,-1.2055,-1.1789,-1.1541,-1.0218,-0.9788,-0.9666,-0.8982,-0.8804,-0.8804,-0.8804,-0.8454,-0.8103,-0.8103,-0.7777,-0.7155,-0.6145,-0.5923,-0.5628,-0.468,-0.4491,-0.4015,-0.2454,-0.2426,-0.2009,-0.0252,-0.0224,-0.0308,-0.0028,0.1034,0.1898,0.2174,0.3627,0.5115,0.6405,0.7573,0.8856,1.033,1.1223,1.2411,1.3996,1.5263,1.6591,1.8066,1.8468,1.9167,2.0191,2.0894,2.1323,2.1507,2.2324,2.281,-1.077,-1.2027,-1.3568,-1.5198,0.0,0.0,-1.8722,-1.905,-1.9537,-2.0806,-2.0675,0.0,0.0,0.0,0.0,0.0,-2.1721,-2.2216,-2.1767,-2.1697,-2.1697,-2.1697,-2.1697,-2.1639,-2.1424,-2.1414,-2.1328,-2.111,-2.111,-2.0928,-2.0497,-2.0472,-2.027,-1.9798,-1.9798,-1.9798,-1.9798,-1.9635,-1.9296,-1.8732,-1.7426,-1.6663,-1.6441,-1.5671,-1.532,-1.5298,-1.488,-1.4583,-1.4422,-1.4629,-1.4329,-1.3732,-1.3128,-1.2905,-1.2905,-1.2905,-1.2905,-1.2881,-1.2642,-1.2559,-1.2403,-1.1475,-1.1166,-1.0965,-0.9814,-0.9491,-0.9387,-0.8936,-0.8804,-0.8752,-0.8507,-0.8076,-0.7643,-0.7396,-0.6966,-0.6394,-0.5651,-0.5515,-0.5296,-0.4625,-0.4491,-0.4015,-0.2454,-0.2202,-0.1703,-0.0224,0.0,0.0,0.0,0.109,0.2119,0.2809,0.4656,0.6145,0.6885,0.8244,0.9448,1.0415,1.1265,1.242,1.395,1.505,1.6305,1.7827,1.8007,1.8693,1.9861,2.0632,2.115,2.1431,2.222,2.2691,-1.1269,-1.2581,-1.4207,0.0,0.0,0.0,-1.8755,-1.9293,-1.9997,-2.1336,0.0,-2.0197,-2.137,0.0,0.0,-2.0689,-2.1291,-2.171,-2.1673,-2.1673,-2.1673,-2.1673,-2.1673,-2.1448,-2.0845,-2.0795,-2.0535,-1.985,-1.9798,-1.9798,-1.9798,-1.9798,-1.9798,-1.9798,-1.9798,-1.9798,-1.9798,-1.9271,-1.8732,-1.8204,-1.7652,-1.7043,-1.636,-1.5223,-1.4698,-1.4686,-1.4686,-1.4329,-1.3849,-1.4445,-1.4329,-1.3732,-1.3128,-1.2905,-1.2905,-1.2905,-1.2905,-1.2798,-1.2055,-1.1789,-1.1566,-1.0236,-0.9788,-0.9666,-0.9008,-0.8804,-0.8804,-0.8804,-0.8804,-0.8619,-0.7883,-0.7696,-0.7509,-0.6777,-0.6588,-0.6367,-0.5651,-0.5487,-0.5296,-0.4625,-0.4491,-0.4012,-0.2454,-0.2202,-0.1703,-0.0224,0.0,0.0,0.0028,0.0671,0.1977,0.4179,0.5724,0.6885,0.7616,0.8981,0.9814,0.9814,1.1065,1.2677,1.4606,1.5276,1.6123,1.7271,1.7827,1.8787,2.0189,2.0733,2.1447,2.2282,2.2296,2.2296,-1.1879,-1.3039,0.0,-1.5558,0.0,0.0,0.0,-2.0527,0.0,0.0,-2.2074,-2.1544,-2.1518,0.0,0.0,-2.0266,-2.0957,-2.1332,-2.0472,-2.0345,-2.0345,-2.0345,-2.0345,-2.0308,-2.0118,-2.0105,-2.0003,-1.9798,-1.9798,-1.9798,-1.9798,-1.9798,-1.9798,-1.9798,-1.9798,-1.9798,-1.9798,-1.9648,-1.9284,-1.8757,-1.7351,-1.6397,-1.5813,-1.5063,-1.4468,-1.405,-1.3634,-1.3334,-1.3176,-1.3358,-1.3334,-1.3152,-1.2978,-1.2905,-1.2905,-1.2905,-1.2559,-1.208,-1.1888,-1.1491,-1.0939,-1.009,-0.9788,-0.9666,-0.9008,-0.8804,-0.8804,-0.8804,-0.8427,-0.7857,-0.7128,-0.6551,-0.6086,-0.5869,-0.5469,-0.5062,-0.4842,-0.4787,-0.4732,-0.4546,-0.407,-0.34,-0.2371,-0.1758,-0.109,-0.014,0.0,0.0364,0.1424,0.2232,0.3176,0.434,0.5737,0.6696,0.6912,0.8679,0.9987,1.0466,1.1316,1.2449,1.3927,1.463,1.5708,1.7271,1.7827,1.8487,1.928,2.0112,2.0797,2.1385,2.1675,2.2082,-1.3116,-1.4461,0.0,-1.6479,-1.7743,-1.923,-2.0642,0.0,0.0,0.0,0.0,-2.1945,-2.1832,-2.1584,0.0,-2.0291,-2.0565,-2.0643,-1.99,-1.9798,-1.9798,-1.9798,-1.9798,-1.9798,-1.9798,-1.9798,-1.9798,-1.9798,-1.9798,-1.9798,-1.9798,-1.9798,-1.9798,-1.9798,-1.9798,-1.9798,-1.9798,-1.9342,-1.8869,-1.8302,-1.6779,-1.5639,-1.4858,-1.426,-1.3789,-1.342,-1.3065,-1.2905,-1.2905,-1.2905,-1.2905,-1.2905,-1.2905,-1.2725,-1.2452,-1.2452,-1.2015,-1.1366,-1.1091,-1.0737,-1.0287,-0.9614,-0.9413,-0.9335,-0.8936,-0.8804,-0.8725,-0.8454,-0.8049,-0.745,-0.6443,-0.5842,-0.5433,-0.5164,-0.4787,-0.4491,-0.4491,-0.4491,-0.4491,-0.4491,-0.3901,-0.3148,-0.2343,-0.1591,-0.0838,-0.0112,0.0252,0.0755,0.1647,0.2732,0.3674,0.4391,0.5737,0.6723,0.702,0.8738,1.009,1.0762,1.1441,1.2483,1.403,1.448,1.5309,1.6595,1.7612,1.8347,1.8868,1.9834,2.0533,2.1023,2.1414,2.1832,-1.4527,-1.6288,0.0,-1.7558,-1.8234,0.0,-2.1113,-2.192,-2.2443,-2.2995,0.0,-2.1794,-2.2297,-2.1104,-2.0188,-2.0691,-2.0289,-1.9861,-1.9811,-1.9798,-1.9798,-1.9798,-1.9798,-1.9798,-1.9798,-1.9798,-1.9798,-1.9798,-1.9798,-1.9798,-1.9798,-1.9798,-1.9798,-1.9798,-1.9721,-1.9721,-1.9798,-1.8636,-1.7814,-1.7338,-1.6127,-1.4978,-1.3905,-1.3294,-1.3013,-1.2964,-1.2964,-1.2935,-1.2905,-1.2905,-1.2905,-1.2905,-1.2905,-1.2452,-1.1789,-1.1789,-1.1341,-1.0618,-1.0012,-0.9762,-0.9614,-0.9008,-0.8804,-0.8778,-0.8725,-0.8699,-0.8533,-0.7803,-0.7563,-0.7203,-0.5842,-0.546,-0.5242,-0.4653,-0.4491,-0.4491,-0.4491,-0.4491,-0.4491,-0.4405,-0.379,-0.3037,-0.2232,-0.148,-0.0755,0.0,0.0727,0.1229,0.1284,0.2593,0.3754,0.4426,0.5756,0.6885,0.7643,0.8981,1.009,1.0762,1.1441,1.2662,1.4537,1.4675,1.5017,1.5676,1.7259,1.8313,1.8735,1.9748,2.05,2.1023,2.1368,2.1582,-1.423,-1.5821,0.0,0.0,-1.9166,-2.0495,-2.1307,-2.192,-2.2443,-2.2995,-2.292,-2.2782,-2.2907,-2.228,-2.1669,-2.1395,-2.0867,-2.0352,-1.9861,-1.9798,-1.9798,-1.9798,-1.9798,-1.9798,-1.9798,-1.9798,-1.9798,-1.9798,-1.9798,-1.9798,-1.9798,-1.9798,-1.9798,-1.9798,-1.9228,-1.9202,-1.9798,-1.8422,-1.7736,-1.7775,-1.6443,-1.5468,-1.4794,-1.4293,-1.3816,-1.3369,-1.3369,-1.3184,-1.2905,-1.2905,-1.2905,-1.2905,-1.2905,-1.2452,-1.1789,-1.1789,-1.104,-0.9987,-0.9865,-0.9465,-0.8982,-0.8857,-0.8804,-0.8699,-0.8103,-0.7943,-0.7777,-0.7047,-0.6416,-0.5896,-0.5597,-0.5109,-0.468,-0.4543,-0.4491,-0.4491,-0.4491,-0.4491,-0.4322,-0.3735,-0.301,-0.2232,-0.148,-0.0727,0.0,0.0755,0.148,0.2174,0.276,0.3677,0.4508,0.5179,0.6064,0.6885,0.7643,0.8981,1.009,1.0762,1.1441,1.2468,1.3933,1.4445,1.5197,1.6281,1.7504,1.8151,1.8255,1.9306,2.0243,2.0991,2.1086,2.1508,-1.4728,0.0,0.0,-1.8416,0.0,-2.0767,-2.1056,-2.1518,-2.1995,-2.2284,-2.2732,-2.302,-2.2757,-2.2284,-2.1732,-2.1207,-2.0654,-2.015,-1.9849,-1.9798,-1.9798,-1.9798,-1.9798,-1.9798,-1.9798,-1.9798,-1.9798,-1.9798,-1.9798,-1.9798,-1.9798,-1.9475,-1.9281,-1.9281,-1.8555,-1.8367,-1.8741,-1.7441,-1.6845,-1.6935,-1.5658,-1.5013,-1.4949,-1.4473,-1.4065,-1.3773,-1.3594,-1.3379,-1.3164,-1.2993,-1.2905,-1.2905,-1.2905,-1.2246,-1.1316,-1.1316,-1.0466,-0.9309,-0.9309,-0.908,-0.8804,-0.8804,-0.8804,-0.8672,-0.791,-0.7696,-0.7477,-0.6389,-0.5787,-0.5433,-0.5109,-0.4759,-0.4491,-0.4491,-0.4491,-0.4491,-0.4491,-0.4491,-0.4267,-0.3511,-0.2732,-0.1952,-0.1229,-0.0476,0.0252,0.0978,0.173,0.2482,0.3262,0.4312,0.5113,0.546,0.647,0.7289,0.767,0.8981,1.009,1.0762,1.1441,1.2541,1.4167,1.4537,1.513,1.6051,1.7141,1.7847,1.8106,1.893,1.9681,2.0396,2.0582,2.1039,-1.4703,0.0,-1.7902,-1.8902,-1.9787,0.0,-2.0654,-2.1043,-2.1408,-2.1468,-2.2221,-2.2681,-2.2246,-2.1719,-2.1232,-2.0767,-2.0175,-1.9798,-1.9798,-1.9695,-1.9669,-1.9773,-1.9695,-1.9618,-1.9618,-1.9618,-1.9553,-1.9423,-1.9527,-1.9553,-1.9423,-1.8953,-1.8635,-1.8501,-1.7797,-1.7423,-1.751,-1.6325,-1.574,-1.5763,-1.4707,-1.4445,-1.4883,-1.4494,-1.4289,-1.4202,-1.3773,-1.3549,-1.3477,-1.3081,-1.2822,-1.2715,-1.2715,-1.1866,-1.0644,-1.0644,-0.9865,-0.8804,-0.8804,-0.8804,-0.8785,-0.8646,-0.8619,-0.8454,-0.7584,-0.7316,-0.7042,-0.5706,-0.5324,-0.5191,-0.4653,-0.4491,-0.4491,-0.4491,-0.4491,-0.446,-0.4349,-0.4294,-0.4015,-0.3093,-0.2315,-0.1619,-0.1006,-0.0392,0.028,0.1174,0.1814,0.2538,0.3483,0.4611,0.5406,0.5651,0.6767,0.7616,0.7857,0.9164,1.0218,1.0762,1.1541,1.2807,1.4629,1.4698,1.5039,1.5754,1.6778,1.7565,1.8106,1.8631,1.921,1.9803,2.0141,2.0583,0.0,0.0,-1.6831,0.0,-1.9453,-1.9497,0.0,0.0,-2.0943,0.0,-2.1606,-2.1681,-2.1606,-2.1182,-2.0779,-2.0704,-2.0175,-1.9798,-1.9798,-1.9254,-1.9097,-1.9721,-1.9228,-1.8847,-1.8847,-1.8847,-1.8581,-1.7922,-1.8501,-1.8581,-1.7934,-1.8421,-1.8421,-1.777,-1.7034,-1.6784,-1.707,-1.567,-1.5063,-1.5279,-1.4877,-1.4922,-1.5322,-1.5235,-1.5049,-1.4678,-1.4211,-1.3821,-1.3477,-1.3081,-1.2535,-1.1947,-1.1947,-1.1116,-0.9935,-0.9935,-0.9458,-0.8804,-0.8804,-0.8804,-0.8699,-0.8049,-0.7857,-0.7584,-0.6222,-0.5783,-0.5624,-0.4842,-0.4625,-0.4625,-0.4515,-0.4491,-0.4491,-0.4491,-0.4491,-0.4322,-0.368,-0.3511,-0.3037,-0.1675,-0.0811,-0.0252,-0.0168,-0.0056,0.0476,0.1842,0.2148,0.273,0.4153,0.4515,0.5089,0.6312,0.6642,0.7262,0.8533,0.9884,1.0686,1.0788,1.2024,1.3348,1.4663,1.4698,1.522,1.6358,1.6993,1.7565,1.8106,1.8631,1.9361,2.0212,2.028,2.0748,-1.2652,-1.5107,-1.7382,0.0,-1.9406,-1.958,-2.0077,0.0,-2.025,-2.0489,-2.0539,-2.0639,-2.0993,-2.0855,-2.0591,-2.0264,-1.9962,-1.9669,-1.9228,-1.89,-1.8821,-1.915,-1.8528,-1.8259,-1.8661,-1.834,-1.7961,-1.7633,-1.7895,-1.7922,-1.7633,-1.7523,-1.733,-1.6978,-1.6045,-1.5634,-1.5775,-1.4859,-1.4478,-1.4588,-1.4725,-1.4883,-1.5068,-1.5303,-1.5312,-1.5098,-1.4397,-1.4007,-1.3756,-1.2717,-1.208,-1.1765,-1.1391,-1.0644,-0.9788,-0.9788,-0.9387,-0.8804,-0.8804,-0.8804,-0.8672,-0.7937,-0.7696,-0.7423,-0.595,-0.5515,-0.5351,-0.4677,-0.4491,-0.4491,-0.4491,-0.4491,-0.4491,-0.4491,-0.4181,-0.3763,-0.3264,-0.3236,-0.2871,-0.1396,-0.0504,0.0,0.0,0.0,0.0504,0.1981,0.2202,0.276,0.4294,0.4842,0.5469,0.648,0.6966,0.7791,0.923,1.0244,1.0965,1.1341,1.2329,1.3286,1.4167,1.4514,1.5107,1.5986,1.657,1.725,1.8106,1.8341,1.8958,1.9965,1.9965,2.0296,0.0,0.0,-1.6638,-1.8287,-1.8923,-1.9259,0.0,0.0,-1.9648,0.0,-1.9798,-1.9936,-2.039,-2.0305,-2.005,-1.9589,-1.9371,-1.9044,-1.8501,-1.8259,-1.8205,-1.8394,-1.777,-1.755,-1.8097,-1.7633,-1.7246,-1.7052,-1.7126,-1.7088,-1.6895,-1.6545,-1.6196,-1.5897,-1.5191,-1.4678,-1.4463,-1.4033,-1.3841,-1.3948,-1.4414,-1.4678,-1.4805,-1.5215,-1.541,-1.5342,-1.4398,-1.3962,-1.3841,-1.2301,-1.1556,-1.1345,-1.0778,-1.0141,-0.9536,-0.9536,-0.9237,-0.8778,-0.8593,-0.8507,-0.8374,-0.7444,-0.7149,-0.6902,-0.5624,-0.5246,-0.5136,-0.4653,-0.4491,-0.4491,-0.4491,-0.4491,-0.446,-0.4236,-0.379,-0.3234,-0.2653,-0.2484,-0.2148,-0.1034,-0.0364,0.0,0.0,0.0,0.0448,0.1814,0.2232,0.2901,0.4322,0.5081,0.5787,0.6529,0.7262,0.827,0.9684,1.0415,1.1091,1.1765,1.2476,1.3238,1.4003,1.4468,1.5062,1.582,1.6259,1.6951,1.7907,1.8027,1.8574,1.9497,1.9639,1.9927,0.0,-1.2326,0.0,-1.6877,-1.7589,0.0,0.0,0.0,-1.9183,-1.9698,-1.9798,-1.9811,-1.9849,-1.9277,-1.8804,-1.8768,-1.8178,-1.7715,-1.7649,-1.7062,-1.6866,-1.7578,-1.7006,-1.6567,-1.6595,-1.6567,-1.6255,-1.5584,-1.5814,-1.5687,-1.4972,-1.5577,-1.5409,-1.4263,-1.4608,-1.4394,-1.3584,-1.3179,-1.3145,-1.3545,-1.3938,-1.4385,-1.4805,-1.5215,-1.541,-1.5323,-1.4154,-1.3628,-1.3508,-1.1964,-1.0942,-1.0328,-0.9993,-0.9439,-0.8857,-0.8857,-0.8831,-0.8699,-0.7996,-0.775,-0.753,-0.6086,-0.562,-0.5487,-0.4759,-0.4543,-0.4546,-0.4519,-0.4491,-0.4491,-0.4491,-0.4491,-0.4294,-0.3539,-0.3372,-0.2984,-0.1507,-0.0671,-0.014,-0.0084,-0.0028,0.0,0.0,0.0,0.0336,0.137,0.2347,0.3322,0.438,0.5081,0.5787,0.6529,0.7262,0.827,0.9684,1.0415,1.1091,1.1765,1.2476,1.343,1.4606,1.4675,1.5242,1.6423,1.6466,1.6774,1.7353,1.7847,1.84,1.8949,1.946,1.9927,0.0,0.0,0.0,-1.4809,-1.6056,-1.6913,-1.7529,-1.836,-1.9058,-1.9246,-1.9572,-1.9798,-1.9798,-1.9579,-1.9254,-1.8768,-1.8474,-1.7988,-1.7034,-1.668,-1.6595,-1.6866,-1.6226,-1.5979,-1.6464,-1.5838,-1.5311,-1.5038,-1.4847,-1.4616,-1.4365,-1.4589,-1.4676,-1.4541,-1.417,-1.3691,-1.3105,-1.2983,-1.2983,-1.3115,-1.3265,-1.3686,-1.433,-1.4003,-1.4145,-1.456,-1.3092,-1.2877,-1.345,-1.148,-1.0524,-1.0223,-0.9463,-0.9008,-0.8804,-0.8804,-0.8507,-0.8049,-0.7803,-0.7396,-0.6831,-0.5814,-0.5515,-0.5378,-0.4708,-0.4491,-0.4491,-0.4491,-0.4491,-0.4491,-0.4491,-0.4153,-0.3483,-0.2202,-0.1535,-0.1062,-0.0504,-0.0196,0.0,0.0,0.0,0.0,0.0,0.0,0.056,0.2207,0.2766,0.335,0.438,0.5081,0.5787,0.6529,0.7262,0.827,0.9684,1.0415,1.1091,1.1765,1.2476,1.3262,1.4097,1.4491,1.5085,1.5908,1.6303,1.6752,1.7312,1.7847,1.838,1.8912,1.9442,1.9782,-0.8467,0.0,0.0,0.0,0.0,-1.5409,-1.6756,0.0,-1.8092,-1.8845,-1.9271,-1.9597,-1.9773,-1.9798,-1.9553,-1.8821,-1.8274,-1.7633,-1.6652,-1.6293,-1.6122,-1.6122,-1.569,-1.5554,-1.5889,-1.5251,-1.4727,-1.458,-1.4143,-1.3899,-1.3899,-1.3899,-1.4036,-1.4346,-1.3799,-1.3311,-1.2905,-1.3164,-1.3098,-1.2688,-1.2995,-1.3258,-1.3507,-1.3143,-1.3274,-1.3726,-1.2381,-1.2248,-1.2852,-1.1003,-1.0222,-1.0158,-0.9262,-0.8924,-0.8911,-0.8844,-0.8348,-0.767,-0.7429,-0.6853,-0.6118,-0.541,-0.5164,-0.5085,-0.4625,-0.4491,-0.446,-0.4211,-0.4125,-0.4042,-0.379,-0.3178,-0.2371,-0.1341,-0.0532,0.0,0.0,0.0,0.0084,0.0308,0.0364,0.0392,0.0476,0.0784,0.1566,0.3267,0.3516,0.3821,0.4732,0.5437,0.6145,0.6885,0.7643,0.8646,1.0012,1.0542,1.1191,1.2104,1.2642,1.3262,1.4073,1.4491,1.5085,1.5886,1.6293,1.668,1.7034,1.7747,1.8283,1.865,1.9369,1.9885,0.0,0.0,0.0,0.0,0.0,0.0,-1.71,0.0,-1.6271,-1.8456,-1.892,-1.9096,-1.966,-1.9748,-1.9504,-1.8811,-1.7473,-1.651,-1.6492,-1.5864,-1.541,-1.541,-1.541,-1.5244,-1.4852,-1.4803,-1.459,-1.4124,-1.3695,-1.3486,-1.3486,-1.3496,-1.3496,-1.3486,-1.3496,-1.3311,-1.2905,-1.3649,-1.3448,-1.2307,-1.3137,-1.3139,-1.2409,-1.2762,-1.2948,-1.2917,-1.2112,-1.1772,-1.1688,-1.0564,-1.0083,-1.003,-0.9451,-0.9217,-0.9178,-0.8898,-0.8301,-0.7563,-0.6831,-0.6091,-0.5351,-0.4708,-0.4491,-0.4491,-0.4491,-0.4491,-0.4349,-0.3594,-0.3345,-0.3121,-0.2371,-0.1647,-0.109,-0.1062,-0.0532,0.0,0.0,0.0028,0.0252,0.095,0.109,0.1202,0.1482,0.2347,0.335,0.4349,0.4491,0.4732,0.5378,0.6118,0.6885,0.7589,0.8368,0.9361,1.0661,1.0813,1.1409,1.2774,1.2881,1.343,1.4663,1.4698,1.5276,1.6504,1.6525,1.6525,1.655,1.7605,1.81,1.8173,1.925,2.0318,-0.6979,0.0,0.0,0.0,0.0,0.0,0.0,0.0,-1.4941,-1.6321,-1.6914,-1.7491,-1.8468,-1.8643,-1.857,-1.8363,-1.7757,-1.7118,-1.6578,-1.5864,-1.541,-1.541,-1.541,-1.5244,-1.4852,-1.4502,-1.4114,0.0,-1.3291,-1.3081,-1.3081,-1.334,-1.3369,-1.3091,-1.335,-1.3311,-1.2905,-1.2838,-1.2642,-1.2307,-1.1939,-1.2025,-1.2372,-1.1614,-1.1569,-1.2081,-1.1288,-1.0926,-1.0899,-1.0326,-1.0083,-1.005,-0.9706,-0.9397,-0.9142,-0.8561,-0.7745,-0.6804,-0.6064,-0.5355,-0.4732,-0.457,-0.4491,-0.4491,-0.4491,-0.4491,-0.4349,-0.3539,-0.3317,-0.301,-0.173,-0.1257,-0.0978,-0.042,-0.014,0.0,0.0,0.042,0.0866,0.1062,0.109,0.1425,0.2402,0.2822,0.335,0.4349,0.4491,0.457,0.4759,0.585,0.6669,0.6885,0.8475,0.9658,1.0038,1.0965,1.169,1.208,1.2608,1.343,1.4663,1.4698,1.5474,1.7114,1.7137,1.7338,1.7739,1.8031,1.841,1.8857,2.0426,2.1308,0.0,0.0,0.0,0.0,0.0,0.0,-1.1745,-1.2578,-1.3643,0.0,-1.6147,-1.6839,-1.799,-1.8204,-1.8204,-1.8204,-1.7742,-1.7217,-1.671,-1.605,-1.5497,-1.5204,-1.499,-1.4717,-1.4297,-1.4023,-1.3675,-1.3281,-1.3042,-1.2905,-1.2905,-1.3115,-1.3135,-1.2915,-1.3291,-1.3165,-1.2452,-1.2565,-1.2237,-1.1471,-1.1274,-1.1279,-1.1428,-1.085,-1.0863,-1.1257,-1.0807,-1.0593,-1.0579,-1.0405,-1.0301,-1.0274,-0.998,-0.976,-0.9471,-0.8591,-0.7682,-0.6769,-0.5978,-0.5245,-0.4682,-0.4682,-0.4638,-0.4586,-0.4586,-0.4315,-0.3846,-0.3065,-0.2397,-0.173,-0.0866,-0.0643,-0.0532,-0.0112,0.0,0.0,0.0,0.0343,0.0825,0.1428,0.1814,0.2371,0.3433,0.363,0.3824,0.4405,0.4491,0.4708,0.5308,0.6095,0.6831,0.7456,0.8646,0.9614,1.0167,1.1107,1.1915,1.2463,1.308,1.3981,1.5266,1.5325,1.6091,1.7691,1.7727,1.8003,1.8519,1.8775,1.9362,2.0206,2.1227,2.1844,0.0,0.0,0.0,0.0,0.0,0.0,-1.2387,-1.2237,-1.23,0.0,-1.5568,-1.6244,-1.737,-1.7666,-1.7716,-1.767,-1.7253,-1.6886,-1.6737,-1.6207,-1.5546,-1.4818,-1.4338,-1.3938,-1.3545,-1.3506,-1.333,-1.2935,-1.2905,-1.2905,-1.2905,-1.2822,-1.2774,-1.2774,-1.3057,-1.272,-1.169,-1.2422,-1.1959,-1.0347,-1.0893,-1.08,-1.0174,-1.0472,-1.0593,-1.0593,-1.0593,-1.0593,-1.0593,-1.0593,-1.0593,-1.0566,-1.0267,-1.0117,-0.9959,-0.8759,-0.7873,-0.7171,-0.6199,-0.5457,-0.4887,-0.4887,-0.4826,-0.4714,-0.4714,-0.4069,-0.3156,-0.2312,-0.1074,0.0,0.0,0.0,0.0,0.0,0.0,0.0,0.0,0.0148,0.0674,0.1986,0.2761,0.3495,0.4399,0.4542,0.4542,0.4542,0.4622,0.5147,0.6385,0.6713,0.7318,0.8631,0.9004,0.9619,1.0809,1.1444,1.2307,1.3497,1.3899,1.472,1.6126,1.6213,1.686,1.8268,1.8355,1.8642,1.9207,1.9676,2.0543,2.1708,2.1783,2.2178,0.0,0.0,0.0,0.0,0.0,0.0,-0.9887,-1.0124,-1.0646,0.0,-1.182,-1.2416,-1.3557,-1.4386,-1.4755,-1.4332,-1.5174,-1.5986,-1.6275,-1.5691,-1.4995,-1.4312,-1.4163,-1.3938,-1.3545,-1.3506,-1.333,-1.2935,-1.2905,-1.2905,-1.2905,-1.2344,-1.1996,-1.1996,-1.157,-1.1217,-1.099,-1.0889,-1.0777,-1.0619,-1.0438,-1.0387,-1.0506,-1.0566,-1.0593,-1.0593,-1.0593,-1.0593,-1.0593,-1.0593,-1.0593,-1.0586,-1.0526,-1.0327,-0.9918,-0.8401,-0.7623,-0.7081,-0.5634,-0.5009,-0.4887,-0.4887,-0.4867,-0.4874,-0.4874,-0.4243,-0.3227,-0.1721,-0.0666,0.0,0.0,0.0,0.0,0.0,0.0,0.0,0.0,0.1068,0.2099,0.2387,0.2564,0.3107,0.4587,0.483,0.483,0.483,0.5415,0.5965,0.623,0.7401,0.8311,0.8605,1.022,1.1414,1.1652,1.2851,1.3702,1.3961,1.4065,1.472,1.6126,1.6213,1.7035,1.8808,1.9271,1.9813,2.044,2.0139,2.0588,2.1712,2.2253,2.2827,0.0,0.0,0.0,-1.1014,0.0,0.0,0.0,-1.0404,-1.0784,-1.1619,-1.1611,-1.1792,-1.2843,-1.3426,-1.3661,-1.3388,-1.4363,-1.5028,-1.4704,-1.4772,-1.4599,-1.3871,-1.3607,-1.3428,-1.3213,-1.3193,-1.3105,-1.2925,-1.2905,-1.2749,-1.2369,-1.1996,-1.1641,-1.1316,-1.099,-1.0644,-1.0287,-1.0136,-1.0016,-0.9953,-0.9928,-1.0053,-1.0347,-1.0526,-1.0593,-1.0593,-1.0593,-1.0593,-1.0561,-1.0142,-0.9945,-0.9945,-0.9945,-0.9566,-0.89,-0.7658,-0.7116,-0.6813,-0.5575,-0.5142,-0.5142,-0.5142,-0.5087,-0.493,-0.4488,-0.3418,-0.209,-0.0893,-0.0277,0.0,0.0,0.0,0.0,0.0,0.0,0.0124,0.0566,0.1323,0.218,0.3073,0.3241,0.3592,0.4697,0.4887,0.5036,0.5483,0.5928,0.649,0.7294,0.8099,0.8727,0.9114,1.0501,1.1531,1.1867,1.3175,1.4097,1.4436,1.463,1.5382,1.6852,1.6905,1.7685,1.9384,1.9673,1.9978,2.0295,2.0037,2.0686,2.2193,2.2543,2.3009,0.0,0.0,0.0,0.0,0.0,-1.1868,0.0,0.0,0.0,0.0,0.0,0.0,0.0,0.0,0.0,0.0,0.0,0.0,0.0,-1.3405,0.0,-1.3199,-1.3013,-1.2866,-1.2764,-1.27,-1.2719,-1.2895,-1.2619,-1.2257,-1.183,-1.1566,-1.1166,-1.0618,-1.0491,-1.0141,-0.9614,-0.9646,-0.9556,-0.9297,-0.9626,-0.992,-1.0207,-1.0479,-1.0593,-1.0593,-1.0593,-1.0498,-1.0301,-0.9594,-0.9107,-0.8812,-0.8973,-0.8619,-0.7892,-0.7013,-0.6687,-0.6588,-0.5686,-0.5395,-0.5395,-0.5395,-0.5176,-0.472,-0.3845,-0.245,-0.0971,-0.022,0.0,0.0,0.0,0.0,0.0,0.0,0.0,0.0253,0.1099,0.1427,0.2056,0.3699,0.4148,0.4421,0.4918,0.5126,0.5486,0.6179,0.6576,0.7275,0.858,0.8884,0.9212,0.9824,1.0726,1.1519,1.2081,1.3347,1.4355,1.4874,1.5225,1.5997,1.733,1.766,1.8447,1.9773,1.9798,1.9798,1.9798,1.9798,2.0744,2.2498,2.2498,2.2905,0.0,0.0,0.0,0.0,-1.2764,0.0,0.0,0.0,-1.1367,-1.0745,0.0,0.0,0.0,0.0,0.0,0.0,0.0,0.0,-1.0745,-1.1379,-1.1911,-1.1832,-1.2455,-1.2725,-1.232,-1.1966,-1.2064,-1.2846,-1.1631,-1.1139,-1.1778,-1.0661,-0.9987,-0.9917,-0.9335,-0.8982,-0.891,-0.914,-0.9395,-0.9633,-0.9927,-1.0227,-1.0546,-1.0579,-1.0593,-1.0593,-1.0593,-1.0174,-0.9434,-0.9338,-0.8388,-0.7079,-0.7832,-0.8091,-0.7892,-0.7013,-0.6687,-0.6588,-0.5686,-0.5395,-0.5395,-0.5395,-0.4809,-0.3962,-0.3098,-0.2095,-0.1097,-0.0233,0.0,0.0,0.0,0.0,0.0,0.0,0.0,0.0234,0.1101,0.1967,0.2834,0.3813,0.4686,0.5249,0.5318,0.5984,0.6526,0.6623,0.795,0.9021,0.9186,0.9882,1.0392,1.0492,1.1859,1.2794,1.2885,1.433,1.5255,1.5342,1.5381,1.5777,1.6595,1.7879,1.8953,1.9773,1.9798,1.9798,1.9798,1.9798,2.0496,2.1805,2.1805,2.2469,0.0,0.0,0.0,0.0,0.0,0.0,-1.2173,0.0,-1.1914,0.0,0.0,0.0,0.0,0.0,0.0,0.0,-1.0613,0.0,0.0,0.0,-1.1027,0.0,0.0,0.0,-1.2174,-1.1848,-1.1946,-1.2837,-1.1468,-1.0786,-1.1198,-1.0312,-0.9614,-0.9237,-0.8962,-0.8884,-0.9031,-0.9151,-0.9444,-0.9933,-1.006,-1.0274,-1.0593,-1.0079,-0.9849,-0.9817,-0.9326,-0.8871,-0.8517,-0.7994,-0.7372,-0.6687,-0.6531,-0.6502,-0.6437,-0.6075,-0.5943,-0.5881,-0.5524,-0.5395,-0.5296,-0.4755,-0.3982,-0.3078,-0.2177,-0.1275,-0.0471,-0.0101,0.0,0.0,0.0,0.0,0.0135,0.0638,0.0739,0.1141,0.2577,0.3178,0.3713,0.4652,0.5123,0.5395,0.5395,0.5686,0.6301,0.7307,0.8091,0.8909,0.9913,1.0364,1.0593,1.0593,1.2035,1.3009,1.3009,1.4481,1.541,1.541,1.5806,1.6368,1.7118,1.814,1.9044,1.9798,1.9798,1.9798,1.9798,1.9798,2.0257,2.1186,2.1544,2.24,-1.2079,0.0,0.0,0.0,0.0,0.0,0.0,0.0,0.0,0.0,0.0,0.0,0.0,0.0,0.0,0.0,0.0,-1.0264,0.0,-0.9884,0.0,0.0,0.0,0.0,0.0,-1.1426,-1.1516,-1.2617,-1.0907,-1.0112,-1.0764,-0.9929,-0.9224,-0.8804,-0.8884,-0.8998,-0.9211,-0.9371,-0.9664,-1.0083,-1.02,-1.0254,-1.0206,-0.9594,-0.9172,-0.8909,-0.8291,-0.7864,-0.76,-0.6948,-0.6556,-0.6268,-0.5653,-0.5395,-0.5395,-0.5395,-0.5395,-0.5395,-0.5395,-0.5395,-0.5259,-0.4317,-0.3413,-0.2511,-0.1574,-0.0706,0.0,0.0,0.0,0.0,0.0,0.0,0.0236,0.1106,0.1307,0.1808,0.3613,0.4015,0.4284,0.5226,0.5395,0.5462,0.5719,0.5947,0.6535,0.78,0.8415,0.916,1.0428,1.0593,1.0593,1.0593,1.2035,1.3009,1.3009,1.4481,1.541,1.541,1.5892,1.6613,1.755,1.8124,1.8847,1.9773,1.9962,2.0037,2.0037,2.0188,2.0525,2.1003,2.1667,2.2592,0.0,0.0,0.0,-1.1802,0.0,0.0,0.0,0.0,-1.1444,0.0,0.0,0.0,0.0,0.0,0.0,0.0,0.0,0.0,0.0,0.0,0.0,0.0,0.0,0.0,0.0,-1.0439,-1.039,-1.2096,-0.952,-0.8746,-1.0697,-0.9303,-0.8568,-0.8798,-0.9051,-0.9204,-0.9211,-0.977,-1.007,-1.009,-1.0439,-1.0161,-0.9338,-0.9306,-0.8844,-0.8027,-0.8027,-0.7535,-0.6752,-0.6719,-0.6203,-0.5428,-0.5395,-0.5395,-0.5395,-0.5395,-0.5395,-0.5395,-0.5395,-0.5395,-0.5259,-0.4317,-0.3413,-0.2511,-0.1574,-0.0706,0.0,0.0,0.0,0.0,0.0,0.0,0.0236,0.1106,0.1307,0.1808,0.3613,0.4015,0.4284,0.5226,0.5395,0.5653,0.6527,0.7372,0.7929,0.7994,0.9454,1.053,1.0593,1.0593,1.0593,1.0593,1.2035,1.3009,1.3009,1.4481,1.541,1.541,1.541,1.6083,1.755,1.7633,1.8313,1.9773,2.0377,2.0666,2.0666,2.1207,2.1471,2.1501,2.2291,2.3051,-1.1463,-1.0982,-1.0726,-1.0778,0.0,0.0,0.0,0.0,0.0,0.0,0.0,0.0,0.0,0.0,0.0,0.0,0.0,0.0,0.0,0.0,0.0,0.0,0.0,0.0,0.0,0.0,-1.0357,-1.1079,-0.952,-0.9005,-1.0071,-0.9191,-0.8704,-0.8804,-0.9058,-0.9311,-0.9532,-0.992,-1.0214,-1.0445,-0.9964,-0.9594,-0.9274,-0.8091,-0.7405,-0.7111,-0.6531,-0.6112,-0.5848,-0.5848,-0.5653,-0.5395,-0.5395,-0.5395,-0.5395,-0.5395,-0.5395,-0.5395,-0.5395,-0.499,-0.4317,-0.3445,-0.2511,-0.1608,-0.0706,-0.0236,0.0,0.0,0.0,0.0,0.0,0.0437,0.1107,0.2009,0.2678,0.3411,0.4652,0.4921,0.5052,0.5457,0.6082,0.6653,0.7035,0.8362,0.9282,0.8927,0.9364,0.9945,1.053,1.0593,1.0593,1.0593,1.2035,1.3009,1.3009,1.4481,1.5537,1.585,1.587,1.6694,1.8509,1.8579,1.9325,2.0888,2.1144,2.1232,2.1232,2.1393,2.1493,2.1521,2.2641,2.3563,-1.111,-1.0488,-1.0173,-1.0369,-1.0398,0.0,-1.0265,0.0,-1.0709,0.0,0.0,0.0,0.0,0.0,0.0,0.0,0.0,0.0,0.0,-0.7535,0.0,0.0,0.0,0.0,0.0,0.0,-0.9327,-1.0092,-0.8896,0.0,0.0,-0.9024,-0.8697,-0.8804,-0.9164,-0.9492,-0.9708,-1.0074,-1.0243,-1.0142,-0.9562,-0.8973,-0.835,-0.7209,-0.6523,-0.6203,-0.5653,-0.5395,-0.5395,-0.5395,-0.5395,-0.5395,-0.5395,-0.5395,-0.5395,-0.5395,-0.5395,-0.5359,-0.5024,-0.4519,-0.3813,-0.2611,-0.1808,-0.114,-0.0269,0.0,0.0,0.0,0.0,0.0067,0.037,0.0873,0.1608,0.2878,0.3641,0.4315,0.5272,0.5518,0.5583,0.5647,0.6491,0.7285,0.7685,0.9079,0.9988,0.9624,0.9841,1.0241,1.0803,1.0807,1.0836,1.1149,1.2282,1.3302,1.4048,1.5172,1.5996,1.6279,1.6299,1.7012,1.8561,1.8933,1.9703,2.1006,2.1528,2.1782,2.1782,2.1983,2.2071,2.2083,2.2901,2.3826]},{"header":{"parameterUnit":"m.s-1","parameterCategory":1,"la1":30.6,"la2":29.2853,"lo1":-89.7004,"lo2":-87.6739,"dy":0.0162,"dx":0.0183,"nx":112,"ny":82,"refTime":"2025-08-28T00:00:00:Z","depth":0,"parameterNumber":3,"parameterNumberName":"V-component_of_WINDS"},"data":[0.0,0.0,0.0,0.0,0.0,0.0,0.0,0.0,0.0,0.0,0.0,0.0,0.0,0.0,0.0,0.0,0.0,0.0,0.0,0.0,0.0,0.0,0.0,0.0,0.0,0.0,0.0,0.0,0.0,0.0,0.0,0.0,0.0,0.0,0.0,0.0,0.0,0.0,0.0,0.0,0.0,0.0,0.0,0.0,0.0,0.0,0.0,0.0,0.0,0.0,0.0,0.0,0.0,0.0,0.0,0.0,0.0,0.0,0.0,0.0,0.0,0.0,0.0,0.0,0.0,0.0,0.0,0.0,0.0,0.0,0.0,0.0,0.0,0.0,0.0,0.0,0.0,0.0,0.0,0.0,0.0,0.0,0.0,0.0,0.0,0.0,0.0,0.0,0.0,0.0,0.0495,0.3083,0.8665,1.2785,1.418,1.6069,1.6047,1.3362,0.0,0.0,0.0,0.0,0.0,0.0,0.0,0.0,0.0,0.0,0.0,0.0,0.0,0.0,0.0,0.0,0.0,0.0,0.0,0.0,0.0,0.0,0.0,0.0,0.0,0.0,0.0,0.0,0.0,0.0,0.0,0.0,0.0,0.0,0.0,0.0,0.0,0.0,0.0,0.0,0.0,0.0,0.0,0.0,0.0,0.0,0.0,0.0,0.0,0.0,0.0,0.0,0.0,0.0,0.0,0.0,0.0,0.0,0.0,0.0,0.0,0.0,0.0,0.0,0.0,0.0,0.0,0.0,0.0,0.0,0.0,0.0,0.0,0.0,0.0,0.0,0.0,0.0,0.0,0.0,0.0,0.0,0.0,0.0,0.0,0.0,0.0,0.0,0.0,0.0,0.0,0.0,0.0,0.0,0.0,0.0,0.0,0.0,0.0,0.0,0.0,0.0,0.0,0.0,0.2035,0.6298,0.9777,1.2467,1.4154,1.6021,1.599,1.3362,0.0,0.0,0.0,0.0,0.0,0.0,0.0,0.0,0.0,0.0,0.0,0.0,0.0,0.0,0.0,0.0,0.0,0.0,0.0,0.0,0.0,0.0,0.0,0.0,0.0,0.0,0.0,0.0,0.0,0.0,0.0,0.0,0.0,0.0,0.0,0.0,0.0,0.0,0.0,0.0,0.0,0.0,0.0,0.0,0.0,0.0,0.0,0.0,0.0,0.0,0.0,0.0,0.0,0.0,0.0,0.0,0.0,0.0,0.0,0.0,0.0,0.0,0.0,0.0,0.0,0.0,0.0,0.0,0.0,0.0,0.0,0.0,0.0,0.0,0.0,0.0,0.0,0.0,0.0,0.0,0.0,0.0,0.0,0.0,0.0,0.0,0.0,0.0,0.0,0.0,0.0,0.0,0.0,0.0,0.0,0.0,0.0,0.0,0.0,0.0,0.0,0.0,0.0,0.2599,0.4975,0.8179,1.092,1.3186,1.4853,1.6665,1.6487,1.3647,1.3986,0.0,0.0,0.0,0.0,0.0,0.0,0.0,0.0,0.0,0.0,0.0,0.0,0.0,0.0,0.0,0.0,0.0,0.0,0.0,0.0,0.0,0.0,0.0,0.0,0.0,0.0,0.0,0.0,0.0,0.0,0.0,0.0,0.0,0.0,0.0,0.0,0.0,0.0,0.0,0.0,0.0,0.0,0.0,0.0,0.0,0.0,0.0,0.0,0.0,0.0,0.0,0.0,0.0,0.0,0.0,0.0,0.0,0.0,0.0,0.0,0.0,0.0,0.0,0.0,0.0,0.0,0.0,0.0,0.0,0.0,0.0,0.0,0.0,0.0,0.0,0.0,0.0,0.0,0.0,0.0,0.0,0.0,0.0,0.0,0.0,0.0,0.0,0.0,0.0,0.0,0.0,0.0,0.0,0.0,0.0,0.0,0.0,0.0,0.0,0.0,0.0,0.0,0.5074,0.7284,0.9512,1.207,1.4174,1.5531,1.6962,1.6589,1.376,1.3535,0.0,0.0,0.0,0.0,0.0,0.0,0.0,0.0,0.0,0.0,0.0,0.0,0.0,0.0,0.0,0.0,0.0,0.0,0.0,0.0,0.0,0.0,0.0,0.0,0.0,0.0,0.0,0.0,0.0,0.0,0.0,0.0,0.0,0.0,0.0,0.0,0.0,0.0,0.0,0.0,0.0,0.0,0.0,0.0,0.0,0.0,0.0,0.0,0.0,0.0,0.0,0.0,0.0,0.0,0.0,0.0,0.0,0.0,0.0,0.0,0.0,0.0,0.0,0.0,0.0,0.0,0.0,0.0,0.0,0.0,0.0,0.0,0.0,0.0,0.0,0.0,0.0,0.0,0.0,0.0,0.0,0.0,0.0,0.0,0.0,0.0,0.0,0.0,0.0,0.0,0.0,0.0,0.0,0.0,0.0,0.0,0.0,0.0,0.0,0.0,0.0,0.0,0.6172,0.76,1.0497,1.3236,1.5108,1.5732,1.6298,1.565,1.3371,1.2319,0.0,0.0,0.0,0.0,0.0,0.0,0.0,0.0,0.0,0.0,0.0,0.0,0.0,0.0,0.0,0.0,0.0,0.0,0.0,0.0,0.0,0.0,0.0,0.0,0.0,0.0,0.0,0.0,0.0,0.0,0.0,0.0,0.0,0.0,0.0,0.0,0.0,0.0,0.0,0.0,0.0,0.0,0.0,0.0,0.0,0.0,0.0,0.0,0.0,0.0,0.0,0.0,0.0,0.0,0.0,0.0,0.0,0.0,0.0,0.0,0.0,0.0,0.0,0.0,0.0,0.0,0.0,0.0,0.0,0.0,0.0,0.0,0.0,0.0,0.0,0.0,0.0,0.0,0.0,0.0,0.0,0.0,0.0,0.0,0.0,0.0,0.0,0.0,0.0,0.0,0.0,0.0,0.0,0.0,0.0,0.0,0.0,0.0,0.0,0.0,0.0,0.0,0.5939,0.7576,0.0,1.224,1.413,1.5098,1.6105,1.5785,1.3645,0.0,0.0,0.0,0.0,0.0,0.0,0.0,0.0,0.0,0.0,0.0,0.0,0.0,0.0,0.0,0.0,0.0,0.0,0.0,0.0,0.0,0.0,0.0,0.0,0.0,0.0,0.0,0.0,0.0,0.0,0.0,0.0,0.0,0.0,0.0,0.0,0.0,0.0,0.0,0.0,0.0,0.0,0.0,0.0,0.0,0.0,0.0,0.0,0.0,0.0,0.0,0.0,0.0,0.0,0.0,0.0,0.0,0.0,0.0,0.0,0.0,0.0,0.0,0.0,0.0,0.0,0.0,0.0,0.0,0.0,0.0,0.0,0.0,0.0,0.0,0.0,0.0,0.0,0.0,0.0,0.0,0.0,0.0,0.0,0.0,0.0,0.0,0.0,0.0,0.0,0.0,0.0,0.0,0.0,0.0,0.0,0.0,0.0,0.0,0.0,0.0,0.0,0.4425,0.6062,0.7782,0.0,1.2049,1.3693,1.4619,1.5516,1.5258,1.343,0.0,0.0,0.0,0.0,0.0,0.0,0.0,0.0,0.0,0.0,0.0,0.0,0.0,0.0,0.0,0.0,0.0,0.0,0.0,0.0,0.0,0.0,0.0,0.0,0.0,0.0,0.0,0.0,0.0,0.0,0.0,0.0,0.0,0.0,0.0,0.0,0.0,0.0,0.0,0.0,0.0,0.0,0.0,0.0,0.0,0.0,0.0,0.0,0.0,0.0,0.0,0.0,0.0,0.0,0.0,0.0,0.0,0.0,0.0,0.0,0.0,0.0,0.0,0.0,0.0,0.0,0.0,0.0,0.0,0.0,0.0,0.0,0.0,0.0,0.0,0.0,0.0,0.0,0.0,0.0,0.0,0.0,0.0,0.0,0.0,0.0,0.0,0.0,0.0,0.0,0.0,0.0,0.0,0.0,0.0,0.0,0.0,0.0,0.0,0.0,0.0,0.0,0.5785,0.6766,0.8317,1.1469,1.3107,1.4133,1.4479,1.4455,1.3861,0.0,0.0,0.0,0.0,0.0,0.0,0.0,0.0,0.0,0.0,0.0,0.0,0.0,0.0,0.0,0.0,0.0,0.0,0.0,0.0,0.0,0.0,0.0,0.0,0.0,0.0,0.0,0.0,0.0,0.0,0.0,0.0,0.0,0.0,0.0,0.0,0.0,0.0,0.0,0.0,0.0,0.0,0.0,0.0,0.0,0.0,0.0,0.0,0.0,0.0,0.0,0.0,0.0,0.0,0.0,0.0,0.0,0.0,0.0,0.0,0.0,0.0,0.0,0.0,0.0,0.0,0.0,0.0,0.0,0.0,0.0,0.0,0.0,0.0,0.0,0.0,0.0,0.0,0.0,0.0,0.0,0.0,0.0,0.0,0.0,0.0,0.0,0.0,0.0,0.0,0.0,0.0,0.0,0.0,0.0,0.0,0.0,0.0,0.0,0.0,0.0,0.0,0.0,0.398,0.6498,0.8876,1.0936,1.2791,1.4132,1.4804,1.5141,1.4602,1.2951,0.0,0.0,0.0,0.0,0.0,0.0,0.0,0.0,0.0,0.0,0.0,0.0,0.0,0.0,0.0,0.0,0.0,0.0,0.0,0.0,0.0,0.0,0.0,0.0,0.0,0.0,0.0,0.0,0.0,0.0,0.0,0.0,0.0,0.0,0.0,0.0,0.0,0.0,0.0,0.0,0.0,0.0,0.0,0.0,0.0,0.0,0.0,0.0,0.0,0.0,0.0,0.0,0.0,0.0,0.0,0.0,0.0,0.0,0.0,0.0,0.0,0.0,0.0,0.0,0.0,0.0,0.0,0.0,0.0,0.0,0.0,0.0,0.0,0.0,0.0,0.0,0.0,0.0,0.0,0.0,0.0,0.0,0.0,0.0,0.0,0.0,0.0,0.0,0.0,0.0,0.0,0.0,0.0,0.0,0.0,0.0,0.0,0.0,0.0,0.0,0.0,0.0,0.3232,0.6218,0.8905,1.071,1.2447,1.3834,1.4728,1.508,1.4527,1.2829,0.0,0.0,0.0,0.0,0.0,0.0,0.0,0.0,0.0,0.0,0.0,0.0,0.0,0.0,0.0,0.0,0.0,0.0,0.0,0.0,0.0,0.0,0.0,0.0,0.0,0.0,0.0,0.0,0.0,0.0,0.0,0.0,0.0,0.0,0.0,0.0,0.0,0.0,0.0,0.0,0.0,0.0,0.0,0.0,0.0,0.0,0.0,0.0,0.0,0.0,0.0,0.0,0.0,0.0,0.0,0.0,0.0,0.0,0.0,0.0,0.0,0.0,0.0,0.0,0.0,0.0,0.0,0.0,0.0,0.0,0.0,0.0,0.0,0.0,0.0,0.0,0.0,0.0,0.0,0.0,0.0,0.0,0.0,0.0,0.0,0.0,0.0,0.0,0.0,0.0,0.0,0.0,0.0,0.0,0.0,0.0,0.0,0.0,0.0,0.0,0.0,0.0,0.3249,0.5979,0.8586,1.0627,1.2142,1.3367,1.4278,1.4451,1.3865,1.2404,0.0,0.0,0.0,0.0,0.0,0.0,0.0,0.0,0.0,0.0,0.0,0.0,0.0,0.0,0.0,0.0,0.0,0.0,0.0,0.0,0.0,0.0,0.0,0.0,0.0,0.0,0.0,0.0,0.0,0.0,0.0,0.0,0.0,0.0,0.0,0.0,0.0,0.0,0.0,0.0,0.0,0.0,0.0,0.0,0.0,0.0,0.0,0.0,0.0,0.0,0.0,0.0,0.0,0.0,0.0,0.0,0.0,0.0,0.0,0.0,-0.3097,0.0,0.0,0.0,0.0,0.0,0.0,0.0,0.0,0.0,0.0,0.0,0.0,0.0,0.0,0.0,0.0,0.0,0.0,0.0,0.0,0.0,0.0,0.0,0.0,0.0,0.0,0.0,0.0,0.0,0.0,0.0,0.0,0.0,0.0,0.0,0.0,0.0,0.0,0.0,0.0,0.0,0.3205,0.6013,0.8513,1.0165,1.1982,1.3106,1.3171,1.3497,1.3377,1.25,1.1324,0.0,0.0,0.0,0.0,0.0,0.0,0.0,0.0,0.0,0.0,0.0,0.0,0.0,0.0,0.0,0.0,0.0,0.0,0.0,0.0,0.0,0.0,0.0,0.0,0.0,0.0,0.0,0.0,0.0,0.0,0.0,0.0,0.0,0.0,0.0,0.0,0.0,0.0,0.0,0.0,0.0,0.0,0.0,0.0,0.0,0.0,0.0,0.0,0.0,0.0,0.0,0.0,0.0,0.0,0.0,0.0,0.0,0.0,0.0,0.0,-0.1667,0.0,0.0,0.0,0.0,0.0,0.0,0.0,0.0,0.0,0.0,0.0,0.0,0.0,0.0,0.0,0.0,0.0,0.0,0.0,0.0,0.0,0.0,0.0,0.0,0.0,0.0,0.0,0.0,0.0,0.0,0.0,0.0,0.0,0.0,0.0,0.0,0.0,0.0,0.0,0.0,0.2846,0.5428,0.7721,0.9268,1.0729,1.1687,1.1875,1.2291,1.2345,1.1861,1.1144,0.0,0.0,0.0,0.0,0.0,0.0,0.0,0.0,0.0,0.0,0.0,0.0,0.0,0.0,0.0,0.0,0.0,0.0,0.0,0.0,0.0,0.0,0.0,0.0,0.0,0.0,0.0,0.0,0.0,0.0,0.0,0.0,0.0,0.0,0.0,0.0,0.0,0.0,0.0,0.0,0.0,0.0,0.0,0.0,0.0,0.0,0.0,0.0,0.0,0.0,0.0,0.0,0.0,-0.0619,-0.0135,0.037,0.123,0.1612,0.1551,0.0607,0.0455,0.0824,0.0434,0.0,0.0,0.0,0.0,0.0,0.0,0.0,0.0,0.0,0.0,0.0,0.0,0.0,0.0,0.0,0.0,0.0,0.0,0.0,0.0,0.0,0.0,0.5508,0.5387,0.5663,0.529,0.2949,0.0,0.0,0.0,0.0,0.0,0.0,0.0,0.0,0.0,0.0,0.0,0.2518,0.4638,0.6633,0.815,0.917,1.0022,1.068,1.1097,1.1307,1.1223,1.1023,1.0708,0.0,0.0,0.0,0.0,0.0,0.0,0.0,0.0,0.0,0.0,0.0,0.0,0.0,0.0,0.0,0.0,0.0,0.0,0.0,0.0,0.0,0.0,0.0,0.0,0.0,0.0,0.0,0.0,0.0,0.0,0.0,0.0,0.1391,0.2394,0.0,0.0,0.0,0.0,0.0,0.0,0.0,0.0,0.0,0.0,0.0,0.0,0.0,0.1064,0.0724,0.0125,-0.0173,-0.0152,0.1053,0.1671,0.177,0.304,0.362,0.3584,0.292,0.0,0.1473,0.1419,0.0,0.0,0.0,0.0,0.0,0.0,0.0,0.0,0.0,0.0,0.0,0.0,0.0,0.0,0.0,0.0,0.0,0.0,0.0,0.0,0.0,0.0,0.8994,0.9485,0.8823,0.7893,0.7189,0.5094,0.3496,0.3968,0.3013,0.1911,0.0,0.0,0.0,0.0,0.0,0.0,0.2716,0.4108,0.5563,0.7059,0.8109,0.9068,0.9957,1.0401,1.0949,1.1651,1.0929,1.0648,1.1042,1.0269,0.0,0.0,0.0,0.0,0.0,0.0,0.0,0.0,0.0,0.0,0.0,0.0,0.0,0.0,0.0,0.0,0.0,0.0,0.0,0.0,0.0,0.0,0.0,0.0,0.0,0.0,0.0,0.0,0.0,0.0861,0.1684,0.2208,0.3005,0.3638,0.0,0.0,0.0,0.0,0.0,0.0,0.0,0.0,0.0,0.3131,0.2855,0.2541,0.2221,0.1904,0.1581,0.1247,0.1819,0.2123,0.2151,0.3143,0.3626,0.3652,0.3388,0.3001,0.2542,0.2305,0.2446,0.2676,0.0,0.0,0.0,0.0,-0.2313,-0.2091,-0.1244,0.0624,0.3096,0.5976,0.0,0.0,0.0,0.0,0.0,0.0,0.0,0.6378,0.9054,1.0497,1.1467,1.239,1.1963,1.1117,1.0225,0.8707,0.6923,0.4901,0.428,0.3633,0.2275,0.2099,0.0,0.0,0.0,0.3136,0.5117,0.5393,0.5831,0.6877,0.7694,0.8461,0.9225,0.9606,1.0278,1.1347,1.0765,1.0672,1.1228,1.0382,0.9583,0.0,0.0,0.0,0.0,0.0,0.0,0.0,0.0,0.0,0.0,0.0,0.0,0.0,0.0,0.0,0.0,0.0,0.0,0.0,0.0,0.0,0.0,0.0,0.0,0.0,0.0,0.0,0.0,0.1009,0.1818,0.1975,0.3086,0.3957,0.0,0.0,0.0,0.0,0.0,0.0,0.3505,0.3682,0.3792,0.3744,0.3659,0.3458,0.3151,0.2972,0.2635,0.2199,0.2387,0.2494,0.2525,0.3277,0.3622,0.368,0.368,0.3654,0.357,0.3016,0.2993,0.3205,0.2549,0.1749,0.0836,-0.0181,-0.0145,0.0538,0.144,0.3717,0.6338,0.7104,0.864,1.0338,1.1101,0.0,0.0,0.0,0.0,0.9303,1.1235,1.2879,1.4265,1.5289,1.4915,1.4087,1.3123,1.248,1.0883,0.6841,0.6135,0.5668,0.401,0.3834,0.0,0.0,0.0,0.4638,0.6858,0.6422,0.6238,0.712,0.7709,0.8399,0.9235,0.9493,1.0128,1.136,1.0855,1.076,1.1273,1.0563,0.9999,0.9678,0.0,0.0,0.0,0.0,0.0,0.0,0.0,0.0,0.0,0.0,0.0,0.0,0.0,0.0,0.0,0.0,0.0,0.0,0.0,0.0,0.0,0.0,0.0,0.0,0.0,0.0,0.0,0.0,0.0,0.1977,0.3288,0.0,0.0,0.0,0.0,0.4584,0.4107,0.3854,0.3951,0.3862,0.3907,0.4153,0.3507,0.3191,0.3299,0.2607,0.222,0.222,0.2915,0.3279,0.3365,0.4095,0.4436,0.4436,0.4436,0.4429,0.4354,0.3449,0.3029,0.2944,0.3004,0.2933,0.2713,0.22,0.2047,0.2276,0.3581,0.4535,0.5736,0.9095,1.1046,1.2086,1.2206,1.0671,0.0,0.0,1.3138,1.3745,1.6568,1.7566,1.8002,1.8685,1.7581,1.6338,1.6265,1.5868,1.4441,1.0727,0.8809,0.7509,0.6645,0.0,0.6492,0.7496,0.6303,0.5639,0.661,0.6239,0.6387,0.7636,0.8177,0.9072,1.0569,1.0543,1.0979,1.2251,1.1415,1.1001,1.1284,1.102,1.0282,0.9072,0.8772,0.0,0.0,0.0,0.0,0.0,0.0,0.0,0.0,0.0,0.0,0.0,0.0,0.0,0.0,0.0,0.0,0.0,0.0,0.0,0.0,0.0,0.0,0.0,0.0,0.0,0.0,0.0,0.0,0.2432,0.3337,0.0,0.4322,0.4528,0.481,0.5156,0.5289,0.5409,0.5542,0.5124,0.4947,0.5046,0.4351,0.4024,0.407,0.3818,0.368,0.368,0.3959,0.4098,0.4125,0.4377,0.4491,0.4491,0.4491,0.4491,0.4484,0.413,0.397,0.3925,0.384,0.3544,0.3177,0.3394,0.353,0.376,0.4718,0.5793,0.7098,0.9102,1.0645,1.1819,1.2245,1.2296,1.2529,1.4001,1.4382,1.4924,1.7387,1.8116,1.8551,1.983,1.9587,1.8935,1.8405,1.787,1.6872,1.4814,1.3002,1.1209,0.929,0.916,0.9316,0.928,0.8606,0.8211,0.8518,0.832,0.8428,0.9133,0.9992,1.0935,1.206,1.1694,1.1635,1.2163,1.0939,1.0146,1.002,0.9715,0.9213,0.8494,0.8072,0.7276,0.0,0.0,0.0,0.0,0.0,0.0,0.0,0.0,0.0,0.0,0.0,0.0,0.0,0.0,0.0,0.0,0.0,0.0,0.0,0.0,0.0,0.0,0.0,0.0,0.0,0.0,0.2769,0.2769,0.3592,0.4228,0.4355,0.465,0.5077,0.5687,0.5868,0.61,0.6462,0.6097,0.5869,0.5869,0.5195,0.4842,0.4842,0.4625,0.4491,0.4491,0.4491,0.4491,0.4491,0.4491,0.4491,0.4491,0.4491,0.4491,0.4491,0.4491,0.4491,0.4481,0.4358,0.405,0.3751,0.4147,0.4358,0.4601,0.5801,0.7461,0.9205,0.997,1.1157,1.2382,1.2988,1.3807,1.463,1.5008,1.5404,1.6108,1.7849,1.8408,1.8935,2.0522,2.0633,2.0258,1.9717,1.9294,1.8694,1.7652,1.5913,1.3935,1.181,1.1668,1.1676,1.1155,1.062,1.0336,1.053,1.0179,1.0137,1.0756,1.1479,1.226,1.312,1.2319,1.1861,1.209,1.0555,0.947,0.9103,0.8682,0.8201,0.7663,0.7042,0.6435,0.5822,0.0,0.0,0.0,0.0,0.0,0.0,0.0,0.0,0.0,0.0,0.0,0.0,0.0,0.0,0.0,0.0,0.0,0.0,0.0,0.0,0.0,0.0,0.0,0.208,0.2522,0.2992,0.2965,0.4155,0.4901,0.4764,0.5019,0.5479,0.6201,0.5837,0.5923,0.6642,0.6642,0.6615,0.6588,0.59,0.5515,0.5515,0.4869,0.457,0.457,0.4546,0.4543,0.4543,0.4519,0.4519,0.4543,0.4543,0.4543,0.4543,0.4543,0.4543,0.4543,0.4543,0.4543,0.4546,0.457,0.4625,0.4948,0.6993,0.95,1.1789,1.1814,1.272,1.3909,1.4537,1.5141,1.561,1.561,1.6403,1.743,1.8248,1.8734,1.9401,2.0896,2.0763,2.0269,2.021,2.0206,1.9946,1.908,1.7294,1.5501,1.4234,1.3778,1.35,1.3149,1.23,0.0,1.2383,1.16,1.1362,1.2342,1.2514,1.2899,1.3743,1.2412,1.1695,1.2047,1.0326,0.9103,0.8666,0.8093,0.74,0.6601,0.5783,0.5229,0.4899,0.0,0.0,0.0,0.0,0.0,0.0,0.0,0.0,0.0,0.0,0.0,0.0,0.0,0.0,0.0,0.0,0.0,0.0,0.0,0.0,0.0,0.3555,0.4232,0.3248,0.4371,0.5136,0.47,0.5513,0.612,0.6089,0.6634,0.7078,0.7263,0.7676,0.7984,0.8182,0.7696,0.7155,0.6615,0.6394,0.6036,0.5515,0.585,0.6018,0.6018,0.5492,0.5218,0.5218,0.4732,0.4759,0.5218,0.5218,0.5218,0.5218,0.5218,0.5218,0.5218,0.5218,0.5218,0.5355,0.6416,0.7454,0.8495,0.9555,1.0763,1.1888,1.2361,1.3096,1.4003,1.505,1.5477,1.561,1.561,1.5818,1.6289,1.723,1.8497,1.9647,2.0223,2.1203,2.167,2.0458,2.0203,2.006,1.9635,1.8851,1.7862,1.6583,1.6062,1.571,1.5372,1.4356,1.3667,1.3751,1.3317,1.312,1.3398,1.3736,1.4054,1.4283,1.3119,1.2087,1.1422,1.0066,0.8779,0.7584,0.7382,0.6908,0.6108,0.5347,0.4927,0.0,0.0,0.0,0.0,0.0,0.0,0.0,0.0,0.0,0.0,0.0,0.0,0.0,0.0,0.0,0.0,0.0,0.0,0.0,0.0,0.0,0.0,0.4495,0.5292,0.4904,0.5692,0.6167,0.5869,0.6294,0.6588,0.6588,0.6993,0.7369,0.767,0.8103,0.848,0.8778,0.8401,0.783,0.7074,0.7074,0.6718,0.5977,0.6394,0.6588,0.6588,0.6172,0.5787,0.5483,0.5109,0.5136,0.5515,0.5515,0.5678,0.5955,0.5955,0.5955,0.5928,0.0,0.0,0.0,0.0,0.8304,0.9802,1.0197,1.1174,1.2384,1.301,1.3653,1.4352,1.5309,1.5928,1.6348,1.6545,1.6925,1.7511,1.8578,1.9467,2.0182,2.0608,2.1246,2.1453,2.0459,2.0253,2.0173,1.983,1.9649,0.0,1.8116,1.7467,1.7016,1.6674,1.5645,1.4885,1.4857,1.4406,1.416,1.4335,1.4296,1.4326,1.4485,1.3151,0.0,0.0,0.0,0.846,0.6753,0.633,0.0,0.0,0.0,0.0,0.0,0.0,0.0,0.0,0.4619,0.4561,0.0,0.0,0.0,0.0,0.0,0.0,0.0,0.0,0.0,0.0,0.0,0.0,0.0,0.0,0.0,0.0,0.5651,0.6592,0.6693,0.6707,0.6676,0.6725,0.6804,0.6858,0.6858,0.6858,0.7128,0.7777,0.783,0.8103,0.8752,0.0,0.0,0.0,0.0,0.7477,0.6723,0.6804,0.6858,0.6858,0.675,0.6394,0.5756,0.5651,0.5624,0.5624,0.5701,0.6064,0.6615,0.6696,0.6723,0.6664,0.6081,0.6276,0.6858,0.7009,0.8252,0.9834,0.9911,0.0,0.0,1.3684,1.426,1.4835,1.5499,1.6489,1.745,1.7812,1.8655,1.971,2.0765,2.0798,2.0725,2.1385,2.1048,2.0501,2.0349,2.0365,2.0272,1.9858,1.9902,1.9779,1.9068,1.8305,1.7703,1.7358,1.6449,1.5774,1.5789,1.5138,1.4815,1.5106,1.4472,0.0,1.4406,1.29,1.1542,1.0628,0.9535,0.8133,0.6338,0.5429,0.5095,0.5394,0.5394,0.5672,0.6196,0.5807,0.5845,0.623,0.5383,0.5168,0.0,0.0,0.0,0.0,0.0,0.0,0.0,0.0,0.0,0.0,0.0,0.0,0.0,0.0,0.0,0.4875,0.6355,0.7452,0.7471,0.7974,0.8126,0.7557,0.8017,0.8374,0.8374,0.8374,0.8427,0.8586,0.8593,0.8646,0.8778,0.8804,0.8454,0.7723,0.8262,0.8235,0.7482,0.8076,0.8374,0.8374,0.0,0.0,0.7257,0.6664,0.6394,0.6421,0.7015,0.7015,0.6642,0.7235,0.7482,0.753,0.7921,0.8198,0.8501,0.9577,1.0238,1.067,1.1224,1.2055,1.3089,1.4177,1.4606,1.4903,1.5998,1.7045,0.0,1.7377,1.7971,1.8833,1.932,1.986,2.0337,2.059,2.1053,2.1246,2.0542,2.0424,2.0416,2.0221,2.013,1.9999,1.9796,1.9077,1.8383,1.8056,1.7358,1.6913,1.6949,1.6358,1.5852,1.5534,1.5107,1.4643,1.4052,1.3253,1.2262,1.1058,0.9028,0.7714,0.7323,0.6418,0.5967,0.6021,0.6021,0.6082,0.6196,0.6335,0.6422,0.6506,0.6228,0.6305,0.0,0.0,0.0,0.0,0.0,0.0,0.0,0.0,0.0,0.0,0.0,0.4006,0.4006,0.0,0.5077,0.5731,0.6892,0.783,0.8209,0.856,0.8672,0.8295,0.856,0.8804,0.8804,0.8804,0.8804,0.8804,0.8804,0.8804,0.8804,0.8804,0.8454,0.7723,0.8427,0.8454,0.7696,0.8427,0.8804,0.8804,0.8427,0.8049,0.7696,0.7316,0.7155,0.7182,0.753,0.7696,0.7723,0.8103,0.8235,0.8315,0.8993,0.9261,0.9387,1.0038,1.0712,1.1341,1.169,1.2286,1.3041,1.3967,1.4445,1.488,1.5776,1.7151,1.8369,1.829,1.912,2.011,2.0424,2.0543,2.0624,2.0686,2.0838,2.0841,2.0436,2.0428,2.0475,2.0363,2.0268,2.0164,2.0063,1.961,1.9072,1.8582,1.7892,1.7402,1.7316,1.6863,1.6392,1.599,1.5593,1.5047,1.4262,1.3093,1.2021,1.1172,0.9125,0.7851,0.762,0.6702,0.6263,0.6392,0.6392,0.6466,0.6606,0.6734,0.6807,0.6814,0.705,0.7251,0.0,0.0,0.0,0.0,0.0,0.0,0.0,0.0,0.5533,0.4947,0.4955,0.4915,0.4382,0.4972,0.5773,0.6477,0.7343,0.8129,0.8725,0.8804,0.8804,0.8804,0.8804,0.8804,0.8804,0.8804,0.8804,0.8804,0.8804,0.8804,0.8804,0.8804,0.8533,0.7943,0.848,0.8507,0.791,0.8507,0.8804,0.8804,0.8804,0.848,0.791,0.791,0.783,0.7696,0.7696,0.8129,0.8804,0.8804,0.8804,0.8857,0.9536,0.9891,0.9987,0.9987,1.0686,1.1616,1.1765,1.2286,1.2992,1.3589,1.4213,1.4812,1.541,1.7091,1.8875,1.9292,2.0508,2.175,2.1942,2.1551,2.108,2.1018,2.0598,2.023,2.0309,2.0429,2.0508,2.0432,2.039,2.0308,2.0152,1.9964,1.962,1.896,1.8309,1.7776,1.7504,1.7138,1.6786,1.6528,1.6045,1.5404,1.4566,1.292,1.1748,1.1273,0.9627,0.8415,0.7845,0.6977,0.6568,0.6667,0.6673,0.6787,0.7,0.7,0.7033,0.71,0.7652,0.7905,0.593,0.6041,0.623,0.672,0.6332,0.6121,0.0,0.0,0.6943,0.6468,0.637,0.6161,0.5474,0.5936,0.6477,0.6583,0.7777,0.8699,0.8778,0.8804,0.8804,0.8804,0.8804,0.8804,0.8804,0.8804,0.8804,0.8804,0.8804,0.8804,0.8804,0.8804,0.8752,0.8672,0.8752,0.8752,0.8672,0.8752,0.8804,0.8804,0.8804,0.8752,0.8672,0.8672,0.8321,0.7696,0.7696,0.8129,0.8804,0.8804,0.8804,0.8857,0.9536,1.0167,1.0695,1.0695,1.0788,1.099,1.1591,1.2286,1.2992,1.3589,1.4213,1.4812,1.541,1.7091,1.8875,1.9292,2.0687,2.2038,2.2001,2.1724,2.1382,2.1071,2.0598,2.0236,2.0365,2.0494,2.0565,2.0509,2.0481,2.0437,2.0302,2.0064,1.9722,1.9232,1.878,1.8393,1.8128,1.7596,1.7236,1.7183,1.6602,1.5752,1.4611,1.3226,1.2218,1.175,1.0627,0.956,0.862,0.8023,0.7465,0.6974,0.6953,0.6966,0.7,0.7,0.7161,0.7444,0.7769,0.7905,0.7022,0.7075,0.7122,0.0,0.7819,0.7722,0.8215,0.8242,0.8005,0.7378,0.6885,0.6367,0.5624,0.6091,0.6588,0.0,0.783,0.8804,0.8804,0.9133,0.9387,0.9387,0.9387,0.9237,0.8831,0.8804,0.8804,0.8804,0.8804,0.8804,0.8804,0.8804,0.8804,0.8804,0.8804,0.8982,0.9387,0.9387,0.9588,0.9969,0.9969,0.9762,0.9387,0.9387,0.8995,0.8348,0.8348,0.8507,0.8804,0.8804,0.8804,0.8857,0.9536,0.9961,1.0312,1.1091,1.1649,1.2049,1.2353,1.2632,1.2992,1.3589,1.3956,1.4352,1.5309,1.6824,1.8385,1.9191,2.0369,2.1389,2.1307,2.0988,2.063,2.0364,2.0154,2.0081,2.0294,2.0441,2.0522,2.0507,2.0503,2.0475,2.0368,2.0169,1.9945,1.9703,1.9193,1.8688,1.8249,1.798,1.7608,1.7064,1.6126,1.5257,1.4564,1.3522,1.2597,1.1847,1.0749,0.971,0.8736,0.7855,0.7252,0.7,0.7,0.7,0.7,0.7194,0.7363,0.752,0.7986,0.819,0.7526,0.0,0.0,0.8644,0.8925,0.9025,0.8918,0.8898,0.8684,0.7869,0.7101,0.6367,0.5624,0.5928,0.6367,0.6561,0.767,0.856,0.8778,0.9211,0.951,0.951,0.951,0.9413,0.9113,0.891,0.8804,0.8804,0.8982,0.9087,0.9087,0.9256,0.9361,0.9361,0.9361,0.9588,1.0064,1.009,1.0312,1.0788,1.0788,1.0542,1.0064,0.9891,0.964,0.9335,0.9159,0.9185,0.9335,0.9159,0.9087,0.914,0.9614,0.9909,1.0218,1.1366,1.2138,1.2657,1.3031,1.3041,1.3041,1.3802,1.405,1.4226,1.5286,1.6566,1.7885,1.895,1.9861,2.0555,2.0628,2.0375,2.008,1.9851,1.9849,1.9986,2.0265,2.0423,2.051,2.0516,2.0507,2.0478,2.0418,2.0224,2.0072,2.0012,1.9528,1.8999,1.8532,1.8217,1.7726,1.6892,1.572,1.4866,1.4533,1.3698,1.2803,1.1866,1.087,0.9828,0.8736,0.7773,0.7168,0.7,0.7,0.704,0.7141,0.7383,0.7578,0.7752,0.7992,0.8132,0.0,0.0,0.8778,0.8798,0.9232,0.9579,0.9264,0.9198,0.8891,0.791,0.7101,0.6367,0.5624,0.5515,0.576,0.6475,0.7235,0.799,0.8699,0.8804,0.8831,0.8831,0.8831,0.9087,0.0,0.9185,0.8804,0.8804,0.9413,0.9762,0.9762,1.0389,1.0737,1.0737,1.0737,1.0745,1.0771,1.0771,1.0788,1.0788,1.0788,1.0788,1.0745,1.009,1.0141,1.0686,1.0038,1.0141,1.0695,1.0038,0.9762,0.9762,0.9788,1.0192,1.0838,1.1541,1.1814,1.2012,1.3307,1.3396,1.3089,1.4294,1.4675,1.4789,1.541,1.6403,1.7531,1.8527,1.9203,1.9738,2.011,2.0206,2.0123,1.9857,1.9849,1.9988,2.033,2.0444,2.0515,2.0585,2.0541,2.0478,2.0418,2.0224,2.0072,2.0012,1.9768,1.9488,1.9208,1.8329,1.7482,1.6879,1.572,1.4866,1.4533,1.3698,1.2803,1.1866,1.1209,1.0224,0.8756,0.8172,0.7593,0.7,0.7,0.7161,0.7493,0.7484,0.7792,0.835,0.7671,0.7477,0.8252,0.0,0.8945,0.9532,0.9826,0.9893,0.9599,0.9532,0.9308,0.8577,0.783,0.7262,0.7015,0.6956,0.7042,0.7289,0.7937,0.8659,0.9361,0.984,1.0287,1.0737,1.0788,0.0,0.0,0.0,0.0,0.9439,0.9263,0.9335,0.9788,1.0012,1.0338,1.0788,1.0788,1.1015,1.1466,1.1466,1.1699,1.2181,1.1699,1.1466,1.1441,1.0771,1.0593,1.0788,1.0568,1.0585,1.0788,1.0568,1.0466,1.0517,1.0939,1.1266,1.1541,1.227,1.2525,1.2584,1.3045,1.3324,1.3624,1.4445,1.4698,1.488,1.5898,1.6416,1.6912,1.7866,1.8433,1.8828,1.9177,1.9216,1.9174,1.9361,1.95,1.9668,2.0052,2.0283,2.0438,2.0451,2.0524,2.0537,2.0423,2.0339,2.0192,1.9914,1.9556,1.9211,1.886,1.8162,1.7482,1.685,1.572,1.4866,1.4533,1.3698,1.2803,1.1866,1.0897,0.9867,0.8756,0.7793,0.721,0.7,0.7,0.7168,0.7513,0.7675,0.7983,0.8377,0.7829,0.7615,0.8877,0.9098,0.9279,0.9947,1.02,1.0174,0.9773,0.9715,0.9519,0.8925,0.8134,0.7562,0.7562,0.7272,0.7134,0.7492,0.7961,0.8619,0.9644,1.0167,1.0761,1.1574,1.1693,1.1803,0.0,0.0,0.0,1.0149,0.9762,0.9814,1.0491,1.0754,1.1107,1.1534,1.1559,1.1758,1.2187,1.2187,1.2427,1.2881,1.2427,1.2187,1.2163,1.1466,1.13,1.1534,1.1266,1.13,1.1534,1.1266,1.1166,1.1191,1.1366,1.1591,1.1888,1.2613,1.3011,1.3214,1.3214,1.3481,1.3933,1.4766,1.5017,1.5231,1.642,1.6769,1.6933,1.7909,1.8194,1.83,1.8785,1.8682,1.8578,1.9073,1.9276,1.9468,1.9926,2.0183,2.0351,2.0429,2.0485,2.0508,2.04,2.0374,2.0234,1.9863,1.9575,1.9213,1.8661,1.8159,1.758,1.6876,1.5848,1.5018,1.4549,1.3852,1.297,1.1866,1.0916,0.9877,0.8756,0.7814,0.7217,0.7,0.7,0.72,0.7635,0.7812,0.8112,0.8537,0.797,0.7563,0.9142,0.939,0.9861,1.0181,1.0458,1.0543,0.9901,0.976,0.9543,0.8884,0.7991,0.7318,0.0,0.0,0.6208,0.7176,0.7347,0.7961,0.9662,0.9888,1.0314,0.0,0.0,0.0,0.0,0.0,0.0,1.0997,0.0,1.1091,1.1765,1.2452,1.2847,1.2905,1.2905,1.2905,1.2905,1.2905,1.2905,1.2905,1.2905,1.2905,1.2881,1.2187,1.2236,1.2847,1.2163,1.2236,1.2856,1.2129,1.1864,1.1789,1.1166,1.1291,1.1938,1.2604,1.3239,1.3792,1.3849,1.3862,1.4073,1.5219,1.561,1.5852,1.6967,1.7312,1.7524,1.8564,1.8458,1.8207,1.8859,1.8644,1.8408,1.9016,1.9201,1.9365,1.9958,2.015,2.0254,2.0454,2.0442,2.0408,2.0408,2.0337,2.0199,1.9866,1.9796,1.9509,1.8707,1.8311,1.7758,1.6888,1.607,1.5316,1.4582,1.4133,1.3323,1.1945,1.1265,1.0243,0.8797,0.8193,0.7614,0.7,0.7,0.7299,0.7905,0.7905,0.8212,0.8778,0.8049,0.7316,1.1308,1.1264,1.1115,1.2026,1.2115,1.1702,1.0811,1.0361,0.9764,0.8416,0.792,0.7611,0.0,0.0,0.0,0.7709,0.8126,0.0,1.0809,1.1068,0.0,1.3252,0.0,1.3504,1.3674,1.3094,0.0,0.0,1.1722,1.1091,1.1765,1.1972,1.232,1.2881,1.2905,1.2905,1.2905,1.2905,1.2905,1.2905,1.2905,1.2905,1.2881,1.2715,1.2715,1.2881,1.2691,1.2715,1.2881,1.2691,1.2608,1.2608,1.2437,1.2461,1.2681,1.3317,1.364,1.3862,1.4306,1.4755,1.5197,1.5499,1.5908,1.6411,1.7084,1.7312,1.741,1.8002,1.848,1.8718,1.825,1.8568,1.8969,1.8795,1.8977,1.9313,1.9787,2.0049,2.0239,2.0397,2.0409,2.0408,2.0408,2.0337,2.0225,1.9983,1.9863,1.9509,1.8707,1.8311,1.7758,1.6888,1.607,1.5433,1.4983,1.4294,1.3593,1.2827,1.16,1.0396,0.9275,0.8362,0.7614,0.7,0.7,0.7299,0.7905,0.7905,0.8212,0.8778,0.8049,0.7316,1.2393,1.2314,1.2205,1.283,1.2715,1.2167,1.1269,1.0612,0.9812,0.8596,0.7934,0.0,0.0,0.0,0.0,0.0,0.0,0.0,1.1239,1.1491,1.2227,0.0,1.4424,0.0,1.4424,1.4076,1.3918,0.0,1.2687,1.2016,1.2516,1.2557,1.2666,1.2881,1.2905,1.2905,1.2905,1.2905,1.2905,1.2905,1.2905,1.2905,1.2905,1.2905,1.2905,1.2905,1.2905,1.2905,1.2905,1.2905,1.2905,1.2929,1.319,1.3286,1.3396,1.4272,1.4584,1.4687,1.5287,1.5722,1.5964,1.5698,1.617,1.6951,1.7483,1.7827,1.814,1.8778,1.8965,1.8902,1.8579,1.865,1.8781,1.8633,1.8869,1.9234,1.9707,1.9953,2.0189,2.0408,2.0418,2.0383,2.0357,2.0312,2.0237,2.0026,1.989,1.9569,1.8935,1.8543,1.7933,1.6901,1.6401,1.5849,1.515,1.469,1.4044,1.3162,1.2141,1.0906,0.9455,0.8659,0.7855,0.7021,0.7252,0.7569,0.7905,0.8136,0.8445,0.8778,0.8049,0.7316,1.3084,1.3067,1.3191,1.3274,1.297,1.2424,1.1631,1.0705,0.9736,0.8883,0.0,0.7052,0.6734,0.6875,0.7037,0.7077,0.0,0.922,1.1206,1.1612,1.2475,1.4539,1.4834,1.4873,1.4873,1.4873,1.4707,1.4299,1.3717,1.3466,1.3562,1.3535,1.3311,1.2915,1.2905,1.2905,1.2905,1.2905,1.2954,1.3017,1.3017,1.3017,1.3017,1.3017,1.3017,1.3017,1.292,1.2954,1.3017,1.3017,1.3017,1.3079,1.3684,1.3909,1.405,1.5174,1.561,1.5698,1.6281,1.65,1.6423,1.5962,1.6489,1.7415,1.8027,1.8559,1.9163,1.9934,1.961,1.9065,1.9208,1.8824,1.8432,1.8573,1.8852,1.9212,1.9695,1.9926,2.0139,2.0449,2.0453,2.0387,2.0323,2.0312,2.0242,2.0072,1.9908,1.9694,1.9305,1.8885,1.8166,1.7035,1.6853,1.6376,1.5345,1.5165,1.4601,1.3432,1.282,1.1669,0.9848,0.9224,0.8395,0.7342,0.7734,0.7983,0.8,0.8447,0.8718,0.8778,0.8156,0.7396,1.4676,1.4455,1.4145,1.4815,1.4393,1.3538,1.2527,1.1048,0.0,0.0,0.7184,0.6629,0.6147,0.6657,0.7235,0.7467,0.0,0.0,0.0,0.0,1.3323,0.0,0.0,0.0,0.0,0.0,0.0,0.0,1.5071,1.4703,1.4036,1.3665,1.3311,1.2915,1.2905,1.2905,1.2905,1.2905,1.3152,1.3637,1.3637,1.3637,1.3637,1.3637,1.3637,1.3613,1.3128,1.3176,1.3637,1.3637,1.3637,1.3708,1.4317,1.4537,1.4629,1.5343,1.561,1.5698,1.6281,1.65,1.6552,1.6896,1.7133,1.7483,1.8458,1.9089,1.948,1.9415,1.9765,1.9937,1.8788,1.896,1.9293,1.8735,1.9056,1.9543,1.9762,2.0088,2.035,2.0473,2.0486,2.0467,2.0384,2.033,2.0283,2.025,2.0097,1.9874,1.9631,1.9014,1.8326,1.7614,1.7109,1.6607,1.6134,1.5477,1.4998,1.477,1.3631,1.2615,1.1823,1.0594,0.9641,0.8999,0.8492,0.8349,0.8562,0.848,0.8572,0.8804,0.8672,0.7883,1.5235,1.5108,1.4932,1.5294,1.4738,1.3854,1.287,0.0,0.0,0.0,0.7279,0.6582,0.6052,0.0,0.0,0.0,0.0,0.0,0.0,0.0,0.0,0.0,0.0,0.0,0.0,0.0,0.0,1.541,1.541,1.5011,1.4153,1.3525,1.3249,1.3358,1.3372,1.3515,1.3836,1.3836,1.3967,1.426,1.426,1.426,1.426,1.426,1.426,1.426,1.3954,1.4001,1.426,1.426,1.426,1.4329,1.4937,1.5163,1.5231,1.5854,1.6073,1.6117,1.6402,1.668,1.6993,1.7544,1.7727,1.7867,1.865,1.9401,1.9982,2.0109,2.0146,2.0027,1.9521,1.9371,1.9253,1.8887,1.9268,1.9743,1.9916,2.0168,2.0361,2.0434,2.0419,2.0391,2.0391,2.0348,2.0295,2.0302,2.0165,1.9979,1.9781,1.9254,1.8619,1.7886,1.7473,1.7007,1.6353,1.5953,1.5463,1.483,1.37,1.2603,1.1617,1.0195,0.9164,0.863,0.8413,0.8296,0.8294,0.8252,0.8242,0.8209,0.7444,0.6708,1.5391,1.541,1.541,1.541,1.4849,1.4049,1.3026,1.1469,0.0,0.0,0.7647,0.6842,0.6426,0.0,0.0,0.0,0.0,0.0,0.0,0.0,0.0,0.0,0.0,0.0,0.0,0.0,0.0,1.541,1.5467,1.5157,1.4357,1.3851,1.3745,1.399,1.398,1.4213,1.4698,1.4698,1.4766,1.4903,1.4903,1.4903,1.4903,1.4903,1.4903,1.488,1.4755,1.4766,1.4903,1.4903,1.4903,1.4949,1.5555,1.5798,1.5842,1.6337,1.65,1.65,1.65,1.6858,1.7394,1.7927,1.8249,1.8521,1.9033,1.9849,2.0619,2.083,2.0553,2.0182,2.0176,1.9704,1.9234,1.9194,1.9526,1.9903,2.0092,2.0228,2.0327,2.0361,2.0354,2.0328,2.0361,2.0351,2.0326,2.0314,2.023,2.0104,1.9925,1.9619,1.9099,1.8305,1.7844,1.7297,1.6562,1.6313,1.5753,1.469,1.3815,1.2682,1.1267,0.9905,0.8895,0.8307,0.8354,0.8238,0.7937,0.7978,0.7817,0.7423,0.6276,0.5651,1.5312,1.541,1.541,1.541,1.521,1.4624,1.3142,0.0,0.0,0.9062,0.8093,0.7501,0.746,0.7474,0.0,0.0,0.0,0.9864,0.0,0.0,0.0,0.0,0.0,0.0,0.0,0.0,0.0,1.541,1.5667,1.5608,1.5034,1.5567,1.5517,1.464,1.4617,1.4629,1.4698,1.4698,1.4971,1.5521,1.5521,1.5521,1.5521,1.5521,1.5521,1.5499,1.4949,1.5017,1.5521,1.5521,1.5521,1.5588,1.6194,1.6423,1.6423,1.6466,1.65,1.65,1.65,1.6858,1.7394,1.7927,1.8717,1.9534,2.0024,2.0781,2.136,2.0718,2.0992,2.1117,1.9762,1.9727,2.0033,1.9781,1.9869,2.004,2.0244,2.0285,2.0291,2.0319,2.0357,2.0363,2.0313,2.0344,2.039,2.0389,2.0373,2.033,2.027,2.0115,1.9812,1.932,1.8054,1.7216,1.7121,1.6334,1.5624,1.5089,1.4613,1.37,1.2224,1.1226,1.0361,0.9646,0.8987,0.8473,0.8078,0.786,0.7374,0.6696,0.6556,0.6145,1.499,1.5215,1.541,1.541,1.5237,1.4679,1.3098,0.0,1.0845,0.9088,0.8415,0.8039,0.7665,0.7804,0.817,0.0,0.0,0.0,0.0,0.0,0.0,0.0,0.0,0.0,0.0,0.0,1.6715,1.6715,1.7252,1.7357,1.6817,1.6153,1.5767,1.573,1.5416,1.5421,1.5788,1.5788,1.5898,1.6139,1.6139,1.6139,1.6139,1.6139,1.6139,1.6129,1.5876,1.592,1.6139,1.6139,1.6139,1.6173,1.6402,1.65,1.65,1.65,1.65,1.6552,1.6879,1.7333,1.7867,1.8419,1.9426,2.0418,2.0316,2.0911,2.1547,2.1235,2.1343,2.1448,2.1039,2.0739,2.0437,1.9926,1.9906,2.0054,2.0261,2.031,2.031,2.031,2.0321,2.0331,2.0307,2.0369,2.0393,2.039,2.0437,2.0397,2.0205,2.013,1.9986,1.9662,1.8746,1.7907,1.7259,1.67,1.5808,1.4414,1.3863,1.2976,1.1582,1.0262,0.9513,0.9393,0.8176,0.7571,0.7627,0.722,0.6664,0.5928,0.5928,0.5574,1.4849,1.5212,1.5517,1.5369,1.5392,1.4974,0.0,1.238,1.1451,0.9459,0.8898,0.8635,0.8221,0.8224,0.844,0.0,0.0,0.9346,0.0,0.0,0.0,0.0,0.0,0.0,0.0,0.0,1.7605,1.7605,1.8274,1.8522,1.8166,1.7113,1.6586,1.6674,1.6322,1.6245,1.65,1.65,1.65,1.65,1.65,1.65,1.65,1.65,1.65,1.65,1.65,1.65,1.65,1.65,1.65,1.65,1.65,1.65,1.65,1.65,1.6595,1.6795,1.7167,1.7767,1.84,1.8779,1.976,2.0764,2.0566,2.1118,2.1809,2.1809,2.1732,2.1731,2.2056,2.1653,2.0984,2.0308,2.0256,2.0337,2.0303,2.0308,2.0308,2.0308,2.0308,2.0292,2.0302,2.0338,2.0377,2.0398,2.0469,2.0428,2.0233,2.0205,2.0104,1.9858,1.9321,1.8539,1.7474,1.6933,1.5947,1.429,1.372,1.2758,1.1236,0.9837,0.9063,0.8986,0.7752,0.7229,0.7433,0.7073,0.6443,0.5515,0.5515,0.5136,1.4984,1.5536,1.5858,1.5247,1.5692,1.5715,0.0,1.3089,1.2559,1.0344,0.9633,0.9396,0.9383,0.8786,0.8437,0.8828,0.0,0.0,0.0,0.0,0.0,0.0,0.0,0.0,0.0,1.7288,1.7605,1.7605,1.8274,0.0,1.8676,1.8867,1.8481,1.7413,1.7375,1.7099,1.65,1.65,1.65,1.65,1.65,1.65,1.65,1.65,1.65,1.65,1.65,1.65,1.65,1.65,1.65,1.65,1.65,1.65,1.65,1.65,1.6837,1.7291,1.7312,1.8007,1.8893,1.8893,1.9546,2.0399,2.0845,2.16,2.2296,2.2296,2.2151,2.2067,2.2416,2.2246,2.182,2.1142,2.1087,2.1013,2.0433,2.0308,2.0308,2.0308,2.0308,2.0308,2.0308,2.0295,2.0316,2.0383,2.0468,2.0503,2.0494,2.0437,2.0277,1.993,1.9593,1.8965,1.788,1.6873,1.5967,1.5149,1.4705,1.3618,1.168,1.0617,0.9649,0.8727,0.8176,0.7815,0.7691,0.7696,0.6929,0.5515,0.5515,0.5136,1.3659,1.4205,1.4613,1.3695,1.4037,1.4114,1.2255,1.2251,1.2137,1.0282,0.9815,0.9673,0.9448,0.9209,0.9351,1.026,1.043,0.0,0.0,0.0,0.0,0.0,0.0,0.0,0.0,0.0,1.9097,1.9097,1.9307,1.9449,1.9449,1.9507,1.9058,1.7978,1.7576,1.7099,1.65,1.65,1.65,1.65,1.65,1.65,1.65,1.65,1.6689,1.7055,1.7055,1.7055,1.7055,1.7055,1.7055,1.7055,1.7055,1.7271,1.7585,1.7585,1.7706,1.7907,1.8283,1.8612,1.9024,1.9654,2.0265,2.0862,2.1275,2.1598,2.194,2.2426,2.2691,2.2768,2.256,2.2658,2.2489,2.1181,2.1047,2.0993,2.0241,2.0201,2.0308,2.0308,2.0308,2.0308,2.0308,2.0292,2.0316,2.0381,2.0467,2.0502,2.0494,2.0438,2.0318,2.0061,1.9643,1.901,1.8074,1.7336,1.637,1.5051,1.4624,1.3736,1.2207,1.1454,1.086,1.0486,0.94,0.8699,0.8376,0.8376,0.7906,0.6983,0.6497,0.615,0.0,1.327,1.3682,1.2767,1.3073,1.3177,1.174,1.1764,1.1676,1.0207,0.9905,0.9828,0.962,0.9475,0.9635,1.0344,1.0655,0.0,0.0,0.0,0.0,0.0,0.0,0.0,0.0,1.9685,1.9798,1.9798,1.9798,1.9798,1.9798,1.9798,1.9409,1.8519,1.8179,1.7727,1.7162,1.6948,1.6848,1.6835,1.66,1.6616,1.6795,1.6795,1.7097,1.7605,1.7605,1.7605,0.0,1.7605,1.7605,1.7605,1.7605,1.7807,1.8106,1.8106,1.8243,1.8458,1.8779,1.9122,1.9528,2.011,2.0715,2.1306,2.1668,2.182,2.1984,2.2538,2.2947,2.3152,2.2995,2.326,2.3255,2.2009,2.1838,2.1664,2.0603,2.0513,2.054,2.0246,2.0245,2.0308,2.0308,2.0303,2.032,2.0398,2.0435,2.0472,2.0523,2.0467,2.0335,2.0153,1.9789,1.9271,1.8565,1.7815,1.6873,1.5654,1.5358,1.4625,1.3286,1.2529,1.1965,1.1608,1.0347,0.9515,0.911,0.8587,0.8104,0.7696,0.6939,0.6588,0.0,1.2643,1.2979,1.234,1.2653,1.283,1.1759,1.1545,0.0,1.0119,0.9905,0.9931,1.0006,0.9732,0.9543,0.9713,0.0,0.0,0.0,0.0,0.0,0.0,0.0,0.0,1.9058,1.9522,1.9798,1.9798,1.9798,1.9798,1.9798,1.9798,1.9572,1.907,1.9058,1.877,1.8216,1.7735,1.7481,1.7398,1.691,1.6897,1.7312,1.7353,1.7646,0.0,1.8165,1.8165,1.8165,1.8165,1.8165,1.8165,1.8165,1.8185,1.8224,1.8224,1.8535,1.8968,1.8991,1.9564,2.0314,2.0382,2.0959,2.1716,2.204,2.2223,2.2377,2.2673,2.2984,2.3271,2.3649,2.3976,2.4035,2.3355,2.3198,2.2823,2.1393,2.1212,2.1093,2.0341,2.0299,2.0385,2.0385,2.0346,2.0317,2.0392,2.0408,2.0443,2.0585,2.0481,2.0349,2.0219,1.9959,1.9645,1.9269,1.8319,1.7444,1.6817,1.6729,1.6112,1.4793,1.3909,1.308,1.2305,1.1119,1.0319,0.9943,0.8534,0.7851,0.7824,0.7101,0.675,1.1057,0.0,1.2119,1.1413,1.1642,1.1816,0.0,1.1003,1.1026,1.0096,0.0,1.0169,1.105,1.0751,1.097,1.271,0.0,0.0,0.0,0.0,0.0,1.9284,1.9547,1.9623,1.9623,1.9736,1.9798,1.9798,1.9798,1.9798,1.9798,1.9798,1.9748,1.9623,1.9623,1.9158,1.8216,1.8526,1.8264,1.7398,1.8145,1.8077,1.7312,1.7727,1.8204,1.8708,1.8708,1.8708,1.8708,1.8708,1.8708,1.8708,1.8708,1.8968,1.9332,1.9332,1.9406,1.9551,1.9864,2.011,2.0416,2.1086,2.169,2.2189,2.2459,2.2446,2.2457,2.3248,2.3335,2.3335,2.3927,2.4151,2.3997,2.3235,2.3241,2.3159,2.2204,2.2212,2.2364,2.2181,2.1641,2.1216,2.1216,2.0712,2.0317,2.0392,2.0408,2.0443,2.0585,2.0481,2.0349,2.0219,1.9959,1.9732,1.953,1.8583,1.7845,1.7495,1.7549,1.7157,1.616,1.6076,1.5424,1.4104,1.2375,1.1428,1.1341,0.9979,0.9321,0.9295,0.86,0.8289,1.0729,1.152,1.2124,1.1837,1.1985,1.2072,1.1611,0.0,0.0,0.0,0.0,1.0169,1.1035,1.1161,0.0,0.0,1.3758,0.0,0.0,0.0,0.0,1.971,1.9798,1.9798,0.0,1.9798,1.9798,1.9798,1.9798,1.9798,1.9798,1.9798,1.9798,1.9798,2.0105,1.9812,1.8945,1.9006,1.875,1.8138,1.8484,1.843,1.8046,1.8341,1.8746,1.9262,1.9262,1.9262,1.9262,1.9262,1.9262,1.9262,1.9262,1.9555,1.9947,1.9764,1.9945,2.0294,2.0297,2.0551,2.1023,2.1705,2.2092,2.2374,2.2802,2.273,2.2643,2.3466,2.3566,2.3555,2.4074,2.419,2.408,2.3657,2.3759,2.3739,2.2921,2.3012,2.315,2.2777,2.2377,2.1966,2.1562,2.1135,2.0741,2.045,2.0408,2.0443,2.0585,2.0481,2.0379,2.0306,2.0044,1.9836,1.9707,1.9028,1.8537,1.8395,1.843,1.817,1.7536,1.7448,1.654,1.4686,1.3091,1.2101,1.1789,1.0721,1.0074,0.9788,0.9106,0.8804,1.0922,1.1885,1.2658,1.2718,1.2842,1.2955,1.2816,0.0,0.0,0.0,0.0,0.0,0.0,1.1638,0.0,0.0,0.0,0.0,1.7373,1.8442,1.9196,1.9748,1.9798,0.0,1.9798,1.9798,1.9798,1.9798,1.9798,1.9798,1.9798,1.9798,1.9798,1.9798,2.0446,2.0535,1.9952,1.9677,1.9421,1.9122,1.8797,1.8738,1.8893,1.8987,1.9262,1.9708,1.9708,1.9708,1.9708,1.9708,1.9744,1.98,1.98,2.0052,2.0365,2.0017,2.0362,2.0943,2.0616,2.1039,2.1779,2.218,2.2296,2.2402,2.3014,2.3009,2.2923,2.3588,2.3735,2.3785,2.4103,2.419,2.419,2.419,2.4348,2.4325,2.3676,2.3774,2.379,2.3141,2.3002,2.2763,2.2048,2.1786,2.1501,2.0893,2.0805,2.0852,2.0976,2.0895,2.0809,2.0799,2.046,2.0164,2.003,1.9669,1.9474,1.9552,1.9395,1.9147,1.8872,1.8275,1.6991,1.4913,1.3624,1.2677,1.2101,1.1273,1.0611,1.009,0.9309,0.8956,1.1831,1.2993,1.3531,1.2608,1.31,1.3629,1.2872,0.0,0.0,0.0,0.0,0.0,0.0,1.3644,1.4198,0.0,0.0,1.7335,0.0,0.0,1.9196,1.9748,0.0,1.9798,1.9798,1.9798,1.9798,1.9798,1.9798,1.9798,1.9798,1.9798,1.9798,1.9798,2.0446,2.0746,2.066,2.1629,2.1336,1.977,2.0709,2.0367,1.893,1.9369,1.9621,1.9708,1.9708,1.9708,1.9708,1.9708,1.9909,2.021,2.021,2.0483,2.0878,2.0813,2.0894,2.1039,2.1322,2.1749,2.2209,2.2282,2.2296,2.2402,2.3014,2.3165,2.3259,2.3927,2.3917,2.3785,2.4103,2.419,2.419,2.419,2.4348,2.4516,2.4554,2.4701,2.4836,2.4878,2.4341,2.3872,2.3793,2.3134,2.2611,2.2675,2.2642,2.2647,2.2773,2.2727,2.2659,2.2615,2.1753,2.1159,2.1079,2.0746,2.0712,2.1116,2.0552,2.014,1.9955,1.8594,1.729,1.6151,1.4493,1.3603,1.3498,1.2248,1.1582,1.1466,1.0218,0.964,1.0456,1.1655,1.2703,1.2688,1.4133,1.5465,1.5057,0.0,0.0,0.0,0.0,0.0,0.0,0.0,1.55,1.7149,0.0,1.8455,1.8933,1.9246,1.9509,0.0,0.0,1.9798,1.9798,1.9798,1.9798,1.9798,1.9798,1.9952,2.0321,2.0346,2.0484,2.083,2.1476,2.1823,2.1823,2.2725,2.2244,2.0331,2.0534,2.0161,1.935,1.9584,1.9708,1.9708,1.9708,1.9708,1.9708,1.9708,1.9929,2.0297,2.0297,2.0732,2.1353,2.1615,2.1538,2.14,2.184,2.212,2.2296,2.2296,2.2296,2.2402,2.3014,2.32,2.3346,2.4006,2.4084,2.4006,2.4161,2.419,2.419,2.419,2.4348,2.4561,2.476,2.491,2.5052,2.5264,2.5,2.4623,2.4256,2.3832,2.345,2.3154,2.3075,2.3081,2.3183,2.3108,2.3028,2.3002,2.2488,2.2113,2.2012,2.1765,2.1554,2.1448,2.1154,2.0778,2.027,1.8747,1.7564,1.686,1.5748,1.4892,1.4283,1.329,1.2667,1.2288,1.0585,0.9788,0.9653,1.0665,1.1868,1.2977,0.0,1.6452,1.6698,1.6144,0.0,0.0,0.0,0.0,0.0,1.5651,0.0,1.799,1.8769,1.9183,1.9183,1.9547,1.9798,1.9798,1.9798,1.985,2.0029,2.0029,2.0093,2.0232,2.0232,2.0484,2.0979,2.1004,2.1221,2.1687,2.2346,2.2694,2.2694,2.2994,2.2414,2.0924,2.0408,2.0007,1.9708,1.9708,1.9708,1.9708,1.9708,1.9747,1.9821,1.9729,2.0052,2.0601,2.05,2.1007,2.1809,2.218,2.2061,2.1809,2.218,2.2296,2.231,2.2374,2.2385,2.2504,2.3123,2.3323,2.3437,2.4026,2.419,2.419,2.419,2.419,2.419,2.419,2.4321,2.4503,2.4746,2.4877,2.5024,2.5259,2.5308,2.5129,2.4594,2.4481,2.4316,2.379,2.3696,2.3719,2.3789,2.3687,2.3599,2.3584,2.3311,2.304,2.2821,2.2634,2.2354,2.1967,2.183,2.1376,2.05,1.9112,1.8068,1.7417,1.6747,1.585,1.4698,1.403,1.3419,1.2769,1.1057,1.0269,1.1301,1.1699,1.1995,1.3621,1.4448,0.0,1.6118,1.6386,0.0,1.7162,0.0,0.0,0.0,1.7672,1.8066,1.8191,1.907,1.9748,1.9748,0.0,1.9798,1.9798,1.9798,2.0055,2.0671,2.0721,2.0955,2.1506,2.1554,2.1578,2.1625,2.1639,2.1663,2.1697,2.2346,2.2694,2.2694,2.2123,2.1764,2.162,2.157,2.0887,1.9708,1.9708,1.9708,1.9708,1.9708,1.9909,2.0229,1.9856,2.0414,2.1476,2.1102,2.1493,2.2237,2.2282,2.2282,2.2237,2.2282,2.2296,2.2335,2.2586,2.2656,2.2797,2.3448,2.3671,2.3735,2.4094,2.419,2.419,2.419,2.419,2.419,2.419,2.4209,2.4339,2.4716,2.4811,2.4903,2.5238,2.5308,2.5329,2.5382,2.535,2.536,2.5485,2.5461,2.5436,2.5508,2.5459,2.539,2.5323,2.459,2.3925,2.3472,2.3255,2.3252,2.3527,2.2903,2.204,2.0991,2.001,1.9041,1.8052,1.697,1.585,1.4698,1.4097,1.3481,1.2871,1.203,1.1665,0.9955,1.0616,1.1435,1.3119,1.4194,0.0,0.0,1.8115,1.9296,1.9567,2.0434,0.0,0.0,0.0,1.9433,1.9748,2.016,2.0559,2.0928,2.0988,2.0988,2.0988,2.0988,2.1086,2.1342,2.1366,2.1448,2.1673,2.1697,2.1875,2.23,2.2323,2.2483,2.2868,2.3143,2.3268,2.3268,2.301,2.2682,2.2313,2.1055,2.0202,1.9708,1.9947,2.0072,2.0089,2.0381,2.0599,2.0715,2.0565,2.0943,2.1613,2.1749,2.202,2.2296,2.2296,2.2296,2.2296,2.2296,2.2296,2.2349,2.2612,2.2708,2.2835,2.35,2.3703,2.3774,2.4103,2.419,2.419,2.419,2.4294,2.4393,2.4393,2.4478,2.4647,2.4877,2.4911,2.4999,2.5253,2.5308,2.5348,2.5488,2.549,2.5526,2.5682,2.5683,2.5662,2.5703,2.5604,2.5535,2.5493,2.5012,2.4591,2.4327,2.3928,2.3608,2.3408,2.2884,2.2218,2.1348,2.0486,1.9426,1.8145,1.7679,1.692,1.581,1.4835,1.4247,1.3967,1.2502,1.1591,1.0043,1.0782,1.1899,1.3535,0.0,0.0,1.7497,1.9343,2.0905,2.164,2.222,0.0,0.0,0.0,0.0,0.0,2.0975,2.1221,2.1625,2.1697,2.1697,2.1697,2.1697,2.1781,2.1993,2.203,2.2086,2.2294,2.2294,2.2492,2.2965,2.2987,2.3165,2.3595,2.3595,2.3595,2.3595,2.34,2.2996,2.2373,2.0767,2.008,2.0212,2.0423,2.0516,2.0533,2.0862,2.1071,2.1181,2.1039,2.1244,2.1658,2.212,2.2296,2.2296,2.2296,2.2296,2.231,2.2402,2.2426,2.249,2.289,2.3021,2.3117,2.3692,2.3865,2.3907,2.4141,2.419,2.4209,2.4275,2.4401,2.452,2.4575,2.47,2.4835,2.4974,2.5004,2.5052,2.5264,2.5308,2.5348,2.5488,2.5491,2.5549,2.5683,2.5703,2.5703,2.5703,2.5602,2.5498,2.5392,2.5119,2.4877,2.4723,2.4201,2.3757,2.3392,2.2907,2.2235,2.1379,2.0667,1.9692,1.838,1.8204,1.747,1.6191,1.5197,1.4502,1.4084,1.2764,1.1907,1.2244,1.2747,1.3601,0.0,0.0,0.0,1.8755,1.9761,2.0981,2.3285,0.0,2.1945,2.1937,0.0,0.0,2.0825,2.1384,2.171,2.172,2.172,2.172,2.172,2.172,2.1969,2.2649,2.2694,2.2957,2.3551,2.3595,2.3595,2.3595,2.3595,2.3595,2.3595,2.3595,2.3595,2.3595,2.3017,2.2373,2.1695,2.1036,2.0906,2.1272,2.1097,2.0991,2.1023,2.1023,2.1244,2.1583,2.1166,2.1244,2.1658,2.212,2.2296,2.2296,2.2296,2.2296,2.2335,2.2612,2.2708,2.2822,2.3471,2.3703,2.3774,2.4094,2.419,2.419,2.419,2.419,2.4256,2.4444,2.4503,2.4561,2.4753,2.4804,2.4842,2.4974,2.501,2.5052,2.5264,2.5308,2.5329,2.5488,2.5491,2.5549,2.5683,2.5703,2.5703,2.5703,2.5636,2.547,2.5143,2.4917,2.4723,2.4528,2.402,2.3692,2.3692,2.3069,2.218,2.1055,2.055,1.9866,1.893,1.838,1.7253,1.5526,1.496,1.4095,1.2929,1.2905,1.2905,1.1931,1.2925,0.0,1.5901,0.0,0.0,0.0,2.2304,0.0,0.0,2.5788,2.5059,2.459,0.0,0.0,2.2856,2.297,2.3077,2.3038,2.3047,2.3047,2.3047,2.3047,2.3106,2.3297,2.3334,2.3421,2.3595,2.3595,2.3595,2.3595,2.3595,2.3595,2.3595,2.3595,2.3595,2.3595,2.3415,2.3032,2.2403,2.2358,2.1711,2.0609,2.0875,2.115,2.143,2.1766,2.1974,2.2092,2.1959,2.1974,2.2106,2.2254,2.2296,2.2296,2.2296,2.2426,2.2599,2.2656,2.286,2.3129,2.3555,2.3703,2.3774,2.4094,2.419,2.419,2.419,2.4303,2.4452,2.4654,2.4773,2.4872,2.4924,2.5055,2.516,2.5203,2.5214,2.5224,2.5298,2.5339,2.5398,2.5495,2.5545,2.5602,2.5683,2.5703,2.5661,2.5566,2.5508,2.5408,2.5255,2.4974,2.4775,2.4716,2.409,2.3599,2.3369,2.2947,2.2286,2.1394,2.0991,2.0196,1.893,1.838,1.7659,1.676,1.5784,1.4937,1.4154,1.3742,1.304,1.3289,1.4651,0.0,1.7827,1.9027,2.0577,2.3332,0.0,0.0,0.0,0.0,2.6153,2.6019,2.505,0.0,2.4022,2.3814,2.3643,2.3611,2.3595,2.3595,2.3595,2.3595,2.3595,2.3595,2.3595,2.3595,2.3595,2.3595,2.3595,2.3595,2.3595,2.3595,2.3595,2.3595,2.3595,2.3595,2.3516,2.3146,2.2551,2.2572,2.1976,2.083,2.1291,2.1645,2.1899,2.218,2.2296,2.2296,2.2296,2.2296,2.2296,2.2296,2.2377,2.2463,2.2463,2.2656,2.2923,2.3057,2.3224,2.3448,2.3795,2.3896,2.3927,2.4141,2.419,2.4218,2.4294,2.441,2.4559,2.4802,2.493,2.5022,2.5099,2.5214,2.5308,2.5308,2.5308,2.5308,2.5308,2.5346,2.5411,2.5498,2.5556,2.5611,2.5683,2.5682,2.5633,2.5552,2.5459,2.534,2.5226,2.4974,2.4768,2.4685,2.4089,2.3555,2.3212,2.2885,2.2289,2.1349,2.1118,2.0501,1.9474,1.8559,1.7834,1.7252,1.6133,1.5298,1.4686,1.4073,1.3379,1.5375,1.7015,0.0,2.0243,2.0976,0.0,2.4939,2.6123,2.6806,2.7465,0.0,2.5974,2.6572,2.5151,2.4059,2.4605,2.4126,2.367,2.361,2.3595,2.3595,2.3595,2.3595,2.3595,2.3595,2.3595,2.3595,2.3595,2.3595,2.3595,2.3595,2.3595,2.3595,2.3595,2.3659,2.3659,2.3595,2.3534,2.3111,2.2393,2.2299,2.2102,2.1826,2.218,2.2369,2.2398,2.2398,2.2347,2.2296,2.2296,2.2296,2.2296,2.2296,2.2463,2.2708,2.2708,2.2935,2.33,2.3588,2.3714,2.3795,2.4094,2.419,2.4199,2.4218,2.4228,2.4266,2.4469,2.4545,2.4612,2.493,2.5016,2.5063,2.5259,2.5308,2.5308,2.5308,2.5308,2.5308,2.5303,2.5363,2.5425,2.5508,2.5563,2.5633,2.5684,2.5634,2.5595,2.5573,2.5474,2.5309,2.5101,2.493,2.4723,2.452,2.402,2.3555,2.3212,2.2885,2.221,2.1102,2.1007,2.0764,2.0246,1.8835,1.784,1.7281,1.6207,1.5343,1.4686,1.4143,1.3815,1.3802,1.6135,0.0,0.0,2.1951,2.4157,2.5337,2.6123,2.6806,2.7465,2.7375,2.721,2.736,2.6611,2.5824,2.5442,2.4814,2.4201,2.367,2.3595,2.3595,2.3595,2.3595,2.3595,2.3595,2.3595,2.3595,2.3595,2.3595,2.3595,2.3595,2.3595,2.3595,2.3595,2.4012,2.4032,2.3595,2.4391,2.4244,2.3165,2.3869,2.3933,2.339,2.2874,2.2824,2.3156,2.3156,2.2835,2.2296,2.2296,2.2296,2.2296,2.2296,2.2463,2.2708,2.2708,2.3081,2.3599,2.3671,2.3876,2.4103,2.417,2.419,2.4228,2.4393,2.4445,2.4478,2.4678,2.4809,2.4917,2.4986,2.5111,2.5253,2.5279,2.5308,2.5308,2.5308,2.5308,2.5317,2.5371,2.5428,2.5508,2.5563,2.5634,2.5664,2.5633,2.5563,2.5493,2.5456,2.536,2.5245,2.5036,2.4897,2.4723,2.452,2.402,2.3555,2.3212,2.2885,2.232,2.1506,2.1166,2.0632,1.9839,1.8688,1.8033,1.79,1.682,1.5744,1.4698,1.456,1.4001,1.3704,0.0,0.0,2.0816,0.0,2.4694,2.5038,2.5644,2.6213,2.6557,2.7151,2.7495,2.718,2.6557,2.5899,2.5217,2.456,2.4014,2.3655,2.3595,2.3595,2.3595,2.3595,2.3595,2.3595,2.3595,2.3595,2.3595,2.3595,2.3595,2.3595,2.3837,2.397,2.397,2.4511,2.4652,2.4369,2.4792,2.4682,2.4074,2.446,2.4679,2.4695,2.391,2.3699,2.3915,2.3545,2.3173,2.2801,2.2448,2.2296,2.2296,2.2296,2.2554,2.2947,2.2947,2.3369,2.3937,2.3937,2.4046,2.419,2.419,2.419,2.4237,2.4435,2.4503,2.4551,2.4816,2.4943,2.5022,2.5111,2.5219,2.5308,2.5308,2.5308,2.5308,2.5308,2.5308,2.5327,2.5383,2.5459,2.5511,2.5595,2.566,2.5682,2.5606,2.5547,2.5485,2.5417,2.526,2.513,2.5016,2.4795,2.4607,2.4512,2.402,2.3555,2.3212,2.2885,2.2279,2.1353,2.1102,2.0682,2.0,1.8995,1.8361,1.8106,1.7271,1.6441,1.5545,1.5265,1.4629,1.3443,0.0,1.8742,2.1792,2.3425,0.0,2.456,2.5023,2.5457,2.5585,2.6482,2.7091,2.6512,2.5884,2.5247,2.4694,2.4044,2.3595,2.3595,2.3681,2.3702,2.3616,2.3681,2.3745,2.3745,2.3745,2.3773,2.3879,2.3794,2.3773,2.3879,2.4204,2.445,2.4552,2.5067,2.5233,2.5006,2.4959,2.4825,2.4625,2.4658,2.5083,2.5778,2.5168,2.4812,2.466,2.3915,2.3526,2.3342,2.26,2.2321,2.236,2.236,2.2734,2.3288,2.3288,2.3671,2.419,2.419,2.419,2.4218,2.4247,2.4256,2.4294,2.4518,2.4599,2.4659,2.4962,2.5046,2.5094,2.5259,2.5308,2.5308,2.5308,2.5308,2.5293,2.5313,2.5322,2.5348,2.5418,2.5501,2.5554,2.5605,2.5661,2.5662,2.5598,2.5541,2.5479,2.5387,2.5187,2.5028,2.4974,2.4715,2.4528,2.4452,2.3951,2.35,2.3212,2.2835,2.2127,2.1039,2.0991,2.0747,2.021,1.9343,1.8631,1.8106,1.7565,1.6959,1.6324,1.5842,1.5231,0.0,0.0,1.7658,0.0,2.2477,2.3236,0.0,0.0,2.4903,0.0,2.5749,2.5839,2.5749,2.5187,2.4709,2.4619,2.4044,2.3595,2.3595,2.3991,2.4116,2.3659,2.4012,2.4287,2.4287,2.4287,2.4491,2.4953,2.4552,2.4491,2.4969,2.4612,2.4612,2.5086,2.5615,2.5359,2.4265,2.5077,2.4946,2.3868,2.4943,2.5845,2.6539,2.6454,2.6065,2.5423,2.4677,2.4,2.3342,2.26,2.244,2.2647,2.2647,2.3045,2.3621,2.3621,2.3858,2.419,2.419,2.419,2.4228,2.441,2.4452,2.4518,2.4838,2.4924,2.498,2.5203,2.5264,2.5264,2.5284,2.5308,2.5308,2.5308,2.5308,2.5317,2.5379,2.5383,2.5425,2.5551,2.5632,2.5682,2.5683,2.5683,2.566,2.5539,2.5515,2.544,2.5326,2.5284,2.5154,2.4855,2.479,2.4615,2.4266,2.3642,2.3247,2.32,2.2673,2.1943,2.1039,2.0991,2.0615,1.98,1.9207,1.8631,1.8106,1.7565,1.6756,1.572,1.5632,1.5005,1.2006,1.4525,1.742,0.0,2.1791,2.2574,2.3769,0.0,2.4133,2.4418,2.4477,2.4597,2.4963,2.4799,2.4485,2.4096,2.3789,2.3702,2.4012,2.4246,2.4307,2.4074,2.4532,2.4732,2.443,2.4672,2.495,2.5182,2.4973,2.4953,2.5182,2.5259,2.5392,2.5652,2.574,2.5513,2.4942,2.4976,2.4702,2.416,2.5124,2.5778,2.6099,2.6505,2.6522,2.615,2.4998,2.4321,2.3947,2.2942,2.2599,2.2721,2.291,2.3288,2.3703,2.3703,2.3907,2.419,2.419,2.419,2.4237,2.4426,2.4503,2.4567,2.4904,2.5004,2.504,2.5234,2.5308,2.5308,2.5308,2.5308,2.5308,2.5308,2.5321,2.5367,2.5436,2.5439,2.5444,2.5567,2.5659,2.5703,2.5703,2.5703,2.5659,2.5529,2.5491,2.5456,2.5322,2.5203,2.5055,2.4832,2.47,2.4432,2.3968,2.3488,2.3117,2.2935,2.2531,2.2003,2.1353,2.1118,2.0698,2.0052,1.9573,1.8949,1.8106,1.7867,1.7182,1.6095,1.6095,1.5644,0.0,0.0,1.6173,1.9103,2.0516,2.153,0.0,0.0,2.3415,0.0,2.3595,2.3759,2.4246,2.4469,2.4376,2.387,2.3921,2.4158,2.4552,2.4732,2.4772,2.4632,2.5086,2.524,2.4851,2.5182,2.5449,2.558,2.5271,2.5155,2.5285,2.5538,2.5669,2.5626,2.5597,2.5423,2.505,2.4306,2.4034,2.422,2.4966,2.5423,2.5642,2.6353,2.6691,2.664,2.5448,2.4931,2.4842,2.363,2.3177,2.326,2.3313,2.3533,2.3827,2.3827,2.3986,2.4199,2.4266,2.4275,2.4321,2.454,2.4628,2.4678,2.498,2.5082,2.5105,2.5259,2.5308,2.5308,2.5308,2.5308,2.5293,2.5312,2.5363,2.542,2.5507,2.5504,2.5515,2.5604,2.5661,2.5703,2.5703,2.5703,2.566,2.5541,2.5508,2.546,2.5317,2.5116,2.4943,2.4799,2.4615,2.4275,2.3746,2.3392,2.3057,2.2721,2.245,2.2032,2.146,2.115,2.0731,2.0158,1.9856,1.9244,1.8302,1.8185,1.7626,1.6689,1.6552,1.6173,0.0,1.1697,0.0,1.6121,1.8095,0.0,0.0,0.0,2.2912,2.3475,2.3595,2.361,2.3655,2.4073,2.4395,2.4348,2.4792,2.5125,2.5147,2.5596,2.5726,2.5221,2.5633,2.5943,2.5924,2.5943,2.6139,2.659,2.5493,2.5043,2.5545,2.5112,2.4779,2.458,2.5237,2.4932,2.3528,2.2769,2.2767,2.346,2.4203,2.4915,2.5642,2.6353,2.6691,2.6674,2.6274,2.611,2.6019,2.4804,2.4504,2.4705,2.3977,2.3886,2.417,2.417,2.418,2.4228,2.4428,2.4486,2.4534,2.4872,2.4961,2.501,2.5219,2.5279,2.5298,2.5303,2.5308,2.5308,2.5308,2.5308,2.5322,2.5379,2.5402,2.5451,2.5561,2.5636,2.5683,2.5683,2.5703,2.5703,2.5703,2.5703,2.5681,2.5608,2.5537,2.5448,2.5327,2.5116,2.4943,2.4799,2.4615,2.4275,2.3746,2.3392,2.3057,2.2721,2.245,2.1915,2.1055,2.1007,2.0599,1.9747,1.9711,1.9424,1.8855,1.8361,1.7807,1.725,1.6731,1.6173,0.0,0.0,0.0,1.5103,1.6993,1.8701,2.0165,2.164,2.2763,2.2987,2.3325,2.3595,2.3595,2.3752,2.3991,2.4348,2.4572,2.493,2.5615,2.587,2.5924,2.5726,2.6157,2.6332,2.6031,2.5846,2.5799,2.5981,2.5143,2.4689,2.4881,2.4705,2.479,2.5186,2.4543,2.3714,2.2699,2.2431,2.2431,2.2716,2.4178,2.4883,2.4946,2.6686,2.7317,2.7098,2.7448,2.7074,2.6115,2.5118,2.4792,2.4834,2.4255,2.4094,2.419,2.419,2.4275,2.441,2.4469,2.4575,2.4738,2.4937,2.5004,2.5034,2.5248,2.5308,2.5308,2.5308,2.5308,2.5308,2.5308,2.5326,2.5387,2.5491,2.5559,2.5603,2.5659,2.5683,2.5703,2.5703,2.5703,2.5703,2.5703,2.5703,2.5658,2.5549,2.5514,2.5444,2.5327,2.5116,2.4943,2.4799,2.4615,2.4275,2.3746,2.3392,2.3057,2.2721,2.245,2.2017,2.1399,2.1134,2.0715,2.0089,1.9821,1.9442,1.8893,1.8361,1.7827,1.7291,1.6752,1.638,0.9849,0.0,0.0,0.0,0.0,1.6927,1.9233,0.0,2.161,2.2508,2.3017,2.3355,2.3565,2.3595,2.3773,2.4307,2.4697,2.5182,2.5888,2.6138,2.6244,2.6244,2.6505,2.6472,2.5929,2.5698,2.5507,2.5253,2.4558,2.4135,2.4135,2.4135,2.4372,2.4847,2.39,2.3054,2.2296,2.2801,2.2974,2.289,2.4634,2.54,2.5335,2.7098,2.7751,2.753,2.8139,2.7835,2.687,2.6159,2.5866,2.5786,2.4937,2.4603,2.4566,2.43,2.433,2.4512,2.4586,2.4712,2.4884,2.5047,2.5099,2.5135,2.5264,2.5308,2.5293,2.5336,2.533,2.5344,2.5363,2.5427,2.5495,2.559,2.5658,2.5703,2.5703,2.5703,2.5683,2.5662,2.5661,2.5661,2.5679,2.5652,2.5597,2.5455,2.5422,2.5378,2.5224,2.5041,2.4877,2.4723,2.452,2.4164,2.3588,2.3335,2.3009,2.2586,2.2402,2.2017,2.1414,2.1134,2.0715,2.0106,1.9854,1.953,1.9169,1.8458,1.7927,1.7544,1.6837,1.6501,0.0,0.0,0.0,0.0,0.0,0.0,1.8743,0.0,1.939,2.2044,2.2598,2.2808,2.343,2.3535,2.3713,2.4241,2.5246,2.5979,2.6013,2.6401,2.6691,2.6691,2.6691,2.6404,2.566,2.5576,2.527,2.4525,2.378,2.3359,2.3359,2.3376,2.3376,2.3359,2.3376,2.3054,2.2296,2.3761,2.4323,2.4023,2.5507,2.6425,2.684,2.7603,2.7926,2.794,2.8277,2.842,2.8391,2.7974,2.7798,2.7651,2.6054,2.5411,2.5301,2.453,2.4367,2.4545,2.4738,2.4891,2.504,2.5248,2.5308,2.5308,2.5308,2.5308,2.5313,2.5372,2.5406,2.5415,2.5495,2.5552,2.5602,2.5603,2.5658,2.5703,2.5703,2.5703,2.5682,2.5607,2.5602,2.5597,2.5602,2.5537,2.5444,2.5313,2.5308,2.5224,2.5034,2.4884,2.4723,2.4537,2.4303,2.3917,2.3259,2.3189,2.2945,2.2349,2.231,2.1915,2.1039,2.0991,2.0598,1.9756,1.9738,1.9738,1.9768,1.8674,1.8139,1.8094,1.7031,1.6527,1.0721,0.0,0.0,0.0,0.0,0.0,0.0,0.0,1.7727,1.945,2.0202,2.0891,2.2009,2.2218,2.2279,2.2425,2.4107,2.5559,2.5959,2.6401,2.6691,2.6691,2.6691,2.6404,2.566,2.5118,2.4508,0.0,2.3021,2.26,2.26,2.3105,2.3156,2.2617,2.3122,2.3054,2.2296,2.3522,2.4092,2.4023,2.6046,2.6929,2.6836,2.8126,2.8545,2.829,2.8658,2.8839,2.8766,2.8084,2.7798,2.7706,2.6667,2.5907,2.5376,2.531,2.504,2.4746,2.4897,2.5059,2.5224,2.5274,2.5308,2.5308,2.5308,2.5308,2.5313,2.5379,2.5409,2.5428,2.5547,2.5594,2.5606,2.5661,2.5683,2.5703,2.5703,2.5661,2.561,2.5603,2.5602,2.5585,2.5532,2.5508,2.5444,2.5313,2.5308,2.5274,2.5219,2.4968,2.4782,2.4723,2.4183,2.3756,2.3577,2.3117,2.2759,2.2599,2.2398,2.1915,2.1039,2.0991,2.0816,2.0441,2.0423,2.0662,2.1141,1.9981,1.9148,1.8652,1.8031,1.7722,0.0,0.0,0.0,0.0,0.0,0.0,1.58,1.6099,1.6698,0.0,1.9544,2.0112,2.144,2.1695,2.1695,2.1695,2.3018,2.4305,2.5127,2.5623,2.5983,2.6201,2.5964,2.549,2.4763,2.4289,2.3746,2.3004,2.2533,2.2296,2.2296,2.2716,2.275,2.2313,2.3021,2.3093,2.2463,2.3757,2.4409,2.439,2.632,2.7229,2.7252,2.845,2.8863,2.867,2.8905,2.9005,2.8968,2.8491,2.8301,2.8227,2.742,2.6814,2.6379,2.6247,2.6039,2.5827,2.6021,2.6219,2.6385,2.6385,2.6135,2.5846,2.5846,2.5616,2.5354,2.5421,2.5473,2.5547,2.561,2.5636,2.5658,2.5683,2.5703,2.5801,2.6152,2.6209,2.6061,2.5644,2.5541,2.5495,2.5433,2.5426,2.5397,2.5303,2.5308,2.5248,2.5109,2.491,2.4738,2.4578,2.4164,2.3795,2.3522,2.3417,2.3259,2.3014,2.3119,2.2815,2.1904,2.1887,2.1647,2.113,2.1126,2.1455,2.2119,2.0625,1.9446,1.8596,1.8331,1.8329,0.0,0.0,0.0,0.0,0.0,0.0,1.7649,1.6651,1.5993,0.0,1.9311,1.9489,2.0839,2.11,2.116,2.1199,2.1739,2.2613,2.3903,2.4429,2.4878,2.5409,2.4897,2.4203,2.346,2.3393,2.3088,2.2347,2.2296,2.2296,2.2296,2.2321,2.2349,2.2349,2.302,2.3185,2.2759,2.4249,2.5002,2.5057,2.6543,2.7506,2.7952,2.8675,2.9005,2.9005,2.9005,2.9005,2.9005,2.9005,2.9005,2.8932,2.8209,2.789,2.7739,2.726,2.7122,2.7236,2.7533,2.775,2.7895,2.7895,2.7371,2.6736,2.6736,2.6249,2.5705,2.5775,2.5896,2.5996,2.5996,2.5996,2.5996,2.5996,2.5996,2.6191,2.6973,2.7128,2.6866,2.5959,2.5731,2.5681,2.5601,2.5596,2.5596,2.5596,2.5562,2.5442,2.5139,2.5054,2.4904,2.4542,2.4408,2.4109,2.3514,2.3992,2.4089,2.3555,2.4135,2.408,2.3138,2.3101,2.2682,2.1819,2.1874,2.2168,2.2688,2.0962,1.958,1.8581,1.8523,1.8692,0.0,0.0,0.0,0.0,0.0,0.0,1.5261,1.4939,1.5029,0.0,1.5474,1.5679,1.6968,1.7452,1.7781,1.8099,1.9597,2.1311,2.3081,2.3763,2.4232,2.4664,2.4592,2.4203,2.346,2.3393,2.3088,2.2347,2.2296,2.2296,2.2296,2.25,2.2621,2.2621,2.3017,2.3191,2.3105,2.4314,2.5236,2.5875,2.7103,2.8061,2.8767,2.8932,2.9005,2.9005,2.9005,2.9005,2.9005,2.9005,2.9005,2.8987,2.8822,2.8374,2.7816,2.8026,2.7721,2.7259,2.7694,2.7874,2.7895,2.7895,2.778,2.764,2.764,2.7566,2.7526,2.7642,2.7726,2.7793,2.7793,2.7793,2.7793,2.7793,2.7793,2.7832,2.8008,2.7968,2.7831,2.7631,2.7576,2.754,2.7412,2.739,2.739,2.739,2.7221,2.7045,2.6985,2.6688,2.646,2.6386,2.5698,2.5191,2.506,2.4687,2.4405,2.4303,2.4423,2.408,2.3138,2.3101,2.2917,2.2514,2.2966,2.3044,2.2701,2.1786,2.1226,2.1013,2.0525,2.0063,0.0,0.0,0.0,1.9125,0.0,0.0,0.0,1.6529,1.6331,1.7347,1.6428,1.5863,1.7199,1.7616,1.7804,1.801,1.95,2.0924,2.1698,2.2638,2.342,2.3904,2.3628,2.3257,2.2885,2.2852,2.2699,2.233,2.2296,2.2363,2.2487,2.2621,2.2784,2.2947,2.3105,2.3288,2.3448,2.4024,2.4791,2.5761,2.6731,2.7622,2.8429,2.8822,2.9005,2.9005,2.9005,2.9005,2.9017,2.9145,2.9192,2.9192,2.9192,2.901,2.8772,2.9087,2.8943,2.8654,2.902,2.9159,2.9159,2.9159,2.8852,2.8503,2.8536,2.8349,2.8126,2.8228,2.826,2.8301,2.8301,2.8301,2.8301,2.8301,2.8301,2.8418,2.8803,2.8856,2.8902,2.9233,2.9294,2.8997,2.8067,2.7895,2.7849,2.7725,2.7593,2.7426,2.7223,2.7015,2.686,2.6752,2.6154,2.5674,2.5521,2.5377,2.5236,2.5066,2.5405,2.5163,2.4179,2.4143,2.3845,2.3152,2.3445,2.3443,2.3143,2.2798,2.2183,2.1245,2.093,2.0446,0.0,0.0,0.0,0.0,0.0,2.0504,0.0,0.0,0.0,0.0,0.0,0.0,0.0,0.0,0.0,0.0,0.0,0.0,0.0,2.1195,0.0,2.269,2.2482,2.2229,2.2107,2.1941,2.1975,2.2279,2.2078,2.2169,2.2665,2.2822,2.3021,2.33,2.3357,2.3533,2.3795,2.3951,2.4574,2.5631,2.6447,2.7255,2.8044,2.8693,2.9005,2.9005,2.9005,2.904,2.9089,2.931,2.9444,2.9513,2.9465,2.957,2.9712,2.9931,3.0006,3.0028,3.0311,3.0404,3.0404,3.0404,2.9927,2.9389,2.9457,2.9096,2.8694,2.8788,2.8809,2.8809,2.8809,2.8809,2.8809,2.8809,2.8809,2.8964,2.9608,2.9712,2.9871,3.0401,3.0481,3.0028,2.8623,2.8349,2.8222,2.8018,2.7928,2.7754,2.7419,2.7343,2.7234,2.7082,2.6632,2.6256,2.5981,2.6124,2.6098,2.5828,2.637,2.6298,2.5392,2.5163,2.4592,2.3616,2.3595,2.3595,2.3595,2.3595,2.2688,2.0979,2.0979,2.0534,0.0,0.0,0.0,0.0,2.2107,0.0,0.0,0.0,1.9395,1.8333,0.0,0.0,0.0,0.0,0.0,0.0,0.0,0.0,1.8152,1.9365,2.0321,2.039,2.1519,2.204,2.1393,2.0673,2.0842,2.2195,2.131,2.1285,2.2626,2.3259,2.3599,2.3649,2.3927,2.4103,2.4151,2.4857,2.5638,2.6465,2.7273,2.8099,2.8877,2.8968,2.9005,2.9005,2.9005,2.9134,2.9361,2.9392,2.9616,2.9916,2.9748,2.9678,2.9712,2.9931,3.0006,3.0028,3.0311,3.0404,3.0404,3.0404,3.0364,3.0348,3.0429,3.0436,3.0449,3.0565,3.0605,3.0605,3.0605,3.0605,3.0605,3.0605,3.0605,3.0605,3.0566,3.0523,3.0474,3.0505,3.0442,3.035,3.016,2.9915,2.9742,2.972,2.9413,2.9164,2.9133,2.8904,2.8746,2.873,2.8108,2.7674,2.7632,2.7021,2.6623,2.6573,2.664,2.6453,2.5924,2.5008,2.4204,2.3616,2.3595,2.3595,2.3595,2.3595,2.2913,2.1615,2.1615,2.0953,0.0,0.0,0.0,0.0,0.0,0.0,2.1298,0.0,2.0636,0.0,0.0,0.0,0.0,0.0,0.0,0.0,1.7662,0.0,0.0,0.0,1.9051,0.0,0.0,0.0,2.114,2.0471,2.064,2.2178,2.1176,2.1225,2.2896,2.3437,2.3795,2.3986,2.4132,2.441,2.4897,2.5227,2.6035,2.7291,2.764,2.8227,2.9005,2.9167,2.9225,2.9235,2.9355,2.9475,2.9579,2.9705,2.9845,3.0006,3.008,3.0107,3.0121,3.0196,3.0222,3.0254,3.0361,3.0404,3.0421,3.0451,3.0503,3.0568,3.0645,3.0735,3.0836,3.0879,3.0898,3.0898,3.0898,3.0898,3.0879,3.0794,3.0772,3.074,3.0614,3.0558,3.0517,3.0447,3.0411,3.0404,3.0404,3.0311,3.0129,2.9861,2.9678,2.9484,2.9203,2.9067,2.9005,2.9005,2.8352,2.7897,2.7897,2.7162,2.6691,2.6691,2.6436,2.6068,2.5559,2.4796,2.4158,2.3595,2.3595,2.3595,2.3595,2.3595,2.315,2.2276,2.1875,2.1396,2.3328,0.0,0.0,0.0,0.0,0.0,0.0,0.0,0.0,0.0,0.0,0.0,0.0,0.0,0.0,0.0,0.0,1.7777,0.0,1.7162,0.0,0.0,0.0,0.0,0.0,1.979,1.9896,2.1854,2.0568,2.0732,2.3082,2.339,2.3719,2.419,2.441,2.4805,2.5393,2.5833,2.6641,2.7798,2.8026,2.8463,2.9123,2.931,2.9424,2.9484,2.9644,2.9739,2.9788,2.9947,3.0035,3.0136,3.0317,3.0404,3.0404,3.0404,3.0404,3.0404,3.0404,3.0404,3.0408,3.0477,3.0552,3.062,3.0682,3.0793,3.0898,3.0898,3.0898,3.0898,3.0898,3.0898,3.0878,3.0722,3.0695,3.065,3.0529,3.0498,3.0482,3.0414,3.0404,3.0392,3.0305,3.0241,3.0099,2.9756,2.9588,2.9387,2.9044,2.9005,2.9005,2.9005,2.8352,2.7897,2.7897,2.7162,2.6691,2.6691,2.6384,2.589,2.524,2.4831,2.4287,2.3616,2.3789,2.3879,2.3879,2.4059,2.3926,2.3481,2.2437,2.1817,0.0,0.0,0.0,2.3163,0.0,0.0,0.0,0.0,2.3992,0.0,0.0,0.0,0.0,0.0,0.0,0.0,0.0,0.0,0.0,0.0,0.0,0.0,0.0,0.0,0.0,1.8082,1.8042,2.1004,1.9042,1.9302,2.3006,2.3099,2.3382,2.4171,2.4952,2.5374,2.5393,2.6935,2.7761,2.7816,2.8583,2.9097,2.9392,2.9402,2.9504,2.9696,2.9696,2.9804,2.9991,2.9999,3.015,3.0398,3.0404,3.0404,3.0404,3.0404,3.0404,3.0404,3.0404,3.0404,3.0408,3.0477,3.0552,3.062,3.0682,3.0793,3.0898,3.0898,3.0898,3.0898,3.0898,3.0898,3.0878,3.0722,3.0695,3.065,3.0529,3.0498,3.0482,3.0414,3.0404,3.0317,3.0061,2.9845,2.9722,2.9705,2.9314,2.9028,2.9005,2.9005,2.9005,2.9005,2.8352,2.7897,2.7897,2.7162,2.6691,2.6691,2.6691,2.6245,2.524,2.5182,2.4692,2.3616,2.4231,2.4575,2.4575,2.5217,2.5531,2.5455,2.349,2.2212,2.5447,2.6189,2.6548,2.464,0.0,0.0,0.0,0.0,0.0,0.0,0.0,0.0,0.0,0.0,0.0,0.0,0.0,0.0,0.0,0.0,0.0,0.0,0.0,0.0,0.0,0.0,1.8353,2.0565,1.9738,2.0406,2.3371,2.3711,2.3914,2.419,2.497,2.5668,2.619,2.7255,2.8062,2.8601,2.9041,2.931,2.9412,2.9678,2.9837,2.9908,3.008,3.0208,3.026,3.026,3.0317,3.0404,3.0404,3.0404,3.0404,3.0404,3.0404,3.0404,3.0404,3.0433,3.0477,3.0529,3.062,3.068,3.0793,3.0858,3.0898,3.0898,3.0898,3.0898,3.0898,3.0837,3.0742,3.0657,3.0606,3.0533,3.0447,3.0425,3.0601,3.1147,3.111,3.1133,3.1569,3.1345,3.0718,2.9662,2.9363,2.9192,2.9028,2.9005,2.9005,2.9005,2.8352,2.7897,2.7897,2.7162,2.6911,2.7384,2.7418,2.7176,2.6619,2.6595,2.6057,2.4949,2.5143,2.5247,2.5247,2.5495,2.5615,2.5591,2.4871,2.4135,2.6495,2.7146,2.7391,2.5744,2.5817,0.0,2.4329,0.0,2.4926,0.0,0.0,0.0,0.0,0.0,0.0,0.0,0.0,0.0,0.0,1.5665,0.0,0.0,0.0,0.0,0.0,0.0,1.7449,2.0022,1.9298,0.0,0.0,2.3586,2.3896,2.419,2.5264,2.608,2.6583,2.7677,2.8529,2.9145,2.932,2.9465,2.9607,2.9885,3.0042,3.015,3.0317,3.0404,3.0404,3.0404,3.0404,3.0404,3.0404,3.0404,3.0404,3.0404,3.0404,3.039,3.0428,3.0467,3.0505,3.0611,3.065,3.0721,3.0858,3.0898,3.0898,3.0898,3.0898,3.0898,3.0838,3.0769,3.068,3.0587,3.0762,3.0951,3.0881,3.1096,3.1462,3.2025,3.1905,3.1873,3.2321,3.2059,3.144,3.0408,3.0174,3.0061,2.9885,2.9592,2.9373,2.9235,2.8416,2.7888,2.7871,2.7654,2.7706,2.8197,2.823,2.8035,2.7648,2.7419,2.6871,2.594,2.5942,2.5959,2.5959,2.6198,2.6303,2.6318,2.6287,2.5718]}]]